[[{"header":{"parameterUnit":"m.s-1","parameterCategory":1,"la1":30.6,"la2":29.2853,"lo1":-89.7004,"lo2":-87.6739,"dy":0.0162,"dx":0.0183,"nx":112,"ny":82,"refTime":"2024-04-11T12:00:00:Z","depth":0,"parameterNumber":2,"parameterNumberName":"U-component_of_WINDS"},"data":[0.0,0.0,0.0,0.0,0.0,0.0,0.0,0.0,0.0,0.0,0.0,0.0,0.0,0.0,0.0,0.0,0.0,0.0,0.0,0.0,0.0,0.0,0.0,0.0,0.0,0.0,0.0,0.0,0.0,0.0,0.0,0.0,0.0,0.0,0.0,0.0,0.0,0.0,0.0,0.0,0.0,0.0,0.0,0.0,0.0,0.0,0.0,0.0,0.0,0.0,0.0,0.0,0.0,0.0,0.0,0.0,0.0,0.0,0.0,0.0,0.0,0.0,0.0,0.0,0.0,0.0,0.0,0.0,0.0,0.0,0.0,0.0,0.0,0.0,0.0,0.0,0.0,0.0,0.0,0.0,0.0,0.0,0.0,0.0,0.0,0.0,0.0,0.0,0.0,0.0,-2.2274,-2.7417,-3.2546,-3.555,-3.5442,-3.2477,-2.9161,-2.5743,0.0,0.0,0.0,0.0,0.0,0.0,0.0,0.0,0.0,0.0,0.0,0.0,0.0,0.0,0.0,0.0,0.0,0.0,0.0,0.0,0.0,0.0,0.0,0.0,0.0,0.0,0.0,0.0,0.0,0.0,0.0,0.0,0.0,0.0,0.0,0.0,0.0,0.0,0.0,0.0,0.0,0.0,0.0,0.0,0.0,0.0,0.0,0.0,0.0,0.0,0.0,0.0,0.0,0.0,0.0,0.0,0.0,0.0,0.0,0.0,0.0,0.0,0.0,0.0,0.0,0.0,0.0,0.0,0.0,0.0,0.0,0.0,0.0,0.0,0.0,0.0,0.0,0.0,0.0,0.0,0.0,0.0,0.0,0.0,0.0,0.0,0.0,0.0,0.0,0.0,0.0,0.0,0.0,0.0,0.0,0.0,0.0,0.0,0.0,0.0,0.0,0.0,0.0,0.0,-2.2908,-2.973,-3.3049,-3.4516,-3.3828,-3.1325,-2.8092,-2.4105,0.0,0.0,0.0,0.0,0.0,0.0,0.0,0.0,0.0,0.0,0.0,0.0,0.0,0.0,0.0,0.0,0.0,0.0,0.0,0.0,0.0,0.0,0.0,0.0,0.0,0.0,0.0,0.0,0.0,0.0,0.0,0.0,0.0,0.0,0.0,0.0,0.0,0.0,0.0,0.0,0.0,0.0,0.0,0.0,0.0,0.0,0.0,0.0,0.0,0.0,0.0,0.0,0.0,0.0,0.0,0.0,0.0,0.0,0.0,0.0,0.0,0.0,0.0,0.0,0.0,0.0,0.0,0.0,0.0,0.0,0.0,0.0,0.0,0.0,0.0,0.0,0.0,0.0,0.0,0.0,0.0,0.0,0.0,0.0,0.0,0.0,0.0,0.0,0.0,0.0,0.0,0.0,0.0,0.0,0.0,0.0,0.0,0.0,0.0,0.0,0.0,0.0,0.0,-2.2147,-2.6077,-3.1111,-3.3031,-3.381,-3.3429,-3.0297,-2.6948,-2.3648,-1.9512,0.0,0.0,0.0,0.0,0.0,0.0,0.0,0.0,0.0,0.0,0.0,0.0,0.0,0.0,0.0,0.0,0.0,0.0,0.0,0.0,0.0,0.0,0.0,0.0,0.0,0.0,0.0,0.0,0.0,0.0,0.0,0.0,0.0,0.0,0.0,0.0,0.0,0.0,0.0,0.0,0.0,0.0,0.0,0.0,0.0,0.0,0.0,0.0,0.0,0.0,0.0,0.0,0.0,0.0,0.0,0.0,0.0,0.0,0.0,0.0,0.0,0.0,0.0,0.0,0.0,0.0,0.0,0.0,0.0,0.0,0.0,0.0,0.0,0.0,0.0,0.0,0.0,0.0,0.0,0.0,0.0,0.0,0.0,0.0,0.0,0.0,0.0,0.0,0.0,0.0,0.0,0.0,0.0,0.0,0.0,0.0,0.0,0.0,0.0,0.0,0.0,0.0,-2.4491,-2.7984,-3.1039,-3.2234,-3.2687,-3.2306,-2.9034,-2.5745,-2.2763,-1.8346,0.0,0.0,0.0,0.0,0.0,0.0,0.0,0.0,0.0,0.0,0.0,0.0,0.0,0.0,0.0,0.0,0.0,0.0,0.0,0.0,0.0,0.0,0.0,0.0,0.0,0.0,0.0,0.0,0.0,0.0,0.0,0.0,0.0,0.0,0.0,0.0,0.0,0.0,0.0,0.0,0.0,0.0,0.0,0.0,0.0,0.0,0.0,0.0,0.0,0.0,0.0,0.0,0.0,0.0,0.0,0.0,0.0,0.0,0.0,0.0,0.0,0.0,0.0,0.0,0.0,0.0,0.0,0.0,0.0,0.0,0.0,0.0,0.0,0.0,0.0,0.0,0.0,0.0,0.0,0.0,0.0,0.0,0.0,0.0,0.0,0.0,0.0,0.0,0.0,0.0,0.0,0.0,0.0,0.0,0.0,0.0,0.0,0.0,0.0,0.0,0.0,0.0,-2.318,-2.6113,-2.86,-3.0242,-3.055,-2.9052,-2.7247,-2.4464,-2.0402,-1.6958,0.0,0.0,0.0,0.0,0.0,0.0,0.0,0.0,0.0,0.0,0.0,0.0,0.0,0.0,0.0,0.0,0.0,0.0,0.0,0.0,0.0,0.0,0.0,0.0,0.0,0.0,0.0,0.0,0.0,0.0,0.0,0.0,0.0,0.0,0.0,0.0,0.0,0.0,0.0,0.0,0.0,0.0,0.0,0.0,0.0,0.0,0.0,0.0,0.0,0.0,0.0,0.0,0.0,0.0,0.0,0.0,0.0,0.0,0.0,0.0,0.0,0.0,0.0,0.0,0.0,0.0,0.0,0.0,0.0,0.0,0.0,0.0,0.0,0.0,0.0,0.0,0.0,0.0,0.0,0.0,0.0,0.0,0.0,0.0,0.0,0.0,0.0,0.0,0.0,0.0,0.0,0.0,0.0,0.0,0.0,0.0,0.0,0.0,0.0,0.0,0.0,0.0,-2.3361,-2.6113,0.0,-2.9445,-2.9052,-2.7948,-2.4937,-2.1975,-1.9332,0.0,0.0,0.0,0.0,0.0,0.0,0.0,0.0,0.0,0.0,0.0,0.0,0.0,0.0,0.0,0.0,0.0,0.0,0.0,0.0,0.0,0.0,0.0,0.0,0.0,0.0,0.0,0.0,0.0,0.0,0.0,0.0,0.0,0.0,0.0,0.0,0.0,0.0,0.0,0.0,0.0,0.0,0.0,0.0,0.0,0.0,0.0,0.0,0.0,0.0,0.0,0.0,0.0,0.0,0.0,0.0,0.0,0.0,0.0,0.0,0.0,0.0,0.0,0.0,0.0,0.0,0.0,0.0,0.0,0.0,0.0,0.0,0.0,0.0,0.0,0.0,0.0,0.0,0.0,0.0,0.0,0.0,0.0,0.0,0.0,0.0,0.0,0.0,0.0,0.0,0.0,0.0,0.0,0.0,0.0,0.0,0.0,0.0,0.0,0.0,0.0,0.0,-2.0173,-2.3017,-2.566,0.0,-2.8382,-2.7785,-2.6717,-2.3368,-2.0457,-1.8449,0.0,0.0,0.0,0.0,0.0,0.0,0.0,0.0,0.0,0.0,0.0,0.0,0.0,0.0,0.0,0.0,0.0,0.0,0.0,0.0,0.0,0.0,0.0,0.0,0.0,0.0,0.0,0.0,0.0,0.0,0.0,0.0,0.0,0.0,0.0,0.0,0.0,0.0,0.0,0.0,0.0,0.0,0.0,0.0,0.0,0.0,0.0,0.0,0.0,0.0,0.0,0.0,0.0,0.0,0.0,0.0,0.0,0.0,0.0,0.0,0.0,0.0,0.0,0.0,0.0,0.0,0.0,0.0,0.0,0.0,0.0,0.0,0.0,0.0,0.0,0.0,0.0,0.0,0.0,0.0,0.0,0.0,0.0,0.0,0.0,0.0,0.0,0.0,0.0,0.0,0.0,0.0,0.0,0.0,0.0,0.0,0.0,0.0,0.0,0.0,0.0,0.0,-1.8697,-2.1867,-2.4411,-2.6041,-2.6916,-2.6717,-2.5117,-2.27,-2.0197,0.0,0.0,0.0,0.0,0.0,0.0,0.0,0.0,0.0,0.0,0.0,0.0,0.0,0.0,0.0,0.0,0.0,0.0,0.0,0.0,0.0,0.0,0.0,0.0,0.0,0.0,0.0,0.0,0.0,0.0,0.0,0.0,0.0,0.0,0.0,0.0,0.0,0.0,0.0,0.0,0.0,0.0,0.0,0.0,0.0,0.0,0.0,0.0,0.0,0.0,0.0,0.0,0.0,0.0,0.0,0.0,0.0,0.0,0.0,0.0,0.0,0.0,0.0,0.0,0.0,0.0,0.0,0.0,0.0,0.0,0.0,0.0,0.0,0.0,0.0,0.0,0.0,0.0,0.0,0.0,0.0,0.0,0.0,0.0,0.0,0.0,0.0,0.0,0.0,0.0,0.0,0.0,0.0,0.0,0.0,0.0,0.0,0.0,0.0,0.0,0.0,0.0,0.0,-1.9397,-2.2174,-2.4411,-2.6041,-2.6409,-2.5685,-2.3549,-2.1094,-1.8824,-1.6856,0.0,0.0,0.0,0.0,0.0,0.0,0.0,0.0,0.0,0.0,0.0,0.0,0.0,0.0,0.0,0.0,0.0,0.0,0.0,0.0,0.0,0.0,0.0,0.0,0.0,0.0,0.0,0.0,0.0,0.0,0.0,0.0,0.0,0.0,0.0,0.0,0.0,0.0,0.0,0.0,0.0,0.0,0.0,0.0,0.0,0.0,0.0,0.0,0.0,0.0,0.0,0.0,0.0,0.0,0.0,0.0,0.0,0.0,0.0,0.0,0.0,0.0,0.0,0.0,0.0,0.0,0.0,0.0,0.0,0.0,0.0,0.0,0.0,0.0,0.0,0.0,0.0,0.0,0.0,0.0,0.0,0.0,0.0,0.0,0.0,0.0,0.0,0.0,0.0,0.0,0.0,0.0,0.0,0.0,0.0,0.0,0.0,0.0,0.0,0.0,0.0,0.0,-1.9253,-2.1829,-2.3948,-2.5552,-2.5715,-2.49,-2.2862,-2.0426,-1.8259,-1.6516,0.0,0.0,0.0,0.0,0.0,0.0,0.0,0.0,0.0,0.0,0.0,0.0,0.0,0.0,0.0,0.0,0.0,0.0,0.0,0.0,0.0,0.0,0.0,0.0,0.0,0.0,0.0,0.0,0.0,0.0,0.0,0.0,0.0,0.0,0.0,0.0,0.0,0.0,0.0,0.0,0.0,0.0,0.0,0.0,0.0,0.0,0.0,0.0,0.0,0.0,0.0,0.0,0.0,0.0,0.0,0.0,0.0,0.0,0.0,0.0,0.0,0.0,0.0,0.0,0.0,0.0,0.0,0.0,0.0,0.0,0.0,0.0,0.0,0.0,0.0,0.0,0.0,0.0,0.0,0.0,0.0,0.0,0.0,0.0,0.0,0.0,0.0,0.0,0.0,0.0,0.0,0.0,0.0,0.0,0.0,0.0,0.0,0.0,0.0,0.0,0.0,0.0,-1.8585,-2.1113,-2.3193,-2.4719,-2.4954,-2.4357,-2.2735,-2.0372,-1.8267,-1.6524,0.0,0.0,0.0,0.0,0.0,0.0,0.0,0.0,0.0,0.0,0.0,0.0,0.0,0.0,0.0,0.0,0.0,0.0,0.0,0.0,0.0,0.0,0.0,0.0,0.0,0.0,0.0,0.0,0.0,0.0,0.0,0.0,0.0,0.0,0.0,0.0,0.0,0.0,0.0,0.0,0.0,0.0,0.0,0.0,0.0,0.0,0.0,0.0,0.0,0.0,0.0,0.0,0.0,0.0,0.0,0.0,0.0,0.0,0.0,0.0,-2.2819,0.0,0.0,0.0,0.0,0.0,0.0,0.0,0.0,0.0,0.0,0.0,0.0,0.0,0.0,0.0,0.0,0.0,0.0,0.0,0.0,0.0,0.0,0.0,0.0,0.0,0.0,0.0,0.0,0.0,0.0,0.0,0.0,0.0,0.0,0.0,0.0,0.0,0.0,0.0,0.0,0.0,-1.8588,-2.1112,-2.2976,-2.3958,-2.461,-2.4121,-2.1938,-2.0065,-1.829,-1.6594,-1.3394,0.0,0.0,0.0,0.0,0.0,0.0,0.0,0.0,0.0,0.0,0.0,0.0,0.0,0.0,0.0,0.0,0.0,0.0,0.0,0.0,0.0,0.0,0.0,0.0,0.0,0.0,0.0,0.0,0.0,0.0,0.0,0.0,0.0,0.0,0.0,0.0,0.0,0.0,0.0,0.0,0.0,0.0,0.0,0.0,0.0,0.0,0.0,0.0,0.0,0.0,0.0,0.0,0.0,0.0,0.0,0.0,0.0,0.0,0.0,0.0,-2.4042,0.0,0.0,0.0,0.0,0.0,0.0,0.0,0.0,0.0,0.0,0.0,0.0,0.0,0.0,0.0,0.0,0.0,0.0,0.0,0.0,0.0,0.0,0.0,0.0,0.0,0.0,0.0,0.0,0.0,0.0,0.0,0.0,0.0,0.0,0.0,0.0,0.0,0.0,0.0,0.0,-1.8103,-2.0507,-2.2313,-2.3169,-2.3958,-2.3632,-2.1676,-1.9966,-1.8289,-1.6599,-1.3451,0.0,0.0,0.0,0.0,0.0,0.0,0.0,0.0,0.0,0.0,0.0,0.0,0.0,0.0,0.0,0.0,0.0,0.0,0.0,0.0,0.0,0.0,0.0,0.0,0.0,0.0,0.0,0.0,0.0,0.0,0.0,0.0,0.0,0.0,0.0,0.0,0.0,0.0,0.0,0.0,0.0,0.0,0.0,0.0,0.0,0.0,0.0,0.0,0.0,0.0,0.0,0.0,0.0,-3.6954,-3.7369,-3.7909,-3.7105,-3.7375,-3.815,-3.2336,-3.0274,-3.0654,0.0,0.0,0.0,0.0,0.0,0.0,0.0,0.0,0.0,0.0,0.0,0.0,0.0,0.0,0.0,0.0,0.0,0.0,0.0,0.0,0.0,0.0,0.0,0.0,0.0,-1.9476,-1.8408,0.0,0.0,0.0,0.0,0.0,0.0,0.0,0.0,0.0,0.0,0.0,0.0,-1.7581,-1.975,-2.1453,-2.2381,-2.3035,-2.2835,-2.1405,-1.9776,-1.8153,-1.6607,-1.3491,-1.1647,0.0,0.0,0.0,0.0,0.0,0.0,0.0,0.0,0.0,0.0,0.0,0.0,0.0,0.0,0.0,0.0,0.0,0.0,0.0,0.0,0.0,0.0,0.0,0.0,0.0,0.0,0.0,0.0,0.0,0.0,0.0,0.0,-2.6209,-2.3984,0.0,0.0,0.0,0.0,0.0,0.0,0.0,0.0,0.0,0.0,0.0,0.0,0.0,-3.7708,-3.9716,-4.269,-4.4341,-4.471,-4.6219,-4.6585,-4.5965,-4.5788,-4.5346,-4.4615,-4.2898,0.0,-3.3532,-3.1275,0.0,0.0,0.0,0.0,0.0,0.0,0.0,0.0,0.0,0.0,0.0,0.0,0.0,0.0,0.0,0.0,0.0,0.0,0.0,0.0,0.0,0.0,-2.5401,-2.63,-2.4924,-2.329,0.0,-1.9272,-1.5955,-1.5266,-1.4465,0.0,0.0,0.0,0.0,0.0,0.0,0.0,-1.7595,-1.929,-2.0679,-2.1558,-2.1749,-2.1441,-2.0536,-1.8978,-1.7625,-1.6646,-1.3505,-1.1671,-1.1581,-0.9983,0.0,0.0,0.0,0.0,0.0,0.0,0.0,0.0,0.0,0.0,0.0,0.0,0.0,0.0,0.0,0.0,0.0,0.0,0.0,0.0,0.0,0.0,0.0,0.0,0.0,0.0,0.0,0.0,0.0,-2.4541,-2.6701,-2.4633,-2.5704,-2.5012,0.0,0.0,0.0,0.0,0.0,0.0,0.0,0.0,0.0,-3.832,-4.0409,-4.2987,-4.6187,-4.7663,-4.8886,-4.9859,-5.0629,-5.1037,-5.1064,-5.0053,-4.9309,-4.8729,-4.7318,-4.4657,-4.0977,-3.6406,-3.2641,-2.9454,0.0,0.0,0.0,0.0,-2.4654,-2.5402,-2.7925,-2.9097,0.0,0.0,0.0,0.0,0.0,0.0,0.0,0.0,0.0,0.0,0.0,0.0,0.0,-2.8962,-2.8338,-2.7457,-2.6987,-2.4115,-2.0716,0.0,-1.5585,-1.4423,-1.4483,0.0,0.0,0.0,0.0,-1.6491,-1.765,-1.9209,-2.0363,-2.078,-2.1242,-2.0988,-1.9721,-1.857,-1.7333,-1.6002,-1.3297,-1.174,-1.1653,-1.0053,-0.9143,0.0,0.0,0.0,0.0,0.0,0.0,0.0,0.0,0.0,0.0,0.0,0.0,0.0,0.0,0.0,0.0,0.0,0.0,0.0,0.0,0.0,0.0,0.0,0.0,0.0,0.0,0.0,0.0,-2.5776,-2.8323,-2.7746,-2.921,-2.8856,0.0,0.0,0.0,0.0,0.0,0.0,-3.5684,-3.7617,-4.041,-4.4277,-4.5449,-4.7558,-5.0819,-5.1227,-5.2081,-5.3365,-5.359,-5.3886,-5.417,-5.2655,-5.1788,-5.1371,-4.9762,-4.8489,-4.7133,-4.1116,-3.7392,-3.5129,-3.1333,-2.9044,-2.7986,-2.864,-2.9264,-3.013,-3.2679,-3.3918,-3.4473,-3.4856,0.0,-3.2613,-2.9622,0.0,0.0,0.0,0.0,-2.5651,-2.8415,-3.0154,-3.1397,-3.2192,-3.1898,-3.1262,-3.0656,-2.8319,-2.4869,0.0,-1.7197,-1.5713,-1.588,0.0,0.0,0.0,0.0,-1.7153,-1.7746,-1.9046,-1.9948,-1.9992,-2.0336,-2.0083,-1.8896,-1.7863,-1.6664,-1.5211,-1.3034,-1.1685,-1.1433,-1.0004,-0.9224,-0.9219,0.0,0.0,0.0,0.0,0.0,0.0,0.0,0.0,0.0,0.0,0.0,0.0,0.0,0.0,0.0,0.0,0.0,0.0,0.0,0.0,0.0,0.0,0.0,0.0,0.0,0.0,0.0,0.0,0.0,-3.6269,-3.6006,0.0,0.0,0.0,0.0,-3.6406,-3.6855,-3.9492,-4.5273,-4.5703,-4.7012,-4.9726,-5.1387,-5.2344,-5.2578,-5.4217,-5.5074,-5.5186,-5.6019,-5.5966,-5.5101,-5.4197,-5.3288,-5.2373,-5.1315,-5.0332,-4.9183,-4.5453,-4.1989,-3.8784,-3.6161,-3.3615,-3.1737,-3.4154,-3.5077,-3.5474,-3.797,-3.8807,-3.8643,-3.7866,-3.4863,-3.1161,-2.9277,-2.6851,0.0,0.0,-2.9658,-3.1114,-3.501,-3.6583,-3.7345,-3.8098,-3.6472,-3.4747,-3.4711,-3.161,-2.7361,0.0,-2.0177,-1.8561,-1.7015,0.0,-1.6646,-1.6718,-1.7361,-1.7845,-1.79,-1.8634,-1.9159,-1.9168,-1.8516,-1.8045,-1.7972,-1.6515,-1.5264,-1.4406,-1.2747,-1.1463,-1.0693,-0.9786,-0.93,-0.9295,-0.9162,0.0,0.0,0.0,0.0,0.0,0.0,0.0,0.0,0.0,0.0,0.0,0.0,0.0,0.0,0.0,0.0,0.0,0.0,0.0,0.0,0.0,0.0,0.0,0.0,0.0,0.0,0.0,0.0,-3.8758,-4.0554,0.0,-3.9861,-4.0175,-4.0937,-4.2168,-4.4336,-4.6777,-4.9433,-5.0117,-5.1367,-5.3418,-5.4062,-5.4648,-5.5195,-5.5839,-5.6148,-5.6144,-5.6448,-5.6103,-5.5162,-5.4335,-5.3439,-5.2441,-5.1525,-5.0895,-5.0322,-4.789,-4.5478,-4.3094,-4.0546,-3.9,-3.8308,-3.9212,-3.9558,-3.975,-4.1204,-4.1306,-4.0526,-3.9044,-3.7149,-3.521,-3.391,-3.2852,-3.2306,-3.3281,-3.4098,-3.508,-3.692,-3.7914,-3.8501,-3.8722,-3.8058,-3.7242,-3.6725,-3.4229,-3.1274,-2.8484,-2.5391,-2.3024,-2.2383,-2.0546,-1.9352,-1.9823,-1.879,-1.8141,-1.8606,-1.8914,-1.8896,-1.8371,-1.8063,-1.7483,-1.6436,-1.5368,-1.4384,-1.3582,-1.2,-1.0959,-1.0682,-0.9828,-0.9353,-0.9293,-0.9216,-0.9141,0.0,0.0,0.0,0.0,0.0,0.0,0.0,0.0,0.0,0.0,0.0,0.0,0.0,0.0,0.0,0.0,0.0,0.0,0.0,0.0,0.0,0.0,0.0,0.0,0.0,0.0,-4.1485,-4.3022,-4.6011,-4.7396,-4.5986,-4.7185,-4.8164,-4.8457,-5.0625,-5.2285,-5.3105,-5.3691,-5.4551,-5.5703,-5.5742,-5.6015,-5.6582,-5.6601,-5.6599,-5.6593,-5.6607,-5.6128,-5.5209,-5.4387,-5.3484,-5.252,-5.1598,-5.1145,-5.092,-4.9408,-4.7882,-4.6254,-4.366,-4.2643,-4.2643,-4.2643,-4.2643,-4.2673,-4.2972,-4.2458,-4.1409,-3.9599,-3.8629,-3.7964,-3.6996,-3.6673,-3.6652,-3.6782,-3.7122,-3.7633,-3.8277,-3.8692,-3.895,-3.8866,-3.8765,-3.856,-3.801,-3.6193,-3.4321,-3.3269,-2.9359,-2.6117,-2.5782,-2.394,-2.2694,-2.3186,-2.1179,-1.9797,-2.0298,-1.9619,-1.8804,-1.8032,-1.7672,-1.6958,-1.5614,-1.4517,-1.3558,-1.2749,-1.1448,-1.0574,-1.0316,-0.9722,-0.9376,-0.9326,-0.9241,-0.9164,-0.9067,0.0,0.0,0.0,0.0,0.0,0.0,0.0,0.0,0.0,0.0,0.0,0.0,0.0,0.0,0.0,0.0,0.0,0.0,0.0,0.0,0.0,0.0,0.0,-3.6154,-4.0474,-4.5385,-4.9605,-5.2454,-5.4426,-5.5285,-5.466,-5.4549,-5.539,-5.5449,-5.5781,-5.6601,-5.664,-5.6621,-5.6601,-5.6601,-5.6601,-5.6601,-5.6601,-5.6601,-5.6593,-5.6573,-5.6098,-5.5222,-5.4352,-5.3487,-5.2603,-5.1624,-5.1167,-5.1028,-5.0054,-4.9126,-4.8042,-4.5398,-4.4355,-4.4335,-4.4335,-4.4335,-4.422,-4.3331,-4.2482,-4.147,-3.974,-3.9113,-3.8888,-3.803,-3.7783,-3.7937,-3.865,-3.8736,-3.8776,-3.9356,-3.9311,-3.9073,-3.8935,-3.8792,-3.8707,-3.867,-3.7422,-3.6285,-3.6266,-3.177,-2.7732,-2.6961,-2.6709,-2.6614,-2.6614,-2.4494,0.0,-2.2884,-2.0779,-1.8998,-1.8227,-1.7368,-1.653,-1.5723,-1.4173,-1.2912,-1.2138,-1.1321,-1.0543,-0.9758,-0.9654,-0.9623,-0.9626,-0.9487,-0.9354,-0.9213,0.0,0.0,0.0,0.0,0.0,0.0,0.0,0.0,0.0,0.0,0.0,0.0,0.0,0.0,0.0,0.0,0.0,0.0,0.0,0.0,0.0,-3.743,-4.1652,-4.1281,-4.6726,-5.1697,-5.4241,-5.6819,-5.8529,-5.887,-5.8742,-5.874,-5.8983,-5.8457,-5.7969,-5.7558,-5.7539,-5.7246,-5.6621,-5.6601,-5.6601,-5.6601,-5.6601,-5.6601,-5.6598,-5.595,-5.5203,-5.4333,-5.3446,-5.2576,-5.1747,-5.1478,-5.128,-5.105,-4.9526,-4.869,-4.8225,-4.6764,-4.5794,-4.5248,-4.5248,-4.5248,-4.5124,-4.425,-4.337,-4.2462,-4.1355,-4.0497,-3.9888,-3.9595,-3.9519,-3.9538,-3.9688,-3.9642,-3.9572,-3.9702,-3.9489,-3.9205,-3.9073,-3.8906,-3.86,-3.797,-3.7033,-3.6101,-3.5481,-3.3623,-3.2082,-3.1861,-3.0344,-2.9177,-2.9112,-2.7032,0.0,-2.4693,-2.4016,-2.3038,-2.1634,-2.0734,-1.9908,-1.9051,-1.7519,-1.6486,-1.6251,-1.5508,-1.4932,-1.4655,-1.4623,-1.4562,-1.4492,-1.4347,-1.4208,0.0,0.0,0.0,0.0,0.0,0.0,0.0,0.0,0.0,0.0,0.0,0.0,0.0,0.0,0.0,0.0,0.0,0.0,0.0,0.0,0.0,0.0,-4.33,-4.7706,-4.8477,-5.2353,-5.5788,-5.7584,-5.9821,-6.1229,-6.1294,-6.1391,-6.1449,-6.145,-6.0366,-5.9335,-5.8496,-5.8105,-5.75,-5.6621,-5.6601,-5.6601,-5.6601,-5.6601,-5.6601,-5.6599,-5.5719,-5.4836,-5.3971,-5.3108,-5.2222,0.0,-5.1408,-5.1124,-5.0615,-4.9595,-4.8674,0.0,0.0,0.0,0.0,0.0,-4.5594,-4.5479,-4.4605,-4.3733,-4.2853,-4.1974,-4.105,-4.0298,-4.0262,-4.0244,-4.0234,-4.0186,-4.0117,-3.9996,-3.9922,-3.967,-3.9346,-3.8829,-3.8572,-3.8172,-3.7278,-3.643,-3.567,-3.5114,0.0,0.0,-3.3807,-3.2632,-3.1684,-3.1658,-2.9605,-2.7761,-2.694,-2.5931,-2.4667,-2.303,-2.2099,-2.1261,-2.0408,-1.884,0.0,0.0,0.0,-1.6689,-1.6648,-1.6614,0.0,0.0,0.0,-1.6244,-1.6072,0.0,0.0,0.0,-1.3901,-1.4093,0.0,0.0,0.0,0.0,0.0,0.0,0.0,0.0,0.0,0.0,0.0,0.0,0.0,0.0,0.0,0.0,-4.9383,-5.4323,-5.6068,-5.7184,-5.8336,-5.9738,-6.1621,-6.2789,-6.2717,-6.2893,-6.2999,-6.2901,-6.1344,-6.0049,-5.9235,0.0,0.0,0.0,0.0,-5.6601,-5.6601,-5.6601,-5.6601,-5.658,-5.5623,-5.4743,-5.3978,-5.3001,-5.2138,-5.139,-5.1402,-5.0872,-4.9994,-4.9917,-4.8754,-4.6975,-4.6061,-4.5703,-4.5693,-4.5631,-4.5594,0.0,0.0,0.0,0.0,-4.2123,-4.1219,-4.044,-4.0335,-4.0318,-4.0291,-4.0291,-4.0253,-4.0176,-4.0038,-3.987,-3.9482,-3.8588,-3.8208,-3.7787,-3.6874,-3.5984,-3.528,-3.5083,-3.4371,-3.382,-3.3807,-3.3807,-3.3807,-3.3807,-3.1971,0.0,-2.9519,-2.7405,-2.5405,-2.3875,0.0,0.0,-2.1125,-1.9618,-1.8669,-1.857,-1.79,-1.7493,-1.7506,-1.7439,-1.7365,-1.731,-1.7295,-1.7203,-1.7003,-1.6867,-1.7707,-1.9358,-1.6924,-1.5885,0.0,0.0,0.0,0.0,0.0,0.0,0.0,0.0,0.0,0.0,0.0,0.0,0.0,0.0,0.0,-4.7473,-5.2742,-5.6953,-5.8648,-5.9707,-6.019,-5.9923,-6.2078,-6.3355,-6.2756,-6.3352,-6.3541,-6.2944,-6.1342,-6.0036,-5.9171,-5.8336,-5.7499,-5.6621,-5.6601,-5.6601,-5.6601,-5.6601,-5.6601,-5.6582,0.0,0.0,-5.3943,-5.2377,-5.1554,-5.1397,-5.1395,-5.0897,-5.0035,-4.9321,-4.7933,-4.6201,-4.5851,-4.5703,-4.5693,-4.5631,-4.5594,-4.5575,-4.5421,-4.4778,-4.3895,-4.3043,-4.2153,-4.1302,-4.0579,-4.0344,0.0,-4.0289,-4.0253,-4.0196,-4.0176,-3.9975,-3.9713,-3.9482,-3.9208,-3.8798,-3.7899,-3.6981,-3.6102,-3.5388,-3.451,-3.3855,-3.382,-3.3807,-3.3807,-3.3807,-3.3403,-3.2816,-3.2014,-3.0913,-2.9837,-2.8819,-2.7387,-2.6155,-2.5237,-2.426,-2.3412,-2.2701,-2.2516,-2.2423,-2.2442,-2.2363,-2.2314,-2.2311,-2.2249,-2.2143,-2.2012,-2.1814,-2.1817,-2.1923,-1.9345,-1.9027,0.0,0.0,0.0,0.0,0.0,0.0,0.0,0.0,0.0,0.0,0.0,-3.4629,-3.8627,0.0,-4.7984,-5.2376,-5.6038,-5.8759,-6.0071,-6.0678,-6.0857,-6.049,-6.2054,-6.2988,-6.2634,-6.3024,-6.3158,-6.2829,-6.1244,-5.9947,-5.9148,-5.8305,-5.7475,-5.662,-5.6601,-5.6601,-5.6601,-5.6601,-5.6387,-5.5937,-5.4629,-5.3769,-5.33,-5.1991,-5.1404,-5.1402,-5.1402,-5.0654,-4.935,-4.8042,-4.694,-4.6046,-4.5902,-4.5801,-4.575,-4.5668,-4.5646,-4.564,-4.5603,-4.5037,-4.4239,-4.3799,-4.3062,-4.2192,-4.1302,-4.1029,-4.0917,-4.0476,-4.0308,-4.0244,-4.0215,-4.0099,-3.9861,-3.937,-3.9101,-3.858,-3.7246,-3.654,-3.5882,-3.4989,-3.437,-3.3985,-3.3959,-3.3921,-3.3868,-3.382,-3.3807,-3.3513,-3.2693,-3.2247,-3.1537,-3.0283,-2.9038,-2.7778,-2.6505,-2.523,-2.4293,-2.3824,-2.3792,-2.38,-2.38,-2.3779,-2.3747,-2.3743,-2.3718,-2.3618,-2.3459,-2.3313,-2.3119,-2.282,-2.1413,-2.1177,0.0,0.0,0.0,0.0,0.0,0.0,0.0,-2.963,-3.1771,-3.3457,-3.6395,-4.0095,-4.4738,-4.8381,-5.2146,-5.6621,-5.8704,-6.0035,-6.0773,-6.079,-6.0727,-6.075,-6.1776,-6.2421,-6.2256,-6.2441,-6.254,-6.2445,-6.0875,-5.9664,-5.9098,-5.8102,-5.7246,-5.6596,-5.658,-5.6581,-5.6601,-5.6601,-5.6152,-5.5293,-5.4414,-5.3535,-5.2676,-5.1797,-5.1406,-5.1386,-5.1053,-5.0113,-4.8677,-4.6932,-4.6195,-4.6134,-4.6067,-4.5958,-4.5848,-4.5764,-4.5727,-4.5717,-4.5637,-4.515,-4.4545,-4.4363,-4.3818,-4.3062,-4.2036,-4.1714,-4.1526,-4.0654,-4.037,-4.0307,-4.0233,-4.0206,-4.0005,-3.925,-3.8978,-3.8464,-3.7017,-3.6336,-3.5776,-3.5002,-3.4474,-3.421,-3.4377,-3.4352,-3.4183,-3.3879,-3.3815,-3.3582,-3.2926,-3.2693,-3.2087,-3.0803,-2.9758,-2.8423,-2.6626,-2.5032,-2.4039,-2.3806,-2.3806,-2.3806,-2.3806,-2.3806,-2.3803,-2.3797,-2.3797,-2.3721,-2.3562,-2.3487,-2.3336,-2.3065,-2.2881,-2.2535,-2.8846,-2.9151,-2.9917,-2.9917,-2.9991,-3.0251,0.0,-3.4767,-3.8515,-4.0253,-4.5058,-4.964,-5.1915,-5.4729,-5.721,-5.87,-5.9905,-6.0685,-6.0793,-6.0203,-5.9777,-5.984,-6.135,-6.2123,-6.1414,-6.2051,-6.2211,-6.1504,-5.9905,-5.8943,-5.8929,-5.7474,-5.6603,-5.6513,-5.6504,-5.6533,-5.66,-5.66,-5.6151,-5.5293,-5.4414,-5.3535,-5.2676,-5.1797,-5.1406,-5.1328,-4.9823,-4.9061,-4.8746,-4.7011,-4.6275,-4.6269,-4.6192,-4.6126,-4.605,-4.5911,-4.5838,-4.5785,-4.5708,-4.5629,-4.5415,-4.4564,-4.4239,-4.3865,-4.2269,-4.1756,-4.1539,-4.0724,-4.0441,-4.037,-4.0307,-4.0243,-4.0167,-4.0062,-3.9944,-3.9785,-3.9585,-3.8275,-3.7057,-3.6832,-3.5526,-3.4656,-3.532,-3.5379,-3.5002,-3.4031,-3.3881,-3.3818,-3.3678,-3.3041,-3.2528,-3.2344,-3.0968,-2.908,-2.6618,-2.5521,-2.4638,-2.386,-2.3806,-2.3806,-2.3806,-2.3806,-2.3795,-2.3795,-2.3795,-2.38,-2.3772,-2.37,-2.3567,-2.3348,-2.3156,-2.2799,-3.2686,-3.3474,-3.4265,-3.4729,-3.5937,-3.7336,-3.8599,-4.1237,-4.402,-4.6153,-4.9073,-5.1797,-5.3644,-5.5966,-5.7925,0.0,-6.0054,-6.0592,-6.0108,-5.9788,-5.9246,-5.8303,-5.8887,-5.9456,-5.9675,-6.0013,-6.0117,-5.9808,-5.8665,-5.8032,-5.814,-5.7031,-5.6402,-5.6449,-5.6475,-5.6508,-5.6538,-5.6548,-5.5871,-5.4547,-5.4178,-5.3281,-5.1933,-5.1562,-5.1406,-5.1308,-4.9629,-4.8905,-4.8768,-4.7025,-4.6294,-4.63,-4.6267,-4.622,-4.6134,-4.6003,-4.5923,-4.5841,-4.5826,-4.5788,-4.5688,-4.5244,-4.4768,-4.4119,-4.292,-4.2184,-4.158,-4.0734,-4.0471,-4.0449,-4.0413,-4.0334,-4.0271,-4.0252,-4.0186,-3.9984,-3.947,-3.8344,-3.7256,-3.6744,-3.5989,-3.5528,-3.5846,-3.622,-3.6323,-3.5844,-3.52,-3.4583,-3.4028,-3.3613,-3.2983,-3.2021,-3.0467,-2.8872,-2.7302,-2.6359,-2.5674,-2.5274,-2.4777,-2.4502,-2.4502,-2.4049,-2.3806,-2.3806,-2.3806,-2.3792,-2.3804,-2.3765,-2.3667,-2.3517,-2.3348,-2.3107,-3.4816,-3.6402,-3.7912,-3.8711,-4.094,-4.3299,-4.4711,-4.6308,-4.8054,-5.006,-5.1281,-5.2425,-5.3757,-5.5681,-5.7331,-5.8205,-5.9243,-5.9751,-5.9227,-5.8995,-5.8357,-5.6914,-5.658,-5.6647,-5.7117,-5.7821,-5.837,-5.8656,-5.7871,-5.7443,-5.7541,-5.6737,-5.6283,-5.6348,-5.6414,-5.6459,-5.6469,-5.6246,-5.5404,-5.3967,-5.3742,-5.2848,-5.1406,-5.1406,-5.1289,-5.0996,-4.9531,-4.8769,-4.8417,-4.6913,-4.6302,-4.6291,-4.6306,-4.6271,-4.6217,-4.6123,-4.6027,-4.5958,-4.5923,-4.5725,-4.5457,-4.5421,-4.4789,-4.3914,-4.3054,-4.2329,-4.1659,-4.0781,-4.0519,-4.0499,-4.051,-4.0432,-4.0362,-4.0316,-4.0252,-4.0043,-3.9423,-3.8547,-3.7709,-3.7139,-3.6748,-3.6576,-3.6803,-3.7299,-3.7621,-3.7588,-3.6834,-3.5839,-3.4668,-3.4197,-3.3399,-3.198,-3.0533,-2.9237,-2.8146,-2.7266,-2.6633,-2.634,-2.571,-2.5259,-2.5031,-2.4458,-2.4031,-2.3795,-2.3806,-2.3803,-2.3807,-2.3807,-2.3743,-2.3652,-2.3517,-2.3348,-3.442,-3.7188,-4.0476,-4.1293,-4.3931,-4.6568,-4.7404,-4.8834,-5.0246,-5.1175,-5.2121,-5.2806,-5.3016,-5.4618,-5.6059,-5.6412,-5.7332,-5.8036,-5.8215,-5.7574,-5.6774,-5.5941,-5.5103,-5.4314,0.0,-5.5843,-5.7695,-5.8535,-5.7854,-5.7395,-5.7415,-5.6648,-5.62,-5.6201,-5.6267,-5.6344,-5.639,-5.5629,-5.4797,-5.3894,-5.31,-5.2273,-5.1399,-5.1405,-5.0976,-5.0195,-4.9297,-4.8418,-4.7578,-4.6679,-4.6307,-4.6306,-4.6297,-4.6308,-4.6298,-4.6286,-4.6216,-4.6089,-4.6022,-4.5398,-4.4633,-4.4634,-4.4001,-4.3088,-4.2277,-4.1977,-4.1724,-4.0838,-4.0539,-4.05,-4.0499,-4.0502,-4.0458,-4.0325,-4.0307,-4.0289,-4.0253,-3.9519,-3.8842,-3.8823,-3.8137,-3.7804,-3.8585,-3.8745,-3.8743,-3.8753,-3.8612,-3.7792,-3.5812,-3.4699,-3.3784,-3.295,-3.1991,-3.0753,-2.9095,-2.8157,-2.7302,-2.645,-2.6304,-2.5906,-2.5121,-2.5005,-2.4592,-2.3824,-2.3806,-2.3795,-2.3795,-2.3795,-2.3792,-2.3793,-2.3652,-2.3494,-3.762,-4.0494,-4.3113,-4.4506,-4.6884,-4.8964,-4.9243,-5.0172,-5.0878,-5.0599,-4.9553,-4.8536,-4.8042,-4.9145,-5.0354,-5.1054,-5.3987,-5.6218,-5.6324,-5.6668,-5.6209,-5.43,-5.386,0.0,0.0,0.0,0.0,-5.5996,-5.6302,-5.6491,-5.6535,-5.6277,-5.616,-5.6197,-5.6226,-5.6246,-5.6271,-5.5512,-5.4697,-5.3822,-5.2423,-5.1634,-5.1393,-5.1397,-5.0953,-5.0155,-4.9276,-4.8418,-4.7539,-4.666,-4.6308,-4.6307,-4.6305,-4.6299,-4.6308,-4.6306,-4.6267,-4.615,-4.5494,-4.5032,-4.4637,-4.4063,-4.3239,-4.2406,-4.2092,-4.1616,-4.1106,-4.0751,-4.0619,-4.0564,-4.0577,-4.0523,-4.0493,-4.0449,-4.0351,-4.0298,-4.0299,-3.9593,-3.8965,-3.8965,-3.8727,-3.8603,-3.8889,-3.9376,-3.9527,-3.8889,-3.7694,-3.6597,-3.5833,-3.4925,-3.4011,-3.3129,-3.2231,-3.1224,-3.003,-2.9088,-2.8427,-2.8077,-2.749,-2.6777,-2.5925,-2.5346,-2.4671,-2.3824,-2.3806,-2.3806,-2.3806,-2.3806,-2.3795,-2.3792,-2.3754,-2.3667,-4.0071,-4.3243,-4.6085,-4.7478,-4.9206,-5.0488,-5.0209,-5.0339,-5.019,-4.9057,-4.6673,-4.456,-4.3789,-4.4776,-4.6022,-4.6992,-5.1136,-5.4381,-5.4848,-5.5768,-5.57,-5.3853,-5.3685,-5.3388,0.0,0.0,0.0,-5.4694,-5.5223,-5.5702,-5.6054,-5.6054,-5.6082,-5.6133,-5.6153,-5.6156,-5.6156,-5.5106,-5.3991,-5.2869,-5.1787,-5.1305,-5.1349,-5.1064,-5.0487,-4.9657,-4.8802,-4.7946,-4.7088,-4.6523,-4.6308,-4.6308,-4.6307,-4.6305,-4.6299,-4.6295,-4.6306,-4.6214,-4.5604,-4.4946,-4.4277,-4.3716,-4.2711,-4.1694,-4.1664,-4.1269,-4.0815,-4.0751,-4.0694,-4.0674,-4.0639,-4.058,-4.0527,-4.0515,-4.043,-4.0351,-4.0334,-3.9905,-3.9496,-3.9478,-3.9459,-3.9469,-3.947,-3.99,-4.0024,-3.9424,-3.8022,-3.6876,-3.647,-3.562,-3.4819,-3.4206,-3.3082,-3.1994,-3.1047,-3.0117,-2.9425,-2.9062,-2.8446,-2.7707,-2.6863,-2.5994,-2.5139,-2.428,-2.3951,-2.3806,-2.3806,-2.3806,-2.3806,-2.3795,-2.3807,-2.3783,-4.1947,-4.5454,-4.9243,-5.0153,-5.0933,-5.1231,-5.0339,-4.9429,-4.8296,-4.6605,-4.354,-4.095,-4.0253,-4.1344,-4.2777,-4.3973,-4.8555,-5.2376,-5.3562,-5.4739,-5.5209,0.0,-5.4449,0.0,0.0,0.0,0.0,-5.4685,0.0,-5.5118,-5.5965,-5.6003,-5.6003,-5.6012,-5.6054,-5.609,-5.609,-5.443,-5.2808,-5.1259,-5.121,-5.123,-5.1268,-5.05,-4.9655,-4.8757,-4.7982,-4.7131,-4.6293,-4.6284,-4.6306,-4.6307,-4.6308,-4.6307,-4.6306,-4.6299,-4.6294,-4.6291,-4.6294,-4.5141,-4.3655,-4.3616,-4.2484,-4.1146,-4.1124,-4.1088,-4.1024,-4.095,-4.0912,-4.0872,-4.0842,-4.0719,-4.06,-4.0585,-4.055,-4.0502,-4.0424,-4.0396,-4.0379,-4.0316,-4.0307,-4.0308,-4.0358,-4.0329,-4.0301,-4.0301,-3.9547,-3.8633,-3.768,-3.6756,-3.6135,-3.6027,-3.4501,-3.3089,-3.215,-3.1177,-3.0262,-2.9416,-2.9149,-2.8661,-2.7835,-2.6885,-2.5983,-2.5143,-2.429,-2.3842,-2.3806,-2.3806,-2.3806,-2.3795,-2.3789,-2.3804,-4.694,-4.9317,-5.1101,-5.2531,-5.2587,-5.1769,-4.9707,-4.8129,-4.629,-4.3429,-3.8767,-3.5138,-3.4958,-3.4311,-3.4542,-3.6681,-4.2936,0.0,-4.9743,-5.3047,0.0,-5.4392,-5.4383,-5.4092,-5.3269,-5.3405,0.0,0.0,-5.521,-5.5711,-5.5989,-5.5998,-5.5987,-5.6003,-5.602,-5.6029,-5.6029,-5.4355,-5.3046,-5.2084,-5.1435,-5.1159,-5.1215,-5.101,-5.0124,-4.8711,-4.8518,-4.7584,-4.6236,-4.622,-4.6249,-4.6299,-4.6305,-4.6308,-4.6308,-4.6306,-4.6303,-4.6299,-4.6291,-4.5574,-4.4541,-4.3897,-4.338,-4.2994,-4.2958,-4.2926,-4.2889,-4.2836,-4.2334,-4.1985,-4.2571,-4.1743,-4.09,-4.1479,-4.1082,-4.0569,-4.0492,-4.0433,-4.0392,-4.0379,-4.0325,-4.0517,-4.1159,-4.074,-4.0301,-4.0301,-4.0101,-3.9604,-3.8671,-3.7776,-3.6948,-3.6283,-3.5191,-3.4109,-3.3132,-3.1631,-3.0621,-3.036,-2.9683,-2.8894,-2.7983,-2.765,-2.6775,-2.527,-2.4928,-2.4475,-2.3858,-2.3816,-2.3806,-2.3795,-2.3803,-2.3803,-5.0803,-5.2345,-5.3107,-5.3664,-5.2642,-5.058,-4.7033,-4.4674,-4.211,-3.8116,-3.3577,-3.0326,-3.0326,-3.0219,-3.1305,-3.4869,-4.1271,0.0,-4.9679,-5.2997,-5.4991,-5.4696,-5.4762,-5.4676,-5.4252,-5.4246,-5.4481,0.0,-5.518,-5.549,-5.5943,-5.5981,-5.6008,-5.5996,-5.5995,-5.5838,-5.549,-5.416,-5.3116,-5.2348,-5.1476,-5.1102,-5.1132,-5.0365,-4.9498,-4.8574,0.0,-4.6991,-4.6161,-4.6156,-4.6197,-4.6257,-4.6267,-4.6278,-4.6306,-4.6308,-4.6308,-4.6306,-4.63,-4.5979,-4.542,-4.4555,-4.4005,-4.3687,-4.3656,-4.3631,-4.3624,-4.3565,-4.3194,-4.2918,-4.3335,-4.2713,-4.2094,-4.2503,-4.2196,-4.1764,-4.1742,-4.1685,-4.1617,-4.1594,-4.1534,-4.1634,-4.2095,-4.1761,-4.1303,-4.0921,-4.0864,-4.0539,-3.9624,-3.8746,-3.8023,-3.749,-3.6302,-3.5154,-3.4178,-3.2487,-3.1327,-3.0893,-3.0,-2.9239,-2.8729,-2.8248,-2.7518,-2.6504,-2.601,-2.5523,-2.5046,-2.4943,-2.4708,-2.4381,-2.4331,-2.4139,-5.3831,-5.4648,-5.4834,-5.4128,-5.1936,-4.863,-4.3615,-4.0476,-3.7225,-3.2314,-2.8709,-2.6442,-2.6553,-2.7929,-3.0488,-3.4789,-4.0753,-4.6198,-5.0112,-5.2756,-5.4434,-5.4843,-5.5166,-5.5395,-5.5456,-5.5527,-5.5596,-5.5682,-5.5042,-5.5007,-5.5847,-5.5933,-5.5981,-5.599,-5.5996,-5.5655,-5.4967,-5.3981,-5.3146,-5.245,-5.1462,-5.1012,-5.1029,-4.9524,-4.8709,-4.8418,0.0,0.0,-4.6084,-4.6084,-4.6125,-4.6198,-4.6192,-4.6232,-4.629,-4.6282,-4.6287,-4.6308,-4.6307,-4.6301,-4.6178,-4.5426,-4.4662,-4.4055,-4.4046,-4.4042,-4.4038,-4.3977,-4.3875,-4.3805,-4.3852,-4.3689,-4.3527,-4.3578,-4.3444,-4.3321,-4.3315,-4.3254,-4.3224,-4.3281,-4.3159,-4.3043,-4.3096,-4.2992,-4.2668,-4.1894,-4.1684,-4.1331,-4.0568,-3.9718,-3.9108,-3.8937,-3.7507,-3.6203,-3.5256,-3.3587,-3.2255,-3.1521,-3.0432,-2.9814,-2.9795,-2.8838,-2.8238,-2.8057,-2.7239,-2.672,-2.6528,-2.641,-2.5987,-2.5281,-2.5238,-2.4824,-5.6227,-5.5949,-5.4983,-5.4834,-5.1936,-4.7646,-4.2073,-3.839,-3.4729,-2.9768,-2.6135,-2.4065,-2.477,-2.6247,-2.7622,-2.8487,-3.5242,-4.1175,-4.3353,-4.7636,-5.1336,-5.3516,-5.4586,-5.5176,-5.5255,-5.5351,0.0,0.0,-5.5462,-5.5519,-5.5797,-5.5836,-5.5895,-5.599,-5.5999,-5.5929,-5.5799,-5.4271,-5.3428,-5.3282,-5.1687,-5.0914,-5.0921,-5.0676,-4.978,-4.8405,-4.818,0.0,-4.6019,-4.6011,-4.6061,-4.6123,-4.6123,-4.6161,-4.6219,-4.6214,-4.6248,-4.6299,-4.6304,-4.6308,-4.6288,-4.6121,-4.5975,-4.5851,-4.5849,-4.5849,-4.5847,-4.5835,-4.5304,-4.4909,-4.5559,-4.465,-4.3744,-4.4394,-4.3992,-4.3456,-4.3399,-4.3319,-4.3479,-4.4195,-4.3694,-4.337,-4.4029,-4.3498,-4.294,-4.2778,-4.2094,-4.1541,-4.1398,-4.0606,-3.9785,-3.9059,-3.8069,-3.7126,-3.6222,-3.4568,-3.3498,-3.334,-3.1872,-3.096,-3.0843,-2.9934,-2.9082,-2.8342,-2.8015,-2.7479,-2.6753,-2.6671,-2.6505,-2.6252,-2.6242,-2.6136,-5.7063,-5.6617,-5.5466,-5.4593,-5.1305,-4.6438,-3.9449,-3.5306,-3.131,-2.5504,-2.271,-2.1577,-2.242,-2.4602,-2.6702,-2.7984,-3.4088,-3.9706,-4.2683,-4.675,-5.0397,-5.2927,-5.4182,-5.4874,-5.4928,-5.5116,-5.5281,-5.5326,-5.5444,-5.5573,-5.5745,-5.5776,-5.5846,-5.5933,-5.5518,-5.5285,-5.5311,-5.3638,-5.2777,-5.2801,-5.1525,-5.0898,-5.0879,-5.0496,-4.9872,-4.904,-4.8145,0.0,-4.6584,-4.6138,-4.5991,-4.6056,-4.6052,-4.6083,-4.616,-4.6157,-4.6184,-4.6247,-4.6243,-4.6255,-4.6245,-4.6289,-4.6303,-4.6306,-4.6306,-4.6305,-4.63,-4.6294,-4.6002,-4.5763,-4.6155,-4.5623,-4.5092,-4.5442,-4.5209,-4.4892,-4.4813,-4.4783,-4.4874,-4.5248,-4.4962,-4.477,-4.5116,-4.4815,-4.433,-4.3816,-4.2978,-4.2236,-4.1717,-4.0896,-4.0182,-3.9718,-3.8898,-3.8029,-3.7142,-3.5503,-3.4353,-3.3872,-3.2665,-3.1746,-3.1225,-3.0779,-3.0114,-2.9194,-2.9053,-2.8736,-2.8259,-2.8152,-2.7838,-2.7342,-2.7256,-2.6961,-5.71,-5.6915,-5.5893,-5.4221,-5.0599,-4.5305,-3.7108,-3.2704,-2.8486,-2.1892,-2.0036,-1.9794,-2.0426,-2.3219,-2.6024,-2.7798,-3.281,-3.7914,-4.2019,-4.5514,-4.8846,-5.2047,-5.3654,-5.4514,-5.4597,-5.4981,0.0,-5.5107,-5.5249,0.0,-5.5682,-5.5735,-5.571,-5.5596,-5.495,-5.4525,-5.4417,-5.2872,-5.2125,-5.2174,-5.1315,-5.089,-5.0879,-5.0241,-4.9861,-4.9629,-4.8256,0.0,0.0,-4.6448,-4.61,-4.5974,-4.5974,-4.6025,-4.6075,-4.6074,-4.6111,-4.6167,-4.6178,-4.6177,-4.6193,-4.6251,-4.6289,-4.6299,-4.6297,-4.6291,-4.6303,-4.6303,-4.6302,-4.6298,-4.629,-4.6308,-4.6286,-4.6233,-4.6223,-4.6206,-4.6137,-4.6111,-4.6106,-4.6051,-4.6037,-4.6,-4.5943,-4.5918,-4.5648,-4.4863,-4.4042,-4.3142,-4.2148,-4.125,-4.0617,-4.0364,-3.9544,-3.8734,-3.8037,-3.6451,-3.5193,-3.4492,-3.3481,-3.2519,-3.1641,-3.1412,-3.0896,-2.9956,-2.9874,-2.9789,-2.9662,-2.9541,-2.9118,-2.8426,-2.8314,-2.7877,-5.6469,-5.6915,-5.5893,-5.4221,-5.019,-4.4469,-3.629,-3.1868,-2.765,-2.1057,-1.9646,-1.9627,-1.9701,-2.241,-2.4435,-2.3861,-2.8003,-3.2716,-3.6824,-4.0272,-4.4431,-4.9916,-5.2741,-5.4249,-5.4249,-5.5162,-5.5454,-5.481,0.0,0.0,-5.5596,-5.5607,-5.5316,-5.466,-5.4544,-5.4188,-5.3531,-5.2585,-5.2101,-5.2106,-5.1294,-5.0905,-5.0898,-5.0821,-5.0395,-4.9687,-4.9533,0.0,0.0,-4.7025,-4.657,-4.5906,-4.5906,-4.595,-4.6008,-4.6014,-4.6007,-4.6036,-4.6083,-4.6119,-4.6115,-4.6187,-4.6255,-4.6308,-4.6307,-4.6301,-4.6293,-4.6293,-4.6306,-4.63,-4.63,-4.63,-4.6296,-4.6286,-4.6282,-4.6277,-4.6206,-4.6189,-4.6196,-4.6174,-4.6126,-4.6091,-4.6084,-4.6022,-4.5956,-4.5863,-4.5053,-4.4131,-4.3182,-4.229,-4.1427,-4.0577,-3.9657,-3.9026,-3.8897,-3.734,-3.6347,-3.6262,-3.4762,-3.3482,-3.2615,-3.1802,-3.0978,-3.0106,-3.0011,-2.9948,-2.9872,-2.9798,-2.9653,-2.9467,-2.9438,-2.9342,-5.3441,-5.4667,-5.4407,-5.2754,-4.9392,-4.4209,-3.551,-3.1344,-2.749,-2.0938,-1.9576,-1.955,-1.9583,-2.1855,-2.3452,-2.2609,-2.621,-3.0716,-3.5343,-3.8826,-4.3044,-4.8792,-5.1726,-5.3289,0.0,0.0,-5.4775,-5.4587,0.0,0.0,-5.5105,-5.4886,-5.4614,-5.4334,-5.3379,-5.2729,-5.2434,-5.1597,-5.1211,-5.1257,-5.1009,-5.0908,-5.0905,-5.0909,-5.0724,-5.0395,-4.9919,0.0,0.0,-4.7521,-4.6917,-4.6563,-4.604,-4.588,-4.5938,-4.5938,-4.5949,-4.595,-4.6016,-4.6042,-4.6051,-4.6111,-4.6164,-4.6191,-4.6284,-4.6308,-4.6307,-4.6305,-4.63,-4.6294,-4.6309,-4.6305,-4.63,-4.6296,-4.6294,-4.6294,-4.6269,-4.626,-4.625,-4.625,-4.6215,-4.6154,-4.6157,-4.6138,-4.6119,-4.606,-4.5303,-4.438,-4.3438,-4.2582,-4.1716,-4.0725,-4.0181,-3.9659,-3.9103,-3.8444,-3.7632,-3.6576,-3.587,-3.4904,-3.3547,-3.2653,-3.1767,-3.0901,-3.0383,-3.0098,-3.0007,-2.9999,-2.9907,-2.9787,-2.9736,-2.9645,-5.0155,-5.2085,-5.2327,-5.0711,-4.7443,-4.2559,-3.4463,-3.0327,-2.6552,-2.076,-1.9522,-1.9504,-1.955,-2.0968,-2.2081,-2.2015,-2.5225,-2.9229,-3.3466,-3.7294,-4.1423,-4.6178,0.0,-5.1674,-5.1916,-5.3271,-5.4216,-5.4352,0.0,0.0,-5.4607,-5.3931,-5.3595,-5.3715,-5.2368,-5.1545,-5.1333,-5.0762,-5.0536,-5.0635,-5.0739,-5.0793,-5.0838,-5.0877,-5.0901,-5.0863,0.0,0.0,0.0,-4.8101,-4.7328,-4.6999,-4.6136,-4.5821,-4.586,-4.586,-4.588,-4.5886,-4.5956,-4.5968,-4.598,-4.6042,-4.6075,-4.6095,-4.6172,-4.623,-4.6265,-4.6268,-4.6289,-4.6306,-4.6301,-4.6294,-4.6308,-4.6305,-4.6302,-4.63,-4.63,-4.6294,-4.631,-4.631,-4.6264,-4.6233,-4.622,-4.6237,-4.6209,-4.6141,-4.5611,-4.4876,-4.3968,-4.3123,-4.2247,-4.1247,-4.0791,-4.0257,-3.9569,-3.9276,-3.8495,-3.6984,-3.6659,-3.578,-3.4071,-3.3414,-3.2546,-3.1419,-3.0854,-3.0419,-3.0123,-3.0106,-3.0061,-2.9953,-2.9891,-2.979,-4.7061,-4.9487,-4.9763,-4.8147,-4.4029,-3.886,-3.3042,-2.8561,-2.4459,-2.034,-1.9509,-1.9497,-1.9504,-1.9511,-2.0074,-2.1736,-2.4761,-2.778,-3.0307,-3.486,-3.8859,-4.1367,-4.5974,-4.9243,-5.006,-5.2474,-5.4037,0.0,0.0,0.0,-5.4214,-5.2825,-5.2201,-5.2601,-5.1757,-5.0945,-5.0219,-5.0219,-5.0294,-5.0511,-5.0495,-5.0557,-5.0701,-5.0838,-5.0899,0.0,0.0,0.0,0.0,-4.8759,-4.7869,-4.6999,-4.6136,-4.5807,-4.5807,-4.5807,-4.5807,-4.5814,-4.5886,-4.59,-4.5912,-4.598,-4.5997,-4.6008,-4.6008,-4.6109,-4.6204,-4.6204,-4.6258,-4.6308,-4.6308,-4.6305,-4.6301,-4.6294,-4.6306,-4.63,-4.63,-4.63,-4.63,-4.63,-4.63,-4.6296,-4.6306,-4.6303,-4.6279,-4.6209,-4.6187,-4.5869,-4.4997,-4.4124,-4.3237,-4.2278,-4.1407,-4.0776,-4.05,-3.9688,-3.878,-3.7838,-3.7042,-3.582,-3.4071,-3.3995,-3.3165,-3.1419,-3.1465,-3.1064,-3.0204,-3.0123,-3.0101,-3.0101,-3.0026,-2.9934,-3.811,-4.0461,-4.1172,-3.9564,-3.7563,-3.4493,-2.8775,-2.6039,-2.3721,-2.0221,-1.9461,-1.9453,-1.9497,-1.9489,-2.0407,-2.3196,-2.5012,-2.752,-3.1663,-3.5027,-3.7986,-4.0476,-4.5584,-4.9875,0.0,0.0,-5.387,0.0,0.0,0.0,-5.4055,-5.2591,-5.1872,-5.2167,-5.0861,-5.0065,-4.9925,-4.9922,-5.0025,-5.0231,-5.0279,-5.0391,-5.0565,-5.0615,0.0,0.0,0.0,0.0,0.0,-4.8025,-4.7307,-4.7001,-4.6131,-4.5805,-4.5807,-4.5807,-4.5807,-4.5807,-4.5821,-4.5821,-4.5827,-4.5919,-4.5932,-4.5938,-4.5922,-4.6032,-4.6148,-4.6189,-4.6218,-4.6235,-4.6223,-4.6268,-4.6308,-4.6307,-4.6303,-4.6295,-4.6291,-4.6305,-4.63,-4.63,-4.63,-4.63,-4.6296,-4.6296,-4.6294,-4.6273,-4.6271,-4.5956,-4.5087,-4.4731,-4.3975,-4.2435,-4.2026,-4.1537,-4.0713,-4.0344,-3.9774,-3.8873,-3.7986,-3.6988,-3.5894,-3.4665,-3.3746,-3.3192,-3.2072,-3.135,-3.1026,-3.0438,-3.013,-3.0101,-2.9969,-2.9916,-3.173,-3.4151,-3.4922,-3.3592,-3.2194,-3.006,-2.5911,-2.3841,-2.2134,-1.9863,-1.9856,-2.0102,-1.9523,-2.0203,-2.1433,-2.3206,-2.5792,-2.8282,-3.04,-3.4172,-3.7963,-4.1349,-4.5454,0.0,0.0,-5.3813,0.0,0.0,0.0,0.0,-5.3479,-5.2231,-5.1442,-5.1291,-5.0091,-4.9503,-4.9615,-4.9602,-4.9717,-4.9952,-4.9981,-5.0125,-5.0314,-5.0358,0.0,0.0,0.0,0.0,0.0,-4.7499,-4.6992,-4.6939,-4.6086,-4.5788,-4.5805,-4.5805,-4.5793,-4.5807,-4.5807,-4.5807,-4.5807,-4.5854,-4.586,-4.5867,-4.588,-4.5983,-4.6071,-4.6107,-4.6144,-4.6167,-4.6165,-4.6207,-4.6259,-4.6265,-4.6289,-4.6307,-4.6303,-4.6299,-4.6294,-4.6291,-4.629,-4.629,-4.629,-4.6308,-4.6305,-4.6305,-4.6303,-4.6103,-4.5551,-4.5199,-4.4567,-4.3436,-4.2724,-4.2059,-4.1369,-4.0937,-4.0313,-3.9393,-3.8786,-3.8089,-3.7219,-3.5823,-3.4877,-3.4541,-3.3178,-3.2154,-3.147,-3.0614,-3.0178,-3.0101,-3.0007,-2.998,0.0,-2.9818,-3.038,-2.9564,-2.7652,-2.5564,-2.4072,-2.1899,0.0,-1.9332,-2.0512,-2.1185,-1.9586,-2.1367,-2.2864,-2.2255,-2.6887,-2.9747,-2.7399,-3.2618,-3.8525,0.0,-4.5565,0.0,-5.3255,-5.3664,0.0,0.0,0.0,0.0,-5.2549,-5.1751,-5.0915,-5.0042,-4.9415,-4.9155,-4.9292,-4.9292,-4.9418,-4.9678,-4.9679,-4.9773,-4.9959,-5.0037,0.0,0.0,0.0,0.0,0.0,-4.7085,-4.6773,-4.6714,-4.5965,-4.5715,-4.5792,-4.5792,-4.5795,-4.5793,-4.5793,-4.5793,-4.58,-4.58,-4.5807,-4.5814,-4.5867,-4.5938,-4.5983,-4.5998,-4.6032,-4.6098,-4.608,-4.615,-4.6184,-4.6195,-4.6237,-4.6287,-4.6289,-4.6289,-4.6288,-4.6304,-4.6303,-4.6284,-4.6303,-4.63,-4.6295,-4.6295,-4.6308,-4.6302,-4.6302,-4.5597,-4.5067,-4.5,-4.3498,-4.2434,-4.2329,-4.1447,-4.051,-3.9569,-3.946,-3.9012,-3.8144,-3.7263,-3.6401,-3.5525,-3.4531,-3.3216,-3.1609,-3.0662,-3.0187,-3.0116,-3.0109,-3.0113,-2.0587,0.0,-2.3239,-2.2488,-2.1898,-2.127,0.0,-1.9651,-1.9199,-1.9071,-2.0291,-2.0925,-1.9423,-2.116,-2.2977,-2.352,-2.7417,-2.9961,-2.8753,-3.3216,-3.8711,-4.4339,-4.642,-4.8853,-5.2531,-5.2327,0.0,0.0,0.0,-5.1881,-5.1695,-5.0878,-5.0042,-4.9206,-4.8441,-4.8397,-4.9133,-4.915,-4.923,-4.9384,-4.9399,-4.9472,-4.9598,-4.9055,0.0,0.0,0.0,0.0,-4.6702,-4.592,-4.5658,-4.5726,-4.5552,-4.5549,-4.5637,-4.5637,-4.5646,-4.5643,-4.5657,-4.5688,-4.5727,-4.5786,-4.5807,-4.5807,-4.5814,-4.5867,-4.5912,-4.591,-4.5964,-4.6011,-4.6021,-4.6065,-4.6119,-4.6121,-4.6162,-4.6214,-4.6212,-4.6219,-4.6245,-4.6289,-4.6268,-4.6249,-4.6289,-4.6308,-4.6308,-4.6308,-4.6303,-4.6296,-4.6291,-4.6129,-4.5734,-4.5067,-4.4032,-4.3111,-4.2436,-4.1509,-4.0875,-4.063,-3.996,-3.9452,-3.9223,-3.7705,-3.6777,-3.6553,-3.4333,-3.266,-3.161,-3.0708,-3.028,-3.0253,-3.02,-3.018,-1.7706,-1.872,-1.9663,-1.9306,-1.923,-1.9172,-1.8831,-1.8761,-1.878,-1.8861,-2.0144,-2.0901,-1.9723,-2.154,-2.3367,-2.3875,-2.7119,-3.0332,-3.2553,-3.5279,-3.8902,-4.3941,-4.5692,-4.765,0.0,0.0,0.0,0.0,0.0,-5.1063,-5.0302,-4.9819,-4.902,-4.785,-4.7386,-4.757,-4.8438,-4.8457,-4.8505,-4.8616,-4.8616,-4.8455,-4.8202,-4.7864,-4.7537,0.0,0.0,0.0,-4.5587,-4.5216,-4.5129,-4.5218,-4.525,-4.5311,-4.5362,-4.5362,-4.541,-4.5457,-4.5465,-4.5556,-4.566,-4.5727,-4.5764,-4.5805,-4.58,-4.584,-4.586,-4.5861,-4.5906,-4.595,-4.595,-4.5994,-4.6047,-4.6042,-4.6072,-4.6121,-4.6156,-4.6153,-4.6169,-4.6248,-4.6228,-4.6206,-4.6249,-4.6254,-4.6257,-4.6244,-4.6249,-4.6269,-4.6305,-4.6301,-4.6118,-4.5643,-4.4452,-4.3512,-4.3035,-4.1807,-4.1042,-4.1052,-4.0578,-4.026,-4.0241,-3.8926,-3.7788,-3.6948,-3.4731,-3.3164,-3.2289,-3.1374,-3.0743,-3.0361,-3.0299,-3.0286,-1.6991,-1.7633,-1.8332,-1.8522,-1.855,-1.8598,-1.8718,-1.8641,-1.8573,-1.8641,-1.998,-2.0896,-2.0109,-2.2108,-2.3966,-2.419,-2.7272,-3.1638,-3.732,-3.8282,-3.9806,-4.3622,-4.4936,0.0,0.0,0.0,0.0,0.0,0.0,-5.0154,-4.863,-4.8537,-4.785,-4.6364,-4.6308,-4.6643,-4.733,-4.746,-4.7549,-4.7597,-4.7597,-4.7274,-4.6679,-4.6663,-4.6278,0.0,0.0,0.0,-4.4653,-4.477,-4.487,-4.4943,-4.4991,-4.503,-4.5049,-4.5049,-4.5115,-4.5201,-4.5222,-4.5362,-4.5549,-4.5635,-4.57,-4.5758,-4.5764,-4.5786,-4.5786,-4.5793,-4.584,-4.5874,-4.5874,-4.5938,-4.598,-4.598,-4.5986,-4.5998,-4.6063,-4.6084,-4.6111,-4.6164,-4.617,-4.6167,-4.617,-4.6162,-4.6175,-4.6189,-4.6188,-4.6202,-4.6288,-4.6289,-4.6287,-4.6299,-4.4734,-4.3697,-4.3708,-4.2108,-4.1103,-4.1093,-4.1106,-4.1011,-4.0822,-3.9971,-3.8731,-3.7048,-3.532,-3.4003,-3.3118,-3.2178,-3.1286,-3.0425,-3.0431,-3.0414,-1.6991,-1.759,-1.8381,-1.9068,-1.9252,-1.9274,-1.9331,-1.8829,-1.8368,-1.8435,-1.9724,-2.0628,-1.9885,-2.2246,-2.4729,-2.5963,-3.0592,-3.5844,0.0,0.0,-4.3049,-4.5896,0.0,0.0,0.0,0.0,0.0,0.0,0.0,-4.78,-4.6921,-4.6865,-4.6438,-4.5509,-4.5472,-4.5528,-4.5658,-4.6345,-4.6696,-4.6696,-4.6696,-4.6638,-4.6506,-4.5898,-4.5553,0.0,0.0,-4.4499,-4.4454,-4.4468,-4.4551,-4.4659,-4.4672,-4.4706,-4.477,-4.477,-4.4764,-4.4802,-4.4915,-4.5085,-4.5273,-4.5419,-4.5485,-4.5558,-4.5605,-4.568,-4.5731,-4.5788,-4.5805,-4.5814,-4.5814,-4.5867,-4.5912,-4.5912,-4.5925,-4.5922,-4.5994,-4.6025,-4.6026,-4.6041,-4.6032,-4.6022,-4.6026,-4.6031,-4.6048,-4.6107,-4.6125,-4.6138,-4.6207,-4.6221,-4.6248,-4.6289,-4.4744,-4.3706,-4.3701,-4.2101,-4.1104,-4.1101,-4.1103,-4.0767,-4.002,-3.916,-3.8182,-3.7117,-3.5437,-3.4101,-3.3186,-3.2296,-3.1422,-3.0577,-3.0506,-3.0477,-1.6295,-1.7277,-1.8383,-1.9147,-1.9054,-1.8858,-1.9288,-1.9115,-1.897,-1.9441,-2.0117,-2.0674,-2.0818,-2.3028,-2.6002,-2.964,-3.353,-3.7488,-4.154,-4.2675,-4.3683,0.0,0.0,0.0,0.0,0.0,0.0,0.0,0.0,0.0,-4.5626,-4.5589,-4.5255,-4.451,-4.4522,-4.4536,-4.4536,-4.4955,-4.5379,-4.5844,-4.5844,-4.5602,-4.5138,-4.4795,-4.4643,-4.4625,0.0,-4.4192,-4.4285,-4.4285,-4.4358,-4.4444,-4.4444,-4.4473,-4.4482,-4.4524,-4.4537,-4.4565,-4.47,-4.4845,-4.5,-4.5105,-4.5222,-4.5352,-4.5428,-4.5502,-4.5601,-4.5627,-4.5731,-4.5807,-4.5807,-4.5821,-4.5847,-4.5847,-4.5841,-4.5867,-4.5938,-4.5944,-4.5956,-4.5944,-4.5944,-4.5958,-4.595,-4.5956,-4.5966,-4.6047,-4.6074,-4.6103,-4.6147,-4.6177,-4.6202,-4.624,-4.4681,-4.3669,-4.3691,-4.2109,-4.1093,-4.1108,-4.1097,-4.0927,-4.0524,-3.921,-3.8298,-3.7862,-3.617,-3.4866,-3.3946,-3.3075,-3.2217,-3.1332,-3.0847,-3.0617,-1.5538,-1.6752,-1.8062,-1.862,-1.8752,-1.8907,-1.9665,-1.9838,-2.0056,-2.0846,-2.1013,-2.1267,-2.2109,-2.4868,-2.8494,-3.3047,-3.6442,-3.9413,-4.2026,-4.3279,-4.417,-4.4831,0.0,0.0,0.0,0.0,0.0,0.0,0.0,0.0,-4.4468,-4.4431,-4.419,-4.3704,-4.3734,-4.3765,-4.38,-4.3878,-4.4273,-4.4989,-4.4989,-4.4655,-4.4005,-4.4005,-4.4005,-4.4005,-4.4005,-4.407,-4.415,-4.415,-4.418,-4.424,-4.424,-4.424,-4.424,-4.4296,-4.4325,-4.4373,-4.4468,-4.4592,-4.4719,-4.4777,-4.4934,-4.5071,-4.5178,-4.5282,-4.5362,-4.5419,-4.5554,-4.57,-4.5737,-4.5752,-4.5778,-4.5778,-4.5786,-4.5819,-4.5866,-4.588,-4.5874,-4.588,-4.5886,-4.5886,-4.5886,-4.5886,-4.5899,-4.5968,-4.6014,-4.6061,-4.6074,-4.6135,-4.618,-4.618,-4.4625,-4.3468,-4.3096,-4.1847,-4.1071,-4.1094,-4.0913,-4.0827,-4.0823,-3.9156,-3.8211,-3.8221,-3.672,-3.5498,-3.4618,-3.3737,-3.286,-3.2003,-3.1109,-3.0699,-1.5055,-1.5952,-1.7104,-1.7146,-1.8724,-2.0446,-2.1251,-2.1423,-2.1647,-2.2401,-2.2539,-2.2781,-2.3522,-2.842,-3.2978,-3.4926,-3.9562,-4.3287,-4.4349,0.0,-4.5867,0.0,0.0,0.0,0.0,0.0,0.0,0.0,0.0,0.0,-4.3342,-4.3324,-4.3323,-4.3339,-4.3338,-4.3409,-4.3532,-4.3597,-4.38,-4.4098,-4.4098,-4.4061,-4.4005,-4.4005,-4.4005,-4.4005,-4.4005,-4.4005,-4.402,-4.402,-4.402,-4.402,-4.402,-4.402,-4.402,-4.4036,-4.4101,-4.4214,-4.4229,-4.4314,-4.444,-4.451,-4.4578,-4.4667,-4.487,-4.4941,-4.4985,-4.518,-4.5273,-4.5371,-4.5571,-4.5665,-4.5715,-4.5715,-4.5746,-4.5795,-4.5815,-4.5805,-4.5807,-4.5814,-4.5814,-4.5814,-4.5814,-4.5814,-4.5827,-4.59,-4.5912,-4.5938,-4.6003,-4.6075,-4.6108,-4.6115,-4.4608,-4.2955,-4.1332,-4.1081,-4.1029,-4.1099,-4.0409,-3.9998,-3.9997,-3.8314,-3.7392,-3.7387,-3.6462,-3.5557,-3.4692,-3.3763,-3.2886,-3.2068,-3.1123,-3.0697,-1.4822,-1.5475,-1.647,-1.7391,-1.8967,-2.0744,-2.2502,-2.3618,-2.4888,-2.7101,-2.6792,-2.6224,-2.6594,-3.0075,-3.3889,-3.6899,-4.0706,-4.3721,-4.4949,-4.5493,0.0,0.0,0.0,0.0,0.0,0.0,0.0,0.0,0.0,0.0,0.0,-4.2537,-4.2616,-4.2732,-4.2846,-4.2995,-4.3142,-4.3196,-4.3337,-4.3562,-4.3814,-4.3958,-4.4005,-4.4005,-4.4005,-4.4005,-4.4005,-4.4005,-4.4005,-4.4005,-4.4005,-4.4005,-4.4005,-4.4005,-4.4005,-4.4005,-4.402,-4.407,-4.407,-4.4165,-4.427,-4.4318,-4.4387,-4.4496,-4.4578,-4.4653,-4.4739,-4.4814,-4.4875,-4.5,-4.5371,-4.5484,-4.553,-4.5575,-4.5637,-4.5679,-4.5684,-4.5704,-4.5742,-4.5783,-4.581,-4.5798,-4.58,-4.5807,-4.5807,-4.5821,-4.5867,-4.5906,-4.5932,-4.5955,-4.6,-4.6037,-4.4537,-4.2859,-4.1133,-4.0997,-4.08,-4.032,-4.0018,-3.984,-3.9842,-3.8203,-3.7304,-3.7303,-3.6441,-3.5831,-3.5515,-3.4059,-3.3209,-3.2872,-3.1428,-3.0754,-1.4427,-1.5043,-1.605,-1.7258,-1.901,-2.1291,-2.4454,-2.5889,-2.7469,-3.0765,-3.0684,-2.9883,-2.9541,0.0,0.0,0.0,-4.0584,-4.2723,-4.4458,0.0,0.0,0.0,0.0,0.0,0.0,0.0,0.0,0.0,0.0,0.0,0.0,-4.1966,0.0,0.0,-4.2085,-4.2207,-4.2575,-4.246,-4.2611,-4.3014,-4.3409,-4.3699,-4.3876,-4.3876,-4.3894,-4.3945,-4.3945,-4.3945,-4.3945,-4.3958,-4.3974,-4.4005,-4.4005,-4.4005,-4.4005,-4.4005,-4.4005,-4.4005,-4.4005,-4.407,-4.4135,-4.4135,-4.4192,-4.4281,-4.431,-4.4401,-4.4468,-4.4524,-4.4568,-4.4688,-4.5026,-4.5169,-4.5253,-4.5351,-4.541,-4.5466,-4.5464,-4.5554,-4.5651,-4.5703,-4.5708,-4.5739,-4.5749,-4.5745,-4.5771,-4.5805,-4.5845,-4.5769,-4.5531,-4.5738,-4.5711,-4.5223,-4.4146,-4.2777,-4.109,-4.0968,-4.0622,-3.9795,-3.9494,-3.9236,-3.8986,-3.7607,-3.6869,-3.6852,-3.6288,-3.5859,-3.5586,-3.4118,-3.3254,-3.2958,-3.1483,-3.0795,-1.3808,-1.4648,-1.5877,-1.6496,-1.8845,-2.2333,-2.7306,-2.8181,-2.8994,-3.2757,-3.3745,-3.3505,-3.2092,-3.368,0.0,-3.8215,-3.9232,-4.0526,0.0,0.0,0.0,0.0,0.0,0.0,0.0,0.0,0.0,0.0,0.0,0.0,0.0,0.0,0.0,0.0,-4.0951,-4.0997,-4.1846,-4.135,-4.1529,-4.2398,-4.2731,-4.3142,-4.3579,-4.3614,-4.3666,-4.3788,-4.3788,-4.3788,-4.3804,-4.3867,-4.3945,-4.4005,-4.4005,-4.4005,-4.4005,-4.4005,-4.4005,-4.4005,-4.4005,-4.4005,-4.4005,-4.4005,-4.4005,-4.402,-4.4169,-4.4199,-4.4229,-4.4373,-4.4397,-4.4411,-4.4487,-4.4694,-4.4927,-4.5072,-4.5154,-4.5201,-4.5201,-4.5371,-4.5495,-4.5495,-4.5556,-4.5596,-4.5596,-4.5657,-4.5715,-4.5781,-4.5788,-4.5505,-4.469,-4.535,-4.5234,-4.3559,-4.3385,-4.2687,-4.0942,-4.0867,-4.0524,-3.964,-3.8846,-3.8045,-3.7237,-3.636,-3.5901,-3.5901,-3.5978,-3.5575,-3.4695,-3.3827,-3.2949,-3.207,-3.1209,-3.0797,-1.3675,-1.5592,-1.8083,-1.9197,-2.1275,-2.4596,-3.0627,-3.1248,-3.1537,0.0,-3.5819,-3.5428,-3.3505,-3.5,0.0,-3.8117,-3.9941,-4.1629,0.0,0.0,0.0,0.0,0.0,0.0,0.0,0.0,0.0,0.0,0.0,0.0,0.0,0.0,0.0,0.0,-3.953,-3.962,-3.994,-4.032,-4.0747,-4.1147,-4.1763,-4.246,-4.3178,-4.3286,-4.3339,-4.3375,-4.3375,-4.3392,-4.3461,-4.3614,-4.3697,-4.373,-4.3816,-4.3867,-4.3867,-4.3867,-4.3899,-4.3929,-4.3929,-4.3958,-4.4005,-4.4005,-4.4005,-4.4005,-4.4055,-4.407,-4.407,-4.4097,-4.4113,-4.4143,-4.4255,-4.434,-4.4477,-4.4745,-4.4883,-4.4948,-4.503,-4.5132,-4.5218,-4.5282,-4.5303,-4.5352,-4.5438,-4.5512,-4.5355,-4.4757,-4.4749,-4.4515,-4.3731,-4.3842,-4.3585,-4.2452,-4.2395,-4.1964,-4.0823,-4.0757,-4.0148,-3.8703,-3.8378,-3.7946,-3.7221,-3.6356,-3.5897,-3.5907,-3.5923,-3.5525,-3.4693,-3.3826,-3.2954,-3.2081,-3.1207,-3.0798,-1.4712,-1.658,-1.9013,-2.0619,-2.2603,-2.5719,-3.1573,-3.3764,-3.5006,-3.6411,-3.7405,-3.7452,-3.5582,-3.6418,0.0,-3.8853,-3.9744,0.0,0.0,0.0,0.0,0.0,0.0,0.0,0.0,0.0,0.0,0.0,0.0,0.0,0.0,0.0,0.0,0.0,-3.8517,-3.8547,-3.8912,-3.9147,-3.9617,-4.0342,-4.0884,-4.158,-4.238,-4.2616,-4.2788,-4.2882,-4.2938,-4.2995,-4.3087,-4.3249,-4.3338,-4.3355,-4.3515,-4.3566,-4.36,-4.36,-4.3684,-4.3781,-4.3781,-4.383,-4.3913,-4.3913,-4.3913,-4.3913,-4.3913,-4.3913,-4.3855,-4.3571,-4.3717,-4.3844,-4.3304,-4.3394,-4.3785,-4.4407,-4.4605,-4.4653,-4.4745,-4.4833,-4.4919,-4.4988,-4.4771,-4.4609,-4.4704,-4.4517,-4.4183,-4.3685,-4.3438,-4.3291,-4.3142,-4.283,-4.2441,-4.192,-4.1897,-4.1564,-4.0696,-4.0326,-3.9586,-3.8239,-3.7864,-3.735,-3.6604,-3.611,-3.5862,-3.5859,-3.5546,-3.4976,-3.4145,-3.3304,-3.2436,-3.1565,-3.1049,-3.08,-1.6318,-1.7581,-1.9226,-2.1252,-2.3711,-2.6808,-3.1267,-3.5754,-3.8607,-3.7421,-3.8484,-3.9259,-3.7994,-3.7848,-3.8432,-3.9943,0.0,0.0,0.0,0.0,0.0,0.0,0.0,0.0,0.0,0.0,0.0,0.0,0.0,0.0,0.0,0.0,0.0,-3.8387,-3.7754,-3.7719,-3.837,-3.791,-3.8356,0.0,-4.0,-4.0512,-4.1171,-4.1703,-4.2113,-4.2318,-4.2454,-4.2518,-4.2508,-4.2659,-4.2719,-4.2722,-4.2869,-4.2959,-4.303,-4.303,-4.3153,-4.3324,-4.3324,-4.3411,-4.3533,-4.3533,-4.3531,-4.355,-4.355,-4.355,-4.3418,-4.2757,-4.3103,-4.3341,-4.1935,-4.2114,-4.2887,-4.3815,-4.4105,-4.4158,-4.4158,-4.4257,-4.4366,-4.4427,-4.3901,-4.3474,-4.3532,-4.2992,-4.2546,-4.2555,-4.199,-4.1839,-4.2616,-4.2093,-4.1638,-4.1638,-4.1638,-4.1311,-4.0523,-3.9734,-3.8924,-3.8124,-3.7315,-3.6483,-3.5629,-3.5718,-3.5756,-3.5679,-3.4966,-3.4124,-3.3171,-3.2444,-3.1637,-3.0796,-3.078,-3.079,-1.6038,-1.8355,-2.1115,-2.318,-2.8657,-3.3725,-3.4376,-3.6594,-3.8518,-3.8439,-3.8809,-3.9086,-3.8887,-3.8873,-3.9025,-3.9368,0.0,0.0,0.0,0.0,0.0,0.0,0.0,0.0,0.0,0.0,0.0,0.0,0.0,0.0,0.0,0.0,0.0,-3.6801,-3.6628,-3.6628,-3.6784,-3.7292,-3.7689,0.0,-3.8671,-3.9057,-3.9247,-4.0937,-4.1719,-4.1784,-4.1856,-4.1587,-4.1061,-4.1266,-4.103,-4.0574,-4.0704,-4.0798,-4.089,-4.0981,-4.1088,-4.1176,-4.1282,-4.1386,-4.1452,-4.1452,-4.1522,-4.159,-4.159,-4.164,-4.1668,-4.1546,-4.1652,-4.1723,-4.1505,-4.1558,-4.1758,-4.1971,-4.2155,-4.2296,-4.2352,-4.2375,-4.2416,-4.2498,-4.2369,-4.2277,-4.2341,-4.2285,-4.2023,-4.1513,-4.0819,-4.0423,-4.0625,-4.0492,-4.0387,-4.0387,-4.0387,-4.0339,-4.0196,-3.945,-3.8672,-3.7923,-3.7107,-3.6294,-3.5477,-3.5626,-3.5408,-3.4715,-3.4582,-3.3774,-3.2275,-3.2108,-3.1572,-3.073,-3.0727,-3.0713,-1.6589,-1.905,-2.2067,-2.594,-3.1484,-3.5771,-3.4868,-3.661,-3.8448,-3.8572,-3.8711,-3.8821,-3.8914,-3.8952,-3.9034,0.0,0.0,0.0,0.0,0.0,0.0,0.0,0.0,0.0,0.0,0.0,0.0,0.0,0.0,0.0,0.0,-3.6943,-3.6732,-3.6318,-3.5956,-3.5939,-3.6301,-3.637,-3.677,-3.7512,-3.7892,-3.8272,-3.8634,-3.976,-4.0258,-4.0258,-4.0372,-4.0192,-3.9845,-3.9978,-3.9835,-3.9527,-3.9662,-3.98,-3.9918,-3.9994,-4.0145,-4.0329,-4.0384,-4.0456,-4.0508,-4.0508,-4.0562,-4.0615,-4.0615,-4.0685,-4.0698,-4.0381,-4.0612,-4.0808,-4.0136,-4.0244,-4.0444,-4.0107,-4.0806,-4.156,-4.1586,-4.163,-4.1673,-4.174,-4.1465,-4.1244,-4.1312,-4.104,-4.0697,-4.0344,-4.0046,-3.9851,-3.9865,-3.9908,-3.9939,-3.9939,-3.9939,-3.9798,-3.9458,-3.8679,-3.7909,-3.7123,-3.6334,-3.5714,-3.5323,-3.5033,-3.471,-3.4355,-3.3989,-3.316,-3.1894,-3.1511,-3.1088,-3.0607,-3.0638,-3.0622,-1.7043,-1.971,-2.3069,-2.8619,-3.2803,-3.5353,-3.4565,-3.6222,-3.7963,-3.7963,-3.8286,-3.8576,-3.8576,-3.8655,-3.875,0.0,0.0,0.0,0.0,0.0,0.0,0.0,0.0,0.0,0.0,0.0,0.0,0.0,0.0,0.0,-3.5935,-3.5901,-3.5901,-3.5921,-3.5318,-3.5301,-3.5904,-3.5318,-3.5666,-3.6908,-3.7047,-3.7426,-3.8008,-3.8273,-3.8525,-3.8767,-3.8877,-3.8873,-3.8751,-3.8806,-3.8761,-3.866,-3.8762,-3.8928,-3.9111,-3.9113,-3.9292,-3.9524,-3.9561,-3.9601,-3.9658,-3.9658,-3.9677,-3.9695,-3.9695,-3.9805,-3.9788,-3.9191,-3.9586,-3.989,-3.8613,-3.8775,-3.9135,-3.8528,-3.9617,-4.0817,-4.0914,-4.0991,-4.1048,-4.1123,-4.0639,-4.0263,-4.0313,-3.9797,-3.9382,-3.9382,-3.9526,-3.9654,-3.9654,-3.9754,-3.9755,-3.9603,-3.9596,-3.9285,-3.8493,-3.7694,-3.6947,-3.6293,-3.5483,-3.5079,-3.516,-3.4522,-3.4127,-3.4011,-3.3186,-3.2359,-3.154,-3.0883,-3.0535,-3.0467,-3.052,-3.0515,-1.6076,-2.0461,-2.5404,-3.0012,-3.2513,-3.4149,-3.5316,-3.5872,-3.6144,0.0,-3.7362,-3.8436,-3.8436,-3.8448,-3.8448,0.0,0.0,0.0,0.0,0.0,0.0,0.0,0.0,0.0,0.0,0.0,0.0,0.0,0.0,0.0,-3.4263,-3.4212,-3.4269,-3.4387,-3.4303,-3.4283,-3.4407,-3.4303,-3.4355,-3.4562,-3.5218,-3.5559,-3.5663,-3.6339,-3.7357,-3.8617,-3.8639,-3.8299,-3.7694,-3.7716,-3.7382,-3.6859,-3.6859,-3.696,-3.7082,-3.7146,-3.7206,-3.7266,-3.7384,-3.7406,-3.7425,-3.7425,-3.7559,-3.7693,-3.7693,-3.7824,-3.7971,-3.7936,-3.8008,-3.8079,-3.7916,-3.7969,-3.8023,-3.7915,-3.8093,-3.8427,-3.8939,-3.9108,-3.915,-3.9165,-3.9194,-3.9188,-3.9202,-3.9217,-3.9224,-3.9224,-3.9354,-3.9438,-3.9438,-3.9451,-3.9183,-3.8415,-3.839,-3.8131,-3.7382,-3.658,-3.6088,-3.6048,-3.5285,-3.4879,-3.4945,-3.4878,-3.4215,-3.2852,-3.2148,-3.137,-3.0494,-3.0441,-3.0383,-3.034,-3.0336,-3.0342,-1.5913,-2.1147,-2.6099,-2.8919,-3.0974,-3.264,-3.379,-3.4664,-3.5241,-3.5241,-3.6151,-3.6941,-3.6941,-3.6996,0.0,0.0,0.0,0.0,0.0,0.0,0.0,0.0,0.0,0.0,0.0,0.0,0.0,0.0,0.0,-3.3959,-3.3738,-3.3721,-3.3778,-3.3934,-3.3093,-3.3098,-3.398,-3.3173,-3.3193,-3.4113,-3.4441,-3.4783,-3.5197,-3.5525,-3.6284,-3.7301,-3.7301,-3.7129,-3.6818,-3.6818,-3.6654,-3.6402,-3.6402,-3.6482,-3.6602,-3.6626,-3.6687,-3.6745,-3.6806,-3.6826,-3.6826,-3.6826,-3.6886,-3.6965,-3.6965,-3.7046,-3.7184,-3.7279,-3.7337,-3.7393,-3.7485,-3.7504,-3.7522,-3.7577,-3.7577,-3.7667,-3.8002,-3.8252,-3.8462,-3.8588,-3.8773,-3.8896,-3.8896,-3.8964,-3.9036,-3.9036,-3.9106,-3.9012,-3.8561,-3.8532,-3.8242,-3.7398,-3.7387,-3.7088,-3.6327,-3.5998,-3.5653,-3.5179,-3.4856,-3.471,-3.473,-3.4328,-3.3554,-3.24,-3.2233,-3.1536,-3.0241,-3.0273,-3.0241,-3.0207,-3.0685,-3.0915,-1.5155,-1.9968,-2.4151,-2.5851,-2.7755,-2.9552,-3.0879,-3.2146,-3.3157,0.0,-3.4165,-3.4542,-3.4569,-3.5332,0.0,0.0,0.0,0.0,0.0,0.0,0.0,0.0,0.0,0.0,0.0,0.0,0.0,0.0,0.0,-3.2917,-3.2872,-3.2876,-3.2853,-3.2818,-3.1732,-3.1637,-3.2674,-3.1804,-3.1963,-3.3156,-3.3552,-3.3997,-3.4547,-3.4737,-3.5132,-3.5704,-3.6125,-3.6301,-3.6301,-3.6301,-3.6301,-3.6301,-3.6301,-3.6343,-3.6444,-3.6444,-3.6523,-3.6602,-3.6602,-3.6602,-3.6602,-3.6602,-3.6623,-3.6643,-3.6643,-3.6705,-3.6788,-3.6888,-3.695,-3.7029,-3.7124,-3.7161,-3.7163,-3.7203,-3.7222,-3.7298,-3.7577,-3.7827,-3.8068,-3.8316,-3.851,-3.8637,-3.8683,-3.8758,-3.873,-3.8575,-3.8582,-3.8329,-3.7512,-3.7475,-3.7168,-3.6348,-3.6339,-3.6043,-3.5275,-3.5298,-3.5096,-3.4442,-3.445,-3.4484,-3.4495,-3.3733,-3.2929,-3.2142,-3.2145,-3.1483,-3.0113,-3.0121,-3.0106,-3.0068,-3.0929,-3.1302,-1.3064,-1.5622,-1.8359,-2.0471,-2.2088,-2.3861,-2.6491,-2.7666,-2.8724,-3.0607,-3.1045,-3.1111,-3.1222,-3.3757,0.0,0.0,0.0,0.0,0.0,0.0,0.0,0.0,0.0,0.0,0.0,0.0,0.0,0.0,0.0,-3.1444,-3.0883,-3.0918,-3.0683,-3.0109,-3.014,-2.9914,-2.936,-3.0081,-3.0512,-3.0614,-3.2015,-3.2696,-3.2747,-3.3519,-3.3898,-3.4018,-3.5614,-3.6301,-3.6301,-3.6301,-3.6301,-3.6301,-3.6301,-3.6301,-3.6322,-3.6322,-3.6322,-3.6322,-3.6322,-3.6322,-3.6322,-3.6322,-3.6402,-3.6523,-3.6523,-3.6602,-3.6702,-3.6722,-3.6722,-3.6722,-3.6722,-3.6742,-3.6742,-3.6742,-3.6742,-3.6908,-3.7559,-3.7703,-3.7774,-3.7984,-3.8103,-3.8185,-3.8382,-3.8478,-3.8318,-3.7676,-3.7581,-3.7301,-3.6489,-3.6379,-3.6048,-3.5188,-3.5151,-3.4887,-3.414,-3.416,-3.4161,-3.4124,-3.4124,-3.4161,-3.4221,-3.3441,-3.268,-3.1939,-3.1236,-3.0565,-2.992,-2.9916,-2.9907,-2.9931,-3.0736,-3.1069,-1.1742,-1.4271,-1.7054,-1.825,-1.964,-2.1081,-2.2491,-2.3713,-2.4726,-2.5441,-2.6322,-2.7355,-2.8693,-3.1097,0.0,0.0,0.0,0.0,0.0,0.0,0.0,0.0,0.0,0.0,0.0,0.0,0.0,0.0,0.0,0.0,-2.981,-2.9387,-2.9084,-2.8934,-2.8521,-2.8246,-2.8141,-2.8958,-2.9658,-3.0206,-3.0749,-3.1497,-3.2411,-3.272,-3.3094,-3.3569,-3.4134,-3.4499,-3.4737,-3.5218,-3.5385,-3.5458,-3.6019,-3.6251,-3.6251,-3.628,-3.6301,-3.6301,-3.6301,-3.6301,-3.6301,-3.6301,-3.6322,-3.6364,-3.6364,-3.6402,-3.6444,-3.6544,-3.6564,-3.6602,-3.6681,-3.6702,-3.6702,-3.6702,-3.6702,-3.6783,-3.7007,-3.726,-3.7485,-3.7595,-3.7739,-3.788,-3.7949,-3.7618,-3.7267,-3.7076,-3.6651,-3.6082,-3.5311,-3.5217,-3.4892,-3.4058,-3.4039,-3.3972,-3.3707,-3.3739,-3.378,-3.378,-3.378,-3.3568,-3.3062,-3.2807,-3.209,-3.0838,-3.0591,-3.0213,-2.971,-2.9746,-2.9783,-2.9784,-3.0556,-3.0885,-1.0365,-1.2308,-1.4454,-1.512,-1.6384,-1.7751,-1.8874,-2.0027,-2.1056,-2.1742,-2.3176,-2.4703,-2.6096,-2.8152,0.0,0.0,0.0,0.0,0.0,0.0,0.0,0.0,0.0,0.0,0.0,0.0,0.0,0.0,0.0,0.0,-2.9004,-2.8379,-2.7951,-2.7822,-2.7132,-2.6827,-2.6955,-2.7781,-2.8492,-2.907,-2.9592,-3.0331,-3.123,-3.1502,-3.1888,-3.232,-3.2269,-3.2782,-3.3662,-3.4117,-3.4321,-3.4449,-3.5309,-3.5643,-3.5737,-3.6066,-3.6195,-3.6195,-3.6195,-3.6195,-3.6195,-3.6195,-3.6195,-3.6195,-3.6195,-3.6195,-3.6216,-3.6297,-3.6318,-3.6339,-3.644,-3.6478,-3.6478,-3.6478,-3.6478,-3.6478,-3.6544,-3.6849,-3.7105,-3.7184,-3.7337,-3.7396,-3.7202,-3.6827,-3.6411,-3.5956,-3.5485,-3.4889,-3.4125,-3.4035,-3.3818,-3.3298,-3.3286,-3.3331,-3.336,-3.3448,-3.3509,-3.3509,-3.3509,-3.3146,-3.2328,-3.2074,-3.1357,-3.0082,-2.9862,-2.9616,-2.9299,-2.9491,-2.956,-2.9559,-3.0324,-3.0837,0.0,0.0,0.0,-1.0949,-1.2128,-1.3652,-1.5595,-1.6594,-1.7684,-1.9702,-2.1735,-2.3218,-2.3429,0.0,0.0,0.0,0.0,0.0,0.0,0.0,0.0,0.0,0.0,0.0,0.0,0.0,0.0,0.0,0.0,-2.8452,-2.8468,-2.7869,-2.7268,-2.6675,-2.6037,-2.5701,-2.5701,-2.6534,-2.6986,-2.7019,-2.851,-2.9185,-2.91,-2.9872,-3.0213,-3.0156,-3.0156,-3.1305,-3.3186,-3.3105,-3.3143,-3.333,-3.415,-3.4541,-3.4802,-3.5625,-3.5958,-3.5975,-3.5975,-3.5975,-3.5975,-3.5975,-3.5975,-3.5997,-3.5997,-3.5997,-3.5997,-3.5997,-3.5997,-3.5997,-3.5997,-3.598,-3.5963,-3.5963,-3.5946,-3.5972,-3.6169,-3.6433,-3.6632,-3.6771,-3.6908,-3.6782,-3.6198,-3.6166,-3.5758,-3.4311,-3.406,-3.3758,-3.2973,-3.2884,-3.2884,-3.2884,-3.2948,-3.3011,-3.307,-3.3198,-3.3277,-3.3277,-3.3277,-3.2916,-3.2123,-3.1311,-3.0541,-2.9807,-2.9062,-2.87,-2.8682,-2.909,-2.9251,-2.9206,-3.0049,-3.0876,-0.9773,0.0,0.0,0.0,0.0,0.0,-1.2368,-1.3825,-1.5191,-1.576,-1.7869,-2.0222,-2.2247,0.0,0.0,0.0,0.0,0.0,0.0,0.0,0.0,0.0,0.0,0.0,0.0,0.0,0.0,0.0,-2.8192,-2.7593,-2.7694,-2.6583,-2.5869,-2.568,-2.5525,-2.5416,-2.5492,-2.5724,-2.6156,-2.6789,-2.7235,-2.7691,-2.8176,-2.8392,-2.8762,-2.9188,-2.907,-2.967,-3.0762,-3.1594,-3.2004,-3.2162,-3.3009,-3.3738,-3.4364,-3.4594,-3.5082,-3.556,-3.5453,-3.5476,-3.556,-3.556,-3.5627,-3.5711,-3.5711,-3.5711,-3.5711,-3.5711,-3.5711,-3.5711,-3.5711,-3.5326,-3.4902,-3.4902,-3.4516,-3.4151,-3.4315,-3.4415,-3.4905,-3.6417,-3.6667,-3.6426,-3.578,-3.5166,-3.4505,-3.3706,-3.3108,-3.265,-3.2489,-3.2472,-3.2506,-3.259,-3.2623,-3.2673,-3.2719,-3.277,-3.2786,-3.2786,-3.2786,-3.2448,-3.17,-3.0881,-3.0139,-2.9446,-2.8707,-2.8353,-2.8401,-2.8773,-2.8938,-2.8915,-2.91,-2.9326,-1.0103,-1.0595,-1.1103,-1.1103,0.0,0.0,-1.1558,-1.2928,-1.4206,0.0,-1.5901,-1.813,-2.0595,0.0,0.0,0.0,0.0,0.0,0.0,0.0,0.0,0.0,0.0,0.0,0.0,0.0,0.0,-2.8936,-2.7797,-2.6862,-2.6354,-2.5544,-2.508,-2.5005,-2.5005,-2.5025,-2.5068,-2.5068,-2.5353,-2.5922,-2.625,-2.6623,-2.7061,-2.7366,-2.7838,-2.8425,-2.8349,-2.8726,-2.9512,-3.0273,-3.068,-3.0882,-3.1742,-3.2414,-3.2956,-3.3367,-3.3818,-3.423,-3.4139,-3.4162,-3.423,-3.4162,-3.423,-3.4359,-3.4359,-3.4382,-3.4387,-3.4387,-3.4387,-3.4387,-3.4387,-3.4069,-3.3733,-3.3733,-3.3419,-3.3143,-3.3288,-3.3351,-3.3807,-3.5211,-3.5425,-3.5128,-3.4412,-3.3911,-3.3394,-3.2746,-3.2243,-3.1966,-3.2002,-3.2002,-3.2038,-3.2109,-3.2197,-3.2284,-3.2387,-3.2421,-3.2455,-3.2471,-3.2455,-3.2103,-3.1312,-3.0554,-2.979,-2.9056,-2.8354,-2.8011,-2.8007,-2.8427,-2.8619,-2.8594,-2.8556,-2.8562,0.0,0.0,0.0,-1.1349,-1.1774,0.0,-1.2092,-1.3113,-1.4098,-1.4098,-1.5209,-1.6762,-1.8624,0.0,0.0,0.0,0.0,0.0,0.0,0.0,0.0,0.0,0.0,0.0,0.0,-2.7548,-2.7836,-2.849,-2.7433,-2.6183,-2.4845,-2.4782,-2.4726,-2.4609,-2.4609,-2.4609,-2.4609,-2.4609,-2.4666,-2.4798,-2.5496,-2.5841,-2.5873,-2.6509,-2.7123,-2.7651,-2.7742,-2.8212,-2.8965,-2.9159,-2.9412,-2.9762,-3.0471,-3.0881,-3.1163,-3.2042,-3.2428,-3.2494,-3.2494,-3.2494,-3.2494,-3.238,-3.2426,-3.2517,-3.2517,-3.2584,-3.2613,-3.2613,-3.2613,-3.2613,-3.2613,-3.2585,-3.2519,-3.2497,-3.2453,-3.2431,-3.2546,-3.2667,-3.2878,-3.3332,-3.3574,-3.3461,-3.2673,-3.2615,-3.2434,-3.1625,-3.1506,-3.1506,-3.1506,-3.1506,-3.1523,-3.1542,-3.1693,-3.1858,-3.2019,-3.209,-3.2161,-3.2214,-3.2161,-3.1795,-3.1098,-3.0331,-2.9564,-2.8781,-2.8034,-2.7597,-2.7557,-2.8049,-2.8286,-2.8232,-2.8232,-2.8259,0.0,0.0,0.0,0.0,-1.2493,0.0,-1.1451,-1.239,-1.339,-1.339,-1.4886,-1.6331,-1.6731,-1.7254,0.0,0.0,0.0,0.0,0.0,0.0,0.0,0.0,0.0,0.0,0.0,-2.6714,-2.6789,-2.6929,-2.6308,-2.5561,-2.4677,-2.463,-2.463,-2.4609,-2.4609,-2.4609,-2.4609,-2.4609,-2.4609,-2.463,-2.479,-2.4873,-2.4873,-2.5014,-2.5472,-2.6176,-2.6701,-2.7326,-2.8037,-2.8638,-2.9153,-2.9557,-2.9707,-3.0222,-3.0868,-3.0967,-3.1401,-3.194,-3.1821,-3.1869,-3.1963,-3.194,-3.201,-3.2127,-3.2127,-3.2127,-3.215,-3.215,-3.215,-3.215,-3.215,-3.1779,-3.1383,-3.1271,-3.0875,-3.0533,-3.0555,-3.0577,-3.0685,-3.0928,-3.219,-3.2984,-3.2248,-3.2051,-3.1758,-3.1063,-3.0965,-3.0965,-3.0965,-3.0965,-3.1024,-3.1181,-3.124,-3.1336,-3.1615,-3.1617,-3.1635,-3.1654,-3.1635,-3.1584,-3.1412,-3.0637,-2.9883,-2.9214,-2.7886,-2.7228,-2.7276,-2.76,-2.7751,-2.7751,-2.7751,-2.7777,0.0,0.0,0.0,-1.3775,-1.319,0.0,0.0,-1.2944,-1.3698,-1.3698,-1.4236,-1.5009,-1.6024,0.0,0.0,0.0,0.0,0.0,0.0,0.0,0.0,0.0,0.0,0.0,0.0,-2.587,-2.592,-2.6001,-2.5755,-2.5295,-2.459,-2.4544,-2.4523,-2.4446,-2.4446,-2.4446,-2.4446,-2.4446,-2.4467,-2.4544,-2.4544,-2.4584,-2.4609,-2.4564,-2.4937,-2.5606,-2.5969,-2.6701,-2.7696,-2.8085,-2.8607,-2.9153,-2.9153,-2.9428,-2.9853,-2.9846,-3.0161,-3.0526,-3.0472,-3.0495,-3.0526,-3.0472,-3.0526,-3.0642,-3.0642,-3.0705,-3.0751,-3.0751,-3.0751,-3.0751,-3.0751,-3.0538,-3.0287,-3.0219,-2.9984,-2.9748,-2.9748,-2.9792,-2.9858,-2.9892,-3.0718,-3.1352,-3.1245,-3.1157,-3.0983,-3.0663,-3.0597,-3.0597,-3.0597,-3.0597,-3.0638,-3.074,-3.0781,-3.0731,-3.0574,-3.054,-3.0579,-3.0654,-3.0579,-3.0709,-3.1098,-3.0015,-2.8921,-2.786,-2.7131,-2.6758,-2.6758,-2.6891,-2.7069,-2.7293,-2.7371,-2.7432,0.0,0.0,0.0,0.0,0.0,-1.3313,0.0,0.0,0.0,0.0,0.0,0.0,0.0,0.0,0.0,0.0,0.0,0.0,0.0,0.0,0.0,0.0,0.0,0.0,0.0,-2.4502,-2.439,-2.4488,-2.4488,-2.4322,-2.3904,-2.4137,-2.4277,-2.4302,-2.4302,-2.4302,-2.4302,-2.4302,-2.4359,-2.4457,-2.4457,-2.4482,-2.4549,-2.4482,-2.4751,-2.5277,-2.5406,-2.6125,-2.7178,-2.7511,-2.7992,-2.8552,-2.8724,-2.8834,-2.8897,-2.8982,-2.9098,-2.919,-2.919,-2.919,-2.9175,-2.8917,-2.8893,-2.8953,-2.8871,-2.9003,-2.9143,-2.9038,-2.9007,-2.9007,-2.9007,-2.9029,-2.9051,-2.9029,-2.9029,-2.9029,-2.9007,-2.908,-2.9124,-2.9035,-2.9237,-2.9603,-3.013,-3.0248,-3.0269,-3.0269,-3.029,-3.0295,-3.0295,-3.0295,-3.0262,-3.0136,-3.0182,-2.9968,-2.9364,-2.9297,-2.9403,-2.9635,-2.9556,-2.9762,-3.0377,-2.8979,-2.7672,-2.6564,-2.6379,-2.6279,-2.6242,-2.6225,-2.6435,-2.6875,-2.6972,-2.7037,0.0,0.0,0.0,0.0,-1.4108,0.0,0.0,0.0,-1.2431,-1.2431,0.0,0.0,0.0,0.0,0.0,0.0,0.0,0.0,0.0,0.0,0.0,0.0,0.0,0.0,0.0,0.0,-2.0875,-2.0875,-2.0875,-2.1106,-2.1645,-2.2782,-2.3707,-2.4287,-2.4302,-2.4302,-2.4302,-2.4302,-2.4302,-2.4317,-2.4317,-2.4338,-2.4323,-2.4338,-2.4369,-2.4477,-2.5056,-2.541,-2.5663,-2.6933,-2.7489,-2.7635,-2.849,-2.8794,-2.8803,-2.8842,-2.8842,-2.8865,-2.8865,-2.8865,-2.8756,-2.8092,-2.7873,-2.7786,-2.7325,-2.7598,-2.796,-2.7369,-2.7196,-2.7196,-2.7196,-2.7283,-2.7369,-2.7379,-2.7385,-2.7332,-2.7217,-2.7217,-2.7261,-2.7347,-2.7963,-2.871,-2.9473,-2.9697,-2.9786,-2.9786,-2.988,-2.9962,-2.9962,-2.9962,-2.9762,-2.9228,-2.9163,-2.8931,-2.8316,-2.827,-2.8533,-2.9141,-2.9169,-2.9202,-2.9284,-2.7922,-2.7106,-2.7036,-2.6319,-2.599,-2.6028,-2.5972,-2.6099,-2.6383,-2.64,-2.6435,0.0,0.0,0.0,0.0,0.0,0.0,-1.3363,0.0,-1.2682,0.0,0.0,0.0,0.0,0.0,0.0,0.0,-1.3036,0.0,0.0,0.0,0.0,0.0,0.0,0.0,0.0,0.0,0.0,0.0,0.0,-2.0428,-2.0687,-2.2347,-2.3425,-2.3717,-2.4102,-2.4302,-2.4302,-2.4302,-2.4302,-2.4302,-2.4302,-2.4302,-2.4302,-2.4302,-2.4302,-2.4317,-2.461,-2.4927,-2.5373,-2.6357,-2.7011,-2.7496,-2.8269,-2.8628,-2.8684,-2.8684,-2.8747,-2.8794,-2.8794,-2.8529,-2.8061,-2.7344,-2.7125,-2.7085,-2.6848,-2.6973,-2.7145,-2.687,-2.6792,-2.6792,-2.6792,-2.6835,-2.6879,-2.6873,-2.6857,-2.6842,-2.6792,-2.6792,-2.6792,-2.6857,-2.7136,-2.7479,-2.7807,-2.8841,-2.9586,-2.9586,-2.9299,-2.9086,-2.9086,-2.8699,-2.8393,-2.8202,-2.819,-2.794,-2.7342,-2.7297,-2.7407,-2.7684,-2.805,-2.8005,-2.7486,-2.698,-2.6516,-2.6116,-2.5786,-2.5605,-2.5642,-2.5511,-2.5476,-2.5626,-2.5957,-2.6136,-1.6019,0.0,0.0,0.0,0.0,0.0,0.0,0.0,0.0,0.0,0.0,0.0,0.0,0.0,0.0,-1.2496,0.0,-1.2542,0.0,0.0,0.0,0.0,0.0,0.0,0.0,0.0,0.0,0.0,0.0,0.0,-1.8639,-2.1257,-2.2748,-2.2748,-2.3579,-2.4112,-2.4276,-2.4276,-2.4255,-2.4234,-2.4234,-2.4234,-2.4234,-2.4234,-2.4234,-2.4234,-2.4234,-2.4474,-2.4995,-2.5869,-2.6512,-2.7072,-2.7747,-2.808,-2.8191,-2.8439,-2.8612,-2.87,-2.87,-2.8085,-2.7193,-2.651,-2.6277,-2.6246,-2.6088,-2.6305,-2.6554,-2.6368,-2.6461,-2.6554,-2.6411,-2.6343,-2.6274,-2.6131,-2.6041,-2.5982,-2.5982,-2.5982,-2.5982,-2.5982,-2.6159,-2.6327,-2.6327,-2.7681,-2.8771,-2.8732,-2.8385,-2.811,-2.8066,-2.7668,-2.7331,-2.7222,-2.7205,-2.6973,-2.6324,-2.624,-2.6317,-2.6491,-2.6912,-2.6883,-2.6238,-2.6126,-2.5846,-2.5298,-2.5282,-2.5262,-2.5243,-2.5091,-2.4993,-2.4989,-2.5492,-2.5735,0.0,0.0,0.0,-1.6939,0.0,0.0,0.0,0.0,-1.397,0.0,0.0,0.0,0.0,-1.3448,-1.3001,-1.2985,-1.1895,0.0,0.0,0.0,0.0,0.0,0.0,0.0,0.0,0.0,0.0,0.0,0.0,0.0,-1.4467,-1.8824,-2.1365,-2.1365,-2.264,-2.3615,-2.4187,-2.4187,-2.4145,-2.4003,-2.4003,-2.4003,-2.4003,-2.4003,-2.4003,-2.4003,-2.4003,-2.4019,-2.414,-2.5484,-2.6032,-2.6123,-2.6792,-2.705,-2.715,-2.8078,-2.8411,-2.8396,-2.8396,-2.7448,-2.6153,-2.5479,-2.5249,-2.5148,-2.4558,-2.5287,-2.6173,-2.5533,-2.581,-2.6202,-2.5663,-2.545,-2.5216,-2.4694,-2.4364,-2.4181,-2.4181,-2.4181,-2.4181,-2.4181,-2.4814,-2.5346,-2.5346,-2.6252,-2.6932,-2.6808,-2.6997,-2.7104,-2.6981,-2.7169,-2.7025,-2.6309,-2.6229,-2.5942,-2.5206,-2.5096,-2.5338,-2.5982,-2.6045,-2.6024,-2.6009,-2.5401,-2.5037,-2.5005,-2.5005,-2.495,-2.4815,-2.4815,-2.4735,-2.463,-2.4906,-2.5025,0.0,0.0,-1.8347,-1.8122,0.0,0.0,0.0,0.0,0.0,0.0,0.0,0.0,0.0,-1.6159,-1.528,-1.3154,-1.1683,-1.0594,0.0,0.0,0.0,0.0,0.0,0.0,0.0,0.0,0.0,0.0,0.0,0.0,0.0,-1.7532,-1.993,-2.1713,-2.2629,-2.3361,-2.3925,-2.394,-2.3861,-2.3739,-2.3739,-2.3739,-2.3739,-2.3739,-2.3739,-2.3739,-2.3653,-2.3595,-2.3699,-2.4939,-2.5514,-2.5659,-2.623,-2.6508,-2.6615,-2.6753,-2.7084,-2.7405,-2.6853,-2.6062,-2.5152,-2.4485,-2.4273,-2.4249,-2.4028,-2.4605,-2.5265,-2.5023,-2.5432,-2.5804,-2.5306,-2.5072,-2.4817,-2.4177,-2.3888,-2.3767,-2.3767,-2.3702,-2.3638,-2.3638,-2.3818,-2.3983,-2.3983,-2.4272,-2.4945,-2.6187,-2.5978,-2.5737,-2.5759,-2.5422,-2.5155,-2.5081,-2.507,-2.4956,-2.467,-2.4589,-2.4616,-2.4735,-2.473,-2.4724,-2.4677,-2.4493,-2.4446,-2.4544,-2.4451,-2.4426,-2.4467,-2.4147,-2.3979,-2.3952,-2.3888,-2.4183,-2.223,-2.1227,0.0,-2.015,-1.8526,0.0,-1.6934,0.0,0.0,0.0,0.0,0.0,0.0,0.0,-1.552,-1.3253,-1.1745,-1.0587,0.0,-0.9835,0.0,0.0,0.0,0.0,0.0,0.0,0.0,0.0,0.0,0.0,0.0,0.0,-1.7713,-1.9425,-2.0331,-2.1355,-2.2583,-2.2577,-2.2816,-2.3355,-2.3355,-2.3355,-2.3355,-2.3355,-2.3355,-2.3355,-2.3268,-2.3209,-2.3312,-2.4543,-2.511,-2.5226,-2.5565,-2.5752,-2.583,-2.5773,-2.6019,-2.6305,-2.5535,-2.4941,-2.4448,-2.3754,-2.3545,-2.3545,-2.3545,-2.4164,-2.4871,-2.4857,-2.5365,-2.5741,-2.5213,-2.4837,-2.444,-2.3731,-2.3458,-2.3355,-2.3355,-2.3275,-2.3282,-2.3503,-2.3495,-2.3538,-2.3787,-2.3618,-2.382,-2.4935,-2.4701,-2.4401,-2.4445,-2.4139,-2.3973,-2.4094,-2.4156,-2.4135,-2.4021,-2.3973,-2.3909,-2.3824,-2.3824,-2.3803,-2.3754,-2.3782,-2.3867,-2.3946,-2.3867,-2.3824,-2.3867,-2.3573,-2.3399,-2.3355,-2.3216,-2.3465]},{"header":{"parameterUnit":"m.s-1","parameterCategory":1,"la1":30.6,"la2":29.2853,"lo1":-89.7004,"lo2":-87.6739,"dy":0.0162,"dx":0.0183,"nx":112,"ny":82,"refTime":"2024-04-11T12:00:00:Z","depth":0,"parameterNumber":3,"parameterNumberName":"V-component_of_WINDS"},"data":[0.0,0.0,0.0,0.0,0.0,0.0,0.0,0.0,0.0,0.0,0.0,0.0,0.0,0.0,0.0,0.0,0.0,0.0,0.0,0.0,0.0,0.0,0.0,0.0,0.0,0.0,0.0,0.0,0.0,0.0,0.0,0.0,0.0,0.0,0.0,0.0,0.0,0.0,0.0,0.0,0.0,0.0,0.0,0.0,0.0,0.0,0.0,0.0,0.0,0.0,0.0,0.0,0.0,0.0,0.0,0.0,0.0,0.0,0.0,0.0,0.0,0.0,0.0,0.0,0.0,0.0,0.0,0.0,0.0,0.0,0.0,0.0,0.0,0.0,0.0,0.0,0.0,0.0,0.0,0.0,0.0,0.0,0.0,0.0,0.0,0.0,0.0,0.0,0.0,0.0,-0.8999,-1.1077,-1.3191,-1.4408,-1.4364,-1.3411,-1.2378,-1.1327,0.0,0.0,0.0,0.0,0.0,0.0,0.0,0.0,0.0,0.0,0.0,0.0,0.0,0.0,0.0,0.0,0.0,0.0,0.0,0.0,0.0,0.0,0.0,0.0,0.0,0.0,0.0,0.0,0.0,0.0,0.0,0.0,0.0,0.0,0.0,0.0,0.0,0.0,0.0,0.0,0.0,0.0,0.0,0.0,0.0,0.0,0.0,0.0,0.0,0.0,0.0,0.0,0.0,0.0,0.0,0.0,0.0,0.0,0.0,0.0,0.0,0.0,0.0,0.0,0.0,0.0,0.0,0.0,0.0,0.0,0.0,0.0,0.0,0.0,0.0,0.0,0.0,0.0,0.0,0.0,0.0,0.0,0.0,0.0,0.0,0.0,0.0,0.0,0.0,0.0,0.0,0.0,0.0,0.0,0.0,0.0,0.0,0.0,0.0,0.0,0.0,0.0,0.0,0.0,-0.9255,-1.1974,-1.3353,-1.3945,-1.3667,-1.2975,-1.1997,-1.0732,0.0,0.0,0.0,0.0,0.0,0.0,0.0,0.0,0.0,0.0,0.0,0.0,0.0,0.0,0.0,0.0,0.0,0.0,0.0,0.0,0.0,0.0,0.0,0.0,0.0,0.0,0.0,0.0,0.0,0.0,0.0,0.0,0.0,0.0,0.0,0.0,0.0,0.0,0.0,0.0,0.0,0.0,0.0,0.0,0.0,0.0,0.0,0.0,0.0,0.0,0.0,0.0,0.0,0.0,0.0,0.0,0.0,0.0,0.0,0.0,0.0,0.0,0.0,0.0,0.0,0.0,0.0,0.0,0.0,0.0,0.0,0.0,0.0,0.0,0.0,0.0,0.0,0.0,0.0,0.0,0.0,0.0,0.0,0.0,0.0,0.0,0.0,0.0,0.0,0.0,0.0,0.0,0.0,0.0,0.0,0.0,0.0,0.0,0.0,0.0,0.0,0.0,0.0,-0.8948,-1.0536,-1.257,-1.3345,-1.366,-1.3506,-1.2549,-1.1543,-1.056,-0.9177,0.0,0.0,0.0,0.0,0.0,0.0,0.0,0.0,0.0,0.0,0.0,0.0,0.0,0.0,0.0,0.0,0.0,0.0,0.0,0.0,0.0,0.0,0.0,0.0,0.0,0.0,0.0,0.0,0.0,0.0,0.0,0.0,0.0,0.0,0.0,0.0,0.0,0.0,0.0,0.0,0.0,0.0,0.0,0.0,0.0,0.0,0.0,0.0,0.0,0.0,0.0,0.0,0.0,0.0,0.0,0.0,0.0,0.0,0.0,0.0,0.0,0.0,0.0,0.0,0.0,0.0,0.0,0.0,0.0,0.0,0.0,0.0,0.0,0.0,0.0,0.0,0.0,0.0,0.0,0.0,0.0,0.0,0.0,0.0,0.0,0.0,0.0,0.0,0.0,0.0,0.0,0.0,0.0,0.0,0.0,0.0,0.0,0.0,0.0,0.0,0.0,0.0,-0.9926,-1.1342,-1.2541,-1.3023,-1.3206,-1.3053,-1.2026,-1.1028,-1.0194,-0.8628,0.0,0.0,0.0,0.0,0.0,0.0,0.0,0.0,0.0,0.0,0.0,0.0,0.0,0.0,0.0,0.0,0.0,0.0,0.0,0.0,0.0,0.0,0.0,0.0,0.0,0.0,0.0,0.0,0.0,0.0,0.0,0.0,0.0,0.0,0.0,0.0,0.0,0.0,0.0,0.0,0.0,0.0,0.0,0.0,0.0,0.0,0.0,0.0,0.0,0.0,0.0,0.0,0.0,0.0,0.0,0.0,0.0,0.0,0.0,0.0,0.0,0.0,0.0,0.0,0.0,0.0,0.0,0.0,0.0,0.0,0.0,0.0,0.0,0.0,0.0,0.0,0.0,0.0,0.0,0.0,0.0,0.0,0.0,0.0,0.0,0.0,0.0,0.0,0.0,0.0,0.0,0.0,0.0,0.0,0.0,0.0,0.0,0.0,0.0,0.0,0.0,0.0,-0.9365,-1.055,-1.1591,-1.2219,-1.2343,-1.1775,-1.1286,-1.0447,-0.911,-0.7953,0.0,0.0,0.0,0.0,0.0,0.0,0.0,0.0,0.0,0.0,0.0,0.0,0.0,0.0,0.0,0.0,0.0,0.0,0.0,0.0,0.0,0.0,0.0,0.0,0.0,0.0,0.0,0.0,0.0,0.0,0.0,0.0,0.0,0.0,0.0,0.0,0.0,0.0,0.0,0.0,0.0,0.0,0.0,0.0,0.0,0.0,0.0,0.0,0.0,0.0,0.0,0.0,0.0,0.0,0.0,0.0,0.0,0.0,0.0,0.0,0.0,0.0,0.0,0.0,0.0,0.0,0.0,0.0,0.0,0.0,0.0,0.0,0.0,0.0,0.0,0.0,0.0,0.0,0.0,0.0,0.0,0.0,0.0,0.0,0.0,0.0,0.0,0.0,0.0,0.0,0.0,0.0,0.0,0.0,0.0,0.0,0.0,0.0,0.0,0.0,0.0,0.0,-0.9438,-1.055,0.0,-1.1897,-1.1775,-1.1327,-1.0329,-0.9413,-0.8632,0.0,0.0,0.0,0.0,0.0,0.0,0.0,0.0,0.0,0.0,0.0,0.0,0.0,0.0,0.0,0.0,0.0,0.0,0.0,0.0,0.0,0.0,0.0,0.0,0.0,0.0,0.0,0.0,0.0,0.0,0.0,0.0,0.0,0.0,0.0,0.0,0.0,0.0,0.0,0.0,0.0,0.0,0.0,0.0,0.0,0.0,0.0,0.0,0.0,0.0,0.0,0.0,0.0,0.0,0.0,0.0,0.0,0.0,0.0,0.0,0.0,0.0,0.0,0.0,0.0,0.0,0.0,0.0,0.0,0.0,0.0,0.0,0.0,0.0,0.0,0.0,0.0,0.0,0.0,0.0,0.0,0.0,0.0,0.0,0.0,0.0,0.0,0.0,0.0,0.0,0.0,0.0,0.0,0.0,0.0,0.0,0.0,0.0,0.0,0.0,0.0,0.0,-0.8151,-0.9299,-1.0368,0.0,-1.1503,-1.1261,-1.0828,-0.9679,-0.8789,-0.8311,0.0,0.0,0.0,0.0,0.0,0.0,0.0,0.0,0.0,0.0,0.0,0.0,0.0,0.0,0.0,0.0,0.0,0.0,0.0,0.0,0.0,0.0,0.0,0.0,0.0,0.0,0.0,0.0,0.0,0.0,0.0,0.0,0.0,0.0,0.0,0.0,0.0,0.0,0.0,0.0,0.0,0.0,0.0,0.0,0.0,0.0,0.0,0.0,0.0,0.0,0.0,0.0,0.0,0.0,0.0,0.0,0.0,0.0,0.0,0.0,0.0,0.0,0.0,0.0,0.0,0.0,0.0,0.0,0.0,0.0,0.0,0.0,0.0,0.0,0.0,0.0,0.0,0.0,0.0,0.0,0.0,0.0,0.0,0.0,0.0,0.0,0.0,0.0,0.0,0.0,0.0,0.0,0.0,0.0,0.0,0.0,0.0,0.0,0.0,0.0,0.0,0.0,-0.753,-0.8807,-0.9863,-1.0521,-1.0909,-1.0828,-1.0148,-0.9403,-0.8703,0.0,0.0,0.0,0.0,0.0,0.0,0.0,0.0,0.0,0.0,0.0,0.0,0.0,0.0,0.0,0.0,0.0,0.0,0.0,0.0,0.0,0.0,0.0,0.0,0.0,0.0,0.0,0.0,0.0,0.0,0.0,0.0,0.0,0.0,0.0,0.0,0.0,0.0,0.0,0.0,0.0,0.0,0.0,0.0,0.0,0.0,0.0,0.0,0.0,0.0,0.0,0.0,0.0,0.0,0.0,0.0,0.0,0.0,0.0,0.0,0.0,0.0,0.0,0.0,0.0,0.0,0.0,0.0,0.0,0.0,0.0,0.0,0.0,0.0,0.0,0.0,0.0,0.0,0.0,0.0,0.0,0.0,0.0,0.0,0.0,0.0,0.0,0.0,0.0,0.0,0.0,0.0,0.0,0.0,0.0,0.0,0.0,0.0,0.0,0.0,0.0,0.0,0.0,-0.7935,-0.8987,-0.9863,-1.0521,-1.0704,-1.041,-0.9544,-0.8737,-0.8088,-0.7615,0.0,0.0,0.0,0.0,0.0,0.0,0.0,0.0,0.0,0.0,0.0,0.0,0.0,0.0,0.0,0.0,0.0,0.0,0.0,0.0,0.0,0.0,0.0,0.0,0.0,0.0,0.0,0.0,0.0,0.0,0.0,0.0,0.0,0.0,0.0,0.0,0.0,0.0,0.0,0.0,0.0,0.0,0.0,0.0,0.0,0.0,0.0,0.0,0.0,0.0,0.0,0.0,0.0,0.0,0.0,0.0,0.0,0.0,0.0,0.0,0.0,0.0,0.0,0.0,0.0,0.0,0.0,0.0,0.0,0.0,0.0,0.0,0.0,0.0,0.0,0.0,0.0,0.0,0.0,0.0,0.0,0.0,0.0,0.0,0.0,0.0,0.0,0.0,0.0,0.0,0.0,0.0,0.0,0.0,0.0,0.0,0.0,0.0,0.0,0.0,0.0,0.0,-0.7926,-0.8903,-0.9706,-1.0324,-1.0389,-1.006,-0.9266,-0.8461,-0.7821,-0.7418,0.0,0.0,0.0,0.0,0.0,0.0,0.0,0.0,0.0,0.0,0.0,0.0,0.0,0.0,0.0,0.0,0.0,0.0,0.0,0.0,0.0,0.0,0.0,0.0,0.0,0.0,0.0,0.0,0.0,0.0,0.0,0.0,0.0,0.0,0.0,0.0,0.0,0.0,0.0,0.0,0.0,0.0,0.0,0.0,0.0,0.0,0.0,0.0,0.0,0.0,0.0,0.0,0.0,0.0,0.0,0.0,0.0,0.0,0.0,0.0,0.0,0.0,0.0,0.0,0.0,0.0,0.0,0.0,0.0,0.0,0.0,0.0,0.0,0.0,0.0,0.0,0.0,0.0,0.0,0.0,0.0,0.0,0.0,0.0,0.0,0.0,0.0,0.0,0.0,0.0,0.0,0.0,0.0,0.0,0.0,0.0,0.0,0.0,0.0,0.0,0.0,0.0,-0.765,-0.8691,-0.9488,-0.9987,-1.0082,-0.9841,-0.9214,-0.8438,-0.7801,-0.74,0.0,0.0,0.0,0.0,0.0,0.0,0.0,0.0,0.0,0.0,0.0,0.0,0.0,0.0,0.0,0.0,0.0,0.0,0.0,0.0,0.0,0.0,0.0,0.0,0.0,0.0,0.0,0.0,0.0,0.0,0.0,0.0,0.0,0.0,0.0,0.0,0.0,0.0,0.0,0.0,0.0,0.0,0.0,0.0,0.0,0.0,0.0,0.0,0.0,0.0,0.0,0.0,0.0,0.0,0.0,0.0,0.0,0.0,0.0,0.0,-0.387,0.0,0.0,0.0,0.0,0.0,0.0,0.0,0.0,0.0,0.0,0.0,0.0,0.0,0.0,0.0,0.0,0.0,0.0,0.0,0.0,0.0,0.0,0.0,0.0,0.0,0.0,0.0,0.0,0.0,0.0,0.0,0.0,0.0,0.0,0.0,0.0,0.0,0.0,0.0,0.0,0.0,-0.7795,-0.8745,-0.94,-0.968,-0.9943,-0.9746,-0.8892,-0.8209,-0.7646,-0.7194,-0.6122,0.0,0.0,0.0,0.0,0.0,0.0,0.0,0.0,0.0,0.0,0.0,0.0,0.0,0.0,0.0,0.0,0.0,0.0,0.0,0.0,0.0,0.0,0.0,0.0,0.0,0.0,0.0,0.0,0.0,0.0,0.0,0.0,0.0,0.0,0.0,0.0,0.0,0.0,0.0,0.0,0.0,0.0,0.0,0.0,0.0,0.0,0.0,0.0,0.0,0.0,0.0,0.0,0.0,0.0,0.0,0.0,0.0,0.0,0.0,0.0,-0.4131,0.0,0.0,0.0,0.0,0.0,0.0,0.0,0.0,0.0,0.0,0.0,0.0,0.0,0.0,0.0,0.0,0.0,0.0,0.0,0.0,0.0,0.0,0.0,0.0,0.0,0.0,0.0,0.0,0.0,0.0,0.0,0.0,0.0,0.0,0.0,0.0,0.0,0.0,0.0,0.0,-0.7638,-0.8573,-0.9214,-0.939,-0.968,-0.9548,-0.8758,-0.8143,-0.7599,-0.7132,-0.6042,0.0,0.0,0.0,0.0,0.0,0.0,0.0,0.0,0.0,0.0,0.0,0.0,0.0,0.0,0.0,0.0,0.0,0.0,0.0,0.0,0.0,0.0,0.0,0.0,0.0,0.0,0.0,0.0,0.0,0.0,0.0,0.0,0.0,0.0,0.0,0.0,0.0,0.0,0.0,0.0,0.0,0.0,0.0,0.0,0.0,0.0,0.0,0.0,0.0,0.0,0.0,0.0,0.0,-0.2058,-0.2327,-0.2734,-0.345,-0.4258,-0.515,-0.4833,-0.4998,-0.544,0.0,0.0,0.0,0.0,0.0,0.0,0.0,0.0,0.0,0.0,0.0,0.0,0.0,0.0,0.0,0.0,0.0,0.0,0.0,0.0,0.0,0.0,0.0,0.0,0.0,-0.7137,-0.6814,0.0,0.0,0.0,0.0,0.0,0.0,0.0,0.0,0.0,0.0,0.0,0.0,-0.7418,-0.8307,-0.8941,-0.9099,-0.9307,-0.9226,-0.8648,-0.804,-0.7519,-0.7113,-0.5954,-0.5431,0.0,0.0,0.0,0.0,0.0,0.0,0.0,0.0,0.0,0.0,0.0,0.0,0.0,0.0,0.0,0.0,0.0,0.0,0.0,0.0,0.0,0.0,0.0,0.0,0.0,0.0,0.0,0.0,0.0,0.0,0.0,0.0,0.1775,0.0969,0.0,0.0,0.0,0.0,0.0,0.0,0.0,0.0,0.0,0.0,0.0,0.0,0.0,-0.0699,-0.091,-0.1444,-0.1742,-0.1805,-0.217,-0.2645,-0.3164,-0.3704,-0.4666,-0.5874,-0.6172,0.0,-0.5875,-0.5515,0.0,0.0,0.0,0.0,0.0,0.0,0.0,0.0,0.0,0.0,0.0,0.0,0.0,0.0,0.0,0.0,0.0,0.0,0.0,0.0,0.0,0.0,-0.9245,-0.9573,-0.9072,-0.8477,0.0,-0.7181,-0.6124,-0.5956,-0.5643,0.0,0.0,0.0,0.0,0.0,0.0,0.0,-0.7333,-0.804,-0.8566,-0.8737,-0.8787,-0.8663,-0.8297,-0.7668,-0.7211,-0.7023,-0.5872,-0.5334,-0.5617,-0.5101,0.0,0.0,0.0,0.0,0.0,0.0,0.0,0.0,0.0,0.0,0.0,0.0,0.0,0.0,0.0,0.0,0.0,0.0,0.0,0.0,0.0,0.0,0.0,0.0,0.0,0.0,0.0,0.0,0.0,0.2498,0.2014,0.1318,0.0982,0.06,0.0,0.0,0.0,0.0,0.0,0.0,0.0,0.0,0.0,-0.0125,-0.022,-0.0375,-0.0605,-0.1092,-0.1387,-0.1523,-0.1879,-0.2396,-0.3011,-0.35,-0.4477,-0.5875,-0.644,-0.6824,-0.6949,-0.6337,-0.5755,-0.516,0.0,0.0,0.0,0.0,-0.4486,-0.4737,-0.527,-0.5689,0.0,0.0,0.0,0.0,0.0,0.0,0.0,0.0,0.0,0.0,0.0,0.0,0.0,-1.0541,-1.0314,-0.9993,-0.9856,-0.8837,-0.7668,0.0,-0.5943,-0.5591,-0.576,0.0,0.0,0.0,0.0,-0.6936,-0.7356,-0.7981,-0.8409,-0.8422,-0.8582,-0.848,-0.7968,-0.7479,-0.7047,-0.669,-0.5713,-0.5227,-0.5419,-0.4917,-0.4684,0.0,0.0,0.0,0.0,0.0,0.0,0.0,0.0,0.0,0.0,0.0,0.0,0.0,0.0,0.0,0.0,0.0,0.0,0.0,0.0,0.0,0.0,0.0,0.0,0.0,0.0,0.0,0.0,0.2709,0.2322,0.1606,0.1275,0.0819,0.0,0.0,0.0,0.0,0.0,0.0,0.0,0.0,0.0,0.0,0.0,-0.0104,-0.0277,-0.0615,-0.0966,-0.1223,-0.1579,-0.2058,-0.272,-0.3221,-0.4133,-0.5456,-0.6275,-0.7085,-0.7676,-0.7065,-0.6593,-0.6155,-0.5525,-0.5121,-0.4935,-0.505,-0.5226,-0.5482,-0.5983,-0.6478,-0.6896,-0.7171,0.0,-0.7642,-0.7214,0.0,0.0,0.0,0.0,-0.8832,-1.0097,-1.0863,-1.1389,-1.1717,-1.161,-1.1417,-1.1196,-1.0307,-0.9051,0.0,-0.643,-0.5992,-0.6155,0.0,0.0,0.0,0.0,-0.7127,-0.7328,-0.7865,-0.8186,-0.8077,-0.8216,-0.8114,-0.7611,-0.7195,-0.6775,-0.6301,-0.5533,-0.5111,-0.515,-0.4705,-0.4524,-0.4622,0.0,0.0,0.0,0.0,0.0,0.0,0.0,0.0,0.0,0.0,0.0,0.0,0.0,0.0,0.0,0.0,0.0,0.0,0.0,0.0,0.0,0.0,0.0,0.0,0.0,0.0,0.0,0.0,0.0,0.1702,0.1454,0.0,0.0,0.0,0.0,0.0,0.0,0.0,0.0,0.0,0.0,0.0,0.0,0.0,0.0,-0.0355,-0.0661,-0.1023,-0.1345,-0.1832,-0.2466,-0.2959,-0.3726,-0.464,-0.579,-0.6738,-0.746,-0.7657,-0.7404,-0.6795,-0.6376,-0.5965,-0.5596,-0.6061,-0.6224,-0.6335,-0.6909,-0.7324,-0.7555,-0.7661,-0.7331,-0.698,-0.7063,-0.6788,0.0,0.0,-0.9209,-1.0109,-1.1884,-1.2775,-1.3316,-1.382,-1.332,-1.269,-1.2677,-1.1544,-1.0026,0.0,-0.7494,-0.6963,-0.6468,0.0,-0.6557,-0.6586,-0.6926,-0.7187,-0.7209,-0.7529,-0.7741,-0.772,-0.7457,-0.7268,-0.7238,-0.6673,-0.6225,-0.5949,-0.5411,-0.4984,-0.4747,-0.4524,-0.4411,-0.4421,-0.4605,0.0,0.0,0.0,0.0,0.0,0.0,0.0,0.0,0.0,0.0,0.0,0.0,0.0,0.0,0.0,0.0,0.0,0.0,0.0,0.0,0.0,0.0,0.0,0.0,0.0,0.0,0.0,0.0,0.2328,0.2037,0.0,0.0435,0.0131,0.0,0.0,0.0,0.0,0.0,0.0,0.0,0.0,0.0,0.0,0.0,-0.0305,-0.0674,-0.098,-0.1355,-0.1837,-0.2408,-0.255,-0.321,-0.43,-0.4905,-0.5855,-0.696,-0.7264,-0.7508,-0.755,-0.7149,-0.6921,-0.6798,-0.6958,-0.702,-0.7054,-0.7358,-0.7562,-0.7694,-0.7944,-0.7939,-0.7846,-0.818,-0.8229,-0.8393,-0.9425,-1.0181,-1.0977,-1.2085,-1.287,-1.3445,-1.376,-1.3758,-1.3601,-1.3367,-1.2458,-1.1383,-1.0367,-0.9273,-0.8466,-0.8341,-0.7733,-0.7356,-0.7709,-0.7402,-0.7237,-0.7494,-0.7618,-0.7611,-0.7399,-0.7275,-0.7041,-0.6661,-0.6228,-0.5848,-0.5539,-0.497,-0.4624,-0.4576,-0.4337,-0.425,-0.4333,-0.4495,-0.4645,0.0,0.0,0.0,0.0,0.0,0.0,0.0,0.0,0.0,0.0,0.0,0.0,0.0,0.0,0.0,0.0,0.0,0.0,0.0,0.0,0.0,0.0,0.0,0.0,0.0,0.0,0.4223,0.3244,0.2764,0.2069,0.0953,0.0463,0.0105,0.0,0.0,0.0,0.0,0.0,0.0,0.0,0.0,0.0,0.0,-0.0247,-0.0556,-0.0988,-0.1235,-0.1654,-0.2229,-0.2256,-0.2744,-0.35,-0.4061,-0.4981,-0.6139,-0.6724,-0.7316,-0.7844,-0.76,-0.7519,-0.7519,-0.7519,-0.7519,-0.7572,-0.7674,-0.7773,-0.7862,-0.8056,-0.8211,-0.833,-0.8626,-0.8804,-0.9054,-0.9727,-1.0339,-1.0969,-1.1748,-1.2572,-1.3222,-1.3525,-1.387,-1.4035,-1.3834,-1.3173,-1.2492,-1.2068,-1.0649,-0.9506,-0.9511,-0.8862,-0.8457,-0.8813,-0.8156,-0.7723,-0.7996,-0.7802,-0.7526,-0.7194,-0.7095,-0.683,-0.6348,-0.5884,-0.5495,-0.5151,-0.4669,-0.438,-0.4339,-0.4189,-0.415,-0.4262,-0.4445,-0.4644,-0.4872,0.0,0.0,0.0,0.0,0.0,0.0,0.0,0.0,0.0,0.0,0.0,0.0,0.0,0.0,0.0,0.0,0.0,0.0,0.0,0.0,0.0,0.0,0.0,0.5041,0.4835,0.467,0.4449,0.361,0.2674,0.1749,0.0954,0.0417,0.006,0.0,0.0,0.0,0.0,0.0,0.0,0.0,0.0,0.0,0.0,-0.0309,-0.0988,-0.0987,-0.1285,-0.1868,-0.2136,-0.2277,-0.2354,-0.344,-0.4308,-0.497,-0.598,-0.6904,-0.7555,-0.775,-0.7821,-0.7818,-0.7818,-0.7818,-0.7797,-0.7884,-0.7969,-0.8061,-0.795,-0.8091,-0.831,-0.8301,-0.8333,-0.8454,-0.9101,-0.9658,-1.0209,-1.1053,-1.1972,-1.279,-1.3264,-1.3737,-1.4088,-1.4075,-1.3621,-1.3206,-1.32,-1.1563,-1.0094,-0.9813,-0.982,-0.9851,-0.9851,-0.9219,0.0,-0.8727,-0.8054,-0.746,-0.718,-0.6907,-0.6637,-0.6392,-0.5744,-0.5217,-0.4889,-0.4617,-0.4353,-0.4104,-0.4148,-0.4221,-0.4311,-0.4563,-0.483,-0.5094,0.0,0.0,0.0,0.0,0.0,0.0,0.0,0.0,0.0,0.0,0.0,0.0,0.0,0.0,0.0,0.0,0.0,0.0,0.0,0.0,0.0,0.6012,0.6318,0.5893,0.6152,0.6062,0.5223,0.4909,0.4093,0.257,0.1795,0.1089,0.045,0.0191,0.0,0.0,0.0,0.0,0.0,0.0,0.0,0.0,0.0,-0.0185,-0.0617,-0.0855,-0.1144,-0.1541,-0.1808,-0.2066,-0.2259,-0.2585,-0.3305,-0.4298,-0.4878,-0.5709,-0.6724,-0.7511,-0.7869,-0.7928,-0.7928,-0.7928,-0.7957,-0.7852,-0.7891,-0.7966,-0.8039,-0.8147,-0.8297,-0.8642,-0.8716,-0.8811,-0.9208,-0.9655,-1.0096,-1.0453,-1.137,-1.2314,-1.279,-1.3349,-1.3811,-1.3773,-1.3433,-1.314,-1.2958,-1.2238,-1.1677,-1.1597,-1.1082,-1.0692,-1.0812,-1.0073,0.0,-0.9355,-0.9159,-0.8872,-0.844,-0.8115,-0.7867,-0.7697,-0.7056,-0.664,-0.6545,-0.6246,-0.6109,-0.6164,-0.6188,-0.6332,-0.6585,-0.6805,-0.7045,0.0,0.0,0.0,0.0,0.0,0.0,0.0,0.0,0.0,0.0,0.0,0.0,0.0,0.0,0.0,0.0,0.0,0.0,0.0,0.0,0.0,0.0,0.7149,0.7556,0.7299,0.7241,0.7035,0.6497,0.5958,0.5155,0.4017,0.3016,0.2079,0.1341,0.079,0.0388,0.0191,0.0063,0.0,0.0,0.0,0.0,0.0,0.0,-0.0185,-0.0494,-0.0669,-0.0897,-0.1178,-0.1333,-0.1596,0.0,-0.1964,-0.2623,-0.3595,-0.4121,-0.4955,0.0,0.0,0.0,0.0,0.0,-0.7988,-0.7968,-0.7865,-0.7859,-0.7894,-0.7922,-0.8072,-0.8245,-0.8512,-0.8692,-0.8828,-0.8955,-0.9262,-0.9602,-0.9907,-1.0722,-1.1515,-1.201,-1.2626,-1.3144,-1.3155,-1.3035,-1.2895,-1.2824,0.0,0.0,-1.2305,-1.1877,-1.1571,-1.164,-1.0885,-1.0242,-1.0039,-0.9727,-0.9315,-0.8783,-0.8538,-0.8322,-0.809,-0.754,0.0,0.0,0.0,-0.6764,-0.6917,-0.6946,0.0,0.0,0.0,-0.7726,-0.8035,0.0,0.0,0.0,-0.8415,-0.87,0.0,0.0,0.0,0.0,0.0,0.0,0.0,0.0,0.0,0.0,0.0,0.0,0.0,0.0,0.0,0.0,0.843,0.8969,0.8943,0.8228,0.7745,0.7865,0.6953,0.6115,0.5625,0.4398,0.3302,0.2471,0.1673,0.1048,0.0582,0.0,0.0,0.0,0.0,0.0,0.0,0.0,-0.0123,-0.0432,-0.0485,-0.0597,-0.0824,-0.0867,-0.1024,-0.129,-0.157,-0.2166,-0.2894,-0.3491,-0.4319,-0.5404,-0.6679,-0.7341,-0.7646,-0.7892,-0.7988,0.0,0.0,0.0,0.0,-0.776,-0.7919,-0.8136,-0.816,-0.834,-0.8564,-0.8564,-0.874,-0.8999,-0.9428,-1.0033,-1.0671,-1.1111,-1.1773,-1.2323,-1.2472,-1.2478,-1.2537,-1.2682,-1.2468,-1.2268,-1.2305,-1.2305,-1.2305,-1.2305,-1.1637,0.0,-1.078,-1.0076,-0.9404,-0.8867,0.0,0.0,-0.8188,-0.7752,-0.7495,-0.7479,-0.7209,-0.7068,-0.714,-0.7201,-0.7326,-0.7504,-0.7588,-0.7795,-0.8133,-0.841,-0.9341,-1.0841,-0.9944,-0.9663,0.0,0.0,0.0,0.0,0.0,0.0,0.0,0.0,0.0,0.0,0.0,0.0,0.0,0.0,0.0,0.8799,0.9181,0.9467,0.9749,0.919,0.8593,0.7956,0.7897,0.7428,0.6043,0.5543,0.4652,0.323,0.2343,0.1638,0.1033,0.0636,0.0251,0.0,0.0,0.0,0.0,0.0,-0.0062,-0.0123,0.0,0.0,-0.053,-0.08,-0.0956,-0.0953,-0.1065,-0.1444,-0.2075,-0.2315,-0.3299,-0.4754,-0.6495,-0.7341,-0.7646,-0.7892,-0.7988,-0.7985,-0.7958,-0.7896,-0.7839,-0.7832,-0.7813,-0.7795,-0.7934,-0.8116,0.0,-0.8288,-0.8556,-0.8911,-0.8999,-0.9689,-1.0409,-1.0671,-1.1428,-1.2047,-1.204,-1.215,-1.2255,-1.2228,-1.2136,-1.2114,-1.2268,-1.2305,-1.2305,-1.2305,-1.2158,-1.1944,-1.1692,-1.129,-1.0934,-1.0703,-1.0239,-0.9909,-0.9846,-0.9556,-0.9311,-0.9143,-0.9183,-0.9202,-0.921,-0.9349,-0.9414,-0.9471,-0.9616,-0.9859,-1.0148,-1.0522,-1.1087,-1.1811,-1.1141,-1.1489,0.0,0.0,0.0,0.0,0.0,0.0,0.0,0.0,0.0,0.0,0.0,0.9238,0.9363,0.0,0.9653,0.9885,0.9944,1.0031,1.012,0.9678,0.9163,0.8569,0.8376,0.8013,0.7205,0.6694,0.5942,0.4738,0.388,0.2945,0.1936,0.1336,0.0752,0.0247,0.0062,0.0,0.0,0.0,0.0,0.0,-0.0119,-0.0176,-0.0233,-0.0397,-0.0505,-0.0673,-0.0673,-0.0995,-0.1562,-0.2045,-0.2922,-0.413,-0.5331,-0.6284,-0.7042,-0.7437,-0.769,-0.7842,-0.7939,-0.7891,-0.7801,-0.7822,-0.7835,-0.782,-0.7795,-0.7975,-0.8139,-0.8051,-0.8292,-0.86,-0.8732,-0.9165,-0.9662,-0.9862,-1.0431,-1.0926,-1.09,-1.1215,-1.1486,-1.1453,-1.1583,-1.1744,-1.1818,-1.1929,-1.2077,-1.2268,-1.2305,-1.2198,-1.194,-1.1737,-1.1517,-1.1135,-1.0785,-1.042,-1.0141,-0.9811,-0.9631,-0.9595,-0.9673,-0.9706,-0.9706,-0.9758,-0.9836,-0.9895,-1.0007,-1.0239,-1.0598,-1.0871,-1.1276,-1.1785,-1.1687,-1.2227,0.0,0.0,0.0,0.0,0.0,0.0,0.0,0.9556,1.017,1.0669,1.0954,1.1166,1.1258,1.1059,1.0846,1.0878,1.0682,1.0451,1.0306,0.9968,0.9618,0.9215,0.8682,0.8287,0.8196,0.7667,0.6987,0.6219,0.5393,0.4368,0.3097,0.2219,0.1499,0.0803,0.0494,0.0247,0.0123,0.0123,0.0061,0.0,0.0,0.0,0.0,0.0,-0.0112,-0.0336,-0.039,-0.0656,-0.1168,-0.1947,-0.2623,-0.3277,-0.3879,-0.483,-0.5934,-0.6686,-0.7191,-0.7497,-0.7739,-0.7809,-0.7754,-0.7773,-0.7825,-0.7835,-0.7696,-0.7825,-0.7978,-0.7856,-0.7984,-0.8201,-0.846,-0.8684,-0.8869,-0.9107,-0.9493,-0.9858,-0.9832,-1.0248,-1.064,-1.0701,-1.0952,-1.1198,-1.1253,-1.1452,-1.177,-1.2164,-1.2224,-1.2181,-1.1984,-1.194,-1.1718,-1.1249,-1.0978,-1.0591,-0.9988,-0.9672,-0.953,-0.9588,-0.9588,-0.9588,-0.9588,-0.9588,-0.9647,-0.9766,-0.9766,-0.9947,-1.0368,-1.0488,-1.082,-1.1343,-1.1753,-1.2363,1.0286,0.9824,0.9684,0.9684,0.9709,0.9793,0.0,1.1254,1.2422,1.2692,1.3615,1.4234,1.385,1.3076,1.2291,1.1943,1.117,1.07,1.0651,1.0277,0.9869,0.9478,0.9032,0.8593,0.8153,0.81,0.7776,0.694,0.6098,0.5286,0.4508,0.3452,0.2533,0.185,0.148,0.1048,0.0432,0.0432,0.0306,0.0,0.0,0.0,0.0,0.0,0.0,-0.0056,-0.0272,-0.0428,-0.0585,-0.1385,-0.1768,-0.1919,-0.2674,-0.3377,-0.4079,-0.5586,-0.6442,-0.6945,-0.7188,-0.7431,-0.7651,-0.7758,-0.7801,-0.7784,-0.7501,-0.7598,-0.7699,-0.7594,-0.7724,-0.7984,-0.8201,-0.8416,-0.8675,-0.8882,-0.9314,-0.9643,-0.9641,-0.9809,-1.006,-1.0215,-1.0313,-1.043,-1.0798,-1.107,-1.1415,-1.1968,-1.204,-1.21,-1.2258,-1.2067,-1.1879,-1.1812,-1.131,-1.0728,-1.0118,-0.9925,-0.9767,-0.961,-0.9588,-0.9588,-0.9588,-0.9588,-0.9614,-0.9614,-0.9614,-0.9706,-0.9877,-0.9999,-1.0308,-1.0794,-1.12,-1.1868,1.1135,1.0998,1.1092,1.1242,1.1633,1.2131,1.2542,1.3399,1.425,1.4829,1.5179,1.5281,1.5003,1.4019,1.3041,0.0,1.1537,1.0889,1.0599,1.0273,0.9848,0.9561,0.8998,0.8488,0.8188,0.8167,0.7981,0.7476,0.7008,0.6356,0.5278,0.4488,0.3697,0.2897,0.2342,0.1973,0.1666,0.1296,0.0914,0.0595,0.0414,0.0174,0.0,0.0,0.0,0.0,-0.0108,-0.0267,-0.0426,-0.077,-0.1162,-0.1617,-0.1969,-0.2523,-0.3277,-0.4582,-0.5486,-0.6137,-0.6389,-0.6792,-0.7185,-0.7368,-0.7492,-0.7581,-0.752,-0.7533,-0.7472,-0.732,-0.7455,-0.768,-0.7764,-0.8069,-0.8376,-0.8464,-0.8863,-0.9139,-0.9022,-0.9206,-0.9375,-0.9332,-0.9517,-0.9728,-0.9899,-1.03,-1.0716,-1.1087,-1.1565,-1.1866,-1.18,-1.1862,-1.1883,-1.1615,-1.1089,-1.0616,-1.0242,-1.0085,-1.0016,-1.0019,-0.9948,-0.9899,-0.9899,-0.9716,-0.9588,-0.9588,-0.9588,-0.9673,-0.9799,-0.9844,-1.0076,-1.047,-1.0794,-1.1301,1.1481,1.1784,1.2318,1.2578,1.3302,1.4069,1.4527,1.5046,1.5614,1.6266,1.6169,1.584,1.5605,1.4659,1.3698,1.2771,1.1918,1.1142,1.0643,1.027,0.9831,0.946,0.8961,0.8529,0.8282,0.8191,0.8074,0.7852,0.7683,0.718,0.6175,0.5588,0.4986,0.4187,0.3512,0.3082,0.2898,0.221,0.1693,0.1354,0.0938,0.0577,0.0224,0.0056,0.0,0.0,0.0,-0.0106,-0.0317,-0.0358,-0.0758,-0.1263,-0.1415,-0.1869,-0.2574,-0.3428,-0.4331,-0.5186,-0.5486,-0.5969,-0.649,-0.6738,-0.6994,-0.7152,-0.7205,-0.7273,-0.7252,-0.7053,-0.719,-0.7415,-0.7462,-0.7768,-0.8028,-0.8157,-0.8464,-0.8694,-0.8605,-0.8766,-0.8836,-0.8702,-0.8907,-0.9119,-0.9176,-0.9603,-0.9993,-1.0116,-1.078,-1.13,-1.1306,-1.1608,-1.1704,-1.1325,-1.0962,-1.0641,-1.0383,-1.0228,-1.019,-1.0243,-1.0192,-1.0109,-1.005,-0.9851,-0.9709,-0.9614,-0.9588,-0.9647,-0.974,-0.974,-0.9895,-1.0162,-1.047,-1.0794,1.1309,1.2083,1.3151,1.3417,1.4274,1.5131,1.5403,1.5867,1.6326,1.6628,1.6621,1.6397,1.5704,1.5147,1.4367,1.3088,1.2186,1.1478,1.0855,1.0346,0.9819,0.9361,0.9159,0.8906,0.0,0.8221,0.8108,0.8161,0.7809,0.7556,0.7559,0.6767,0.6217,0.5845,0.517,0.4496,0.3881,0.322,0.2692,0.2353,0.1622,0.1141,0.0841,0.028,0.0,0.0,0.0,0.0,-0.0052,-0.0306,-0.0404,-0.0505,-0.101,-0.1364,-0.1667,-0.197,-0.2928,-0.4083,-0.4381,-0.4922,-0.5579,-0.5876,-0.6184,-0.6488,-0.6366,-0.6648,-0.6982,-0.6834,-0.6966,-0.7187,-0.7415,-0.7507,-0.7635,-0.8113,-0.8201,-0.8288,-0.8556,-0.8626,-0.8611,-0.8607,-0.863,-0.8684,-0.8864,-0.9123,-0.9301,-0.9259,-0.9672,-1.0259,-1.0992,-1.1274,-1.1304,-1.1025,-1.1055,-1.0928,-1.0518,-1.0353,-1.0242,-1.012,-1.0229,-1.0172,-0.9927,-1.0008,-0.9936,-0.9595,-0.9588,-0.9614,-0.9614,-0.9614,-0.9673,-0.9825,-1.0162,-1.0522,1.2269,1.3157,1.4008,1.4461,1.5234,1.591,1.6,1.6302,1.6531,1.6441,1.5802,1.5129,1.4745,1.3976,1.3257,1.2729,1.2216,1.1693,1.1076,1.0631,1.0101,0.9453,0.9134,0.0,0.0,0.0,0.0,0.8119,0.7913,0.7688,0.7506,0.7222,0.6896,0.6589,0.6158,0.5788,0.5542,0.4613,0.4005,0.3646,0.2461,0.1634,0.1177,0.0953,0.0667,0.0274,0.0269,0.0158,0.0,-0.0102,-0.0253,-0.0404,-0.0606,-0.096,-0.1364,-0.1415,-0.1969,-0.2722,-0.3181,-0.3841,-0.4495,-0.4728,-0.507,-0.5442,-0.5729,-0.5895,-0.6006,-0.6272,-0.6479,-0.6697,-0.6972,-0.7282,-0.7551,-0.768,-0.7981,-0.8245,-0.8336,-0.8371,-0.8416,-0.8416,-0.8408,-0.8426,-0.8488,-0.882,-0.9035,-0.9023,-0.9398,-0.9892,-1.0444,-1.0553,-1.0601,-1.0605,-1.0589,-1.0523,-1.045,-1.0479,-1.0523,-1.0567,-1.0518,-1.0413,-1.0179,-1.0048,-0.9843,-0.9595,-0.9588,-0.9588,-0.9588,-0.9588,-0.9614,-0.9673,-0.987,-1.0076,1.3068,1.4051,1.4974,1.5427,1.5988,1.6404,1.6314,1.6356,1.6308,1.594,1.4996,1.4103,1.3754,1.3263,1.2817,1.2372,1.2395,1.2243,1.1471,1.0966,1.0386,0.9738,0.9345,0.9114,0.0,0.0,0.0,0.8113,0.8007,0.7828,0.7566,0.7566,0.7508,0.7266,0.6957,0.6771,0.6771,0.5792,0.4961,0.4335,0.3338,0.252,0.1961,0.1727,0.1432,0.1029,0.0799,0.0575,0.0411,0.0203,0.0051,-0.0152,-0.0303,-0.0606,-0.096,-0.1111,-0.1415,-0.1816,-0.234,-0.2897,-0.3485,-0.3633,-0.3925,-0.429,-0.4747,-0.493,-0.5102,-0.5591,-0.5855,-0.6124,-0.6482,-0.6836,-0.7146,-0.7326,-0.7676,-0.7981,-0.8069,-0.8119,-0.817,-0.8256,-0.8252,-0.8299,-0.839,-0.8618,-0.8782,-0.8785,-0.9041,-0.9365,-0.9687,-0.9836,-0.9943,-1.0092,-1.0035,-1.0049,-1.0125,-1.026,-1.0348,-1.0434,-1.0529,-1.0497,-1.0244,-1.0109,-0.9934,-0.9717,-0.9646,-0.9588,-0.9588,-0.9588,-0.9588,-0.9614,-0.974,-0.9851,1.368,1.4769,1.6,1.6296,1.6549,1.6646,1.6356,1.606,1.5692,1.5143,1.4147,1.3207,1.2692,1.2936,1.2925,1.2092,1.2727,1.2998,1.2058,1.1324,1.0669,0.0,0.9846,0.0,0.0,0.0,0.0,0.8173,0.0,0.8053,0.7928,0.7933,0.7933,0.7872,0.7566,0.7447,0.7447,0.6563,0.5609,0.4597,0.4255,0.3751,0.3192,0.2591,0.2277,0.2235,0.1571,0.1286,0.1212,0.0707,0.0455,0.0404,-0.0152,-0.0354,-0.0455,-0.096,-0.1162,-0.1263,-0.1768,-0.2218,-0.2574,-0.2572,-0.2831,-0.3193,-0.3462,-0.3866,-0.4312,-0.4801,-0.5114,-0.5426,-0.5922,-0.6222,-0.6476,-0.6928,-0.7241,-0.7507,-0.7812,-0.7852,-0.794,-0.8157,-0.8201,-0.8292,-0.8532,-0.8572,-0.8612,-0.8612,-0.8587,-0.8653,-0.8873,-0.9122,-0.9345,-0.9527,-0.9487,-0.9527,-0.9676,-0.9718,-0.976,-0.9771,-1.0251,-1.0396,-1.0097,-1.0186,-1.0137,-0.9872,-0.9691,-0.9603,-0.9588,-0.9588,-0.9588,-0.9614,-0.9732,-0.9799,1.5252,1.6024,1.6604,1.7068,1.7086,1.6821,1.6151,1.5638,1.504,1.4111,1.2596,1.1375,1.1232,1.0818,1.0602,1.0952,1.1958,0.0,1.2172,1.1943,0.0,1.0573,1.0202,0.9842,0.9453,0.9357,0.0,0.0,0.8744,0.8575,0.8305,0.8244,0.818,0.7933,0.7811,0.775,0.775,0.7156,0.6455,0.5589,0.5406,0.5039,0.4424,0.4071,0.3615,0.3086,0.2702,0.2234,0.1766,0.1665,0.1363,0.096,0.0606,0.0253,-0.0152,-0.0505,-0.0707,-0.096,-0.1263,-0.1691,-0.2091,-0.2061,-0.2226,-0.2488,-0.2769,-0.2955,-0.3187,-0.3842,-0.417,-0.4505,-0.5227,-0.5542,-0.5794,-0.6292,-0.6553,-0.6789,-0.7231,-0.7448,-0.7669,-0.794,-0.8113,-0.8243,-0.8421,-0.852,-0.8612,-0.8612,-0.8615,-0.8599,-0.8662,-0.8721,-0.8828,-0.892,-0.9019,-0.914,-0.9305,-0.9295,-0.9398,-0.9645,-0.9645,-0.9668,-0.9738,-0.9859,-0.9811,-0.9542,-0.9725,-0.9703,-0.9458,-0.9562,-0.9588,-0.9614,-0.9647,-0.9647,1.6507,1.7008,1.7255,1.7436,1.7105,1.6435,1.5282,1.4515,1.3682,1.2385,1.0869,0.9817,0.9817,0.9637,0.9833,1.0869,1.2029,0.0,1.3137,1.2846,1.238,1.1626,1.1017,1.0442,1.0055,0.987,0.9668,0.0,0.9172,0.8851,0.861,0.8491,0.8308,0.8119,0.7994,0.7847,0.7799,0.7431,0.6993,0.637,0.6263,0.5935,0.5487,0.5127,0.4766,0.4357,0.0,0.3337,0.2874,0.2621,0.2219,0.1716,0.1414,0.101,0.0505,0.0101,-0.0202,-0.0505,-0.0909,-0.1254,-0.1636,-0.1751,-0.1825,-0.1955,-0.2192,-0.2287,-0.2429,-0.3046,-0.3305,-0.3566,-0.4364,-0.4678,-0.4936,-0.5454,-0.5836,-0.6102,-0.6378,-0.6742,-0.7151,-0.7615,-0.7932,-0.814,-0.8325,-0.8401,-0.8497,-0.8512,-0.85,-0.8524,-0.8603,-0.8501,-0.8516,-0.8655,-0.859,-0.8602,-0.8799,-0.8705,-0.8725,-0.8968,-0.8958,-0.9044,-0.9231,-0.9383,-0.9408,-0.9353,-0.9628,-0.9702,-0.9583,-0.9794,-0.9857,-0.9727,-0.98,-0.9753,1.7491,1.7756,1.7817,1.7587,1.6875,1.5801,1.4171,1.3151,1.2095,1.046,0.9293,0.856,0.8596,0.9041,0.9759,1.0927,1.2265,1.3411,1.4074,1.3644,1.3131,1.2851,1.2041,1.1333,1.1031,1.0668,1.0304,0.9943,0.952,0.9143,0.897,0.8671,0.8491,0.843,0.8119,0.7884,0.7725,0.7587,0.7351,0.6963,0.6832,0.6659,0.6379,0.5971,0.5711,0.5677,0.0,0.0,0.4133,0.3677,0.3124,0.2573,0.232,0.1867,0.1313,0.0808,0.0404,0.0101,-0.0404,-0.0808,-0.1108,-0.1438,-0.1511,-0.1538,-0.1779,-0.1875,-0.1971,-0.2401,-0.2491,-0.2679,-0.3403,-0.3726,-0.4,-0.4484,-0.4998,-0.5367,-0.5414,-0.5887,-0.6508,-0.7146,-0.7513,-0.7832,-0.8085,-0.8211,-0.8245,-0.8333,-0.8386,-0.8456,-0.8577,-0.8442,-0.8402,-0.8543,-0.8315,-0.815,-0.8261,-0.8102,-0.8042,-0.8152,-0.8297,-0.8479,-0.8685,-0.8817,-0.8971,-0.915,-0.9379,-0.9561,-0.9688,-1.0006,-1.0073,-0.9895,-1.0005,-0.9935,1.8269,1.8179,1.7865,1.7817,1.6875,1.5481,1.367,1.2427,1.1242,0.9636,0.8492,0.7848,0.8018,0.8465,0.8908,0.9153,1.0985,1.249,1.2842,1.3211,1.3516,1.3591,1.2916,1.2359,1.1997,1.145,0.0,0.0,1.0279,0.9852,0.9275,0.9156,0.8915,0.843,0.8369,0.8172,0.7842,0.7627,0.7449,0.737,0.7207,0.7099,0.7043,0.6672,0.6443,0.6265,0.5862,0.0,0.4989,0.4887,0.4384,0.3681,0.3428,0.2874,0.217,0.1816,0.1413,0.096,0.0657,0.0202,-0.0303,-0.1057,-0.1405,-0.1601,-0.1651,-0.1651,-0.1701,-0.2001,-0.2077,-0.2157,-0.2787,-0.2927,-0.3011,-0.3494,-0.3849,-0.4136,-0.4514,-0.5223,-0.5821,-0.6064,-0.653,-0.6966,-0.7171,-0.7621,-0.7959,-0.7977,-0.823,-0.8404,-0.8422,-0.8492,-0.8502,-0.8347,-0.8309,-0.8231,-0.8155,-0.7941,-0.7888,-0.8043,-0.7799,-0.7827,-0.812,-0.8266,-0.8339,-0.8295,-0.8833,-0.9095,-0.9049,-0.9347,-0.9582,-0.9815,-0.9844,-0.9902,1.8541,1.8396,1.8022,1.7738,1.667,1.5089,1.277,1.1429,1.0136,0.8287,0.7406,0.7037,0.7285,0.7964,0.8644,0.9059,1.0748,1.2282,1.31,1.3682,1.4213,1.474,1.4139,1.3555,1.325,1.2535,1.1877,1.1571,1.1091,1.0425,0.9579,0.9396,0.9095,0.8671,0.8545,0.8386,0.8081,0.7777,0.7593,0.7421,0.7241,0.721,0.7207,0.6984,0.6787,0.6674,0.6445,0.0,0.572,0.5665,0.524,0.4638,0.4485,0.393,0.3177,0.2924,0.2471,0.1969,0.1564,0.1161,0.0706,0.005,-0.0707,-0.1415,-0.1415,-0.1465,-0.1617,-0.1768,-0.1757,-0.1848,-0.2267,-0.2341,-0.2412,-0.2779,-0.3062,-0.3385,-0.3871,-0.4411,-0.4865,-0.5205,-0.562,-0.6043,-0.6391,-0.6698,-0.7021,-0.7381,-0.753,-0.7685,-0.8015,-0.8042,-0.8129,-0.8442,-0.8357,-0.8214,-0.8064,-0.779,-0.7655,-0.7742,-0.7504,-0.7402,-0.7568,-0.7745,-0.7823,-0.7788,-0.8228,-0.8546,-0.8707,-0.9113,-0.9315,-0.9381,-0.9685,-0.9813,1.8553,1.8493,1.8161,1.7618,1.6441,1.4721,1.2012,1.0587,0.9221,0.714,0.6534,0.6455,0.6661,0.7544,0.8393,0.8999,1.0384,1.1863,1.3198,1.3861,1.4585,1.5603,1.5258,1.4862,1.4629,1.3772,0.0,1.2659,1.1933,0.0,0.9943,0.964,0.9323,0.893,0.8765,0.8575,0.8254,0.802,0.7732,0.7391,0.7326,0.7265,0.7207,0.7117,0.7008,0.6975,0.6782,0.0,0.0,0.6167,0.5814,0.5391,0.5391,0.4939,0.4234,0.4031,0.3578,0.3077,0.2572,0.2218,0.1865,0.1312,0.0202,-0.096,-0.101,-0.1263,-0.1516,-0.1516,-0.1566,-0.1667,-0.1869,-0.1921,-0.197,-0.2271,-0.2473,-0.2775,-0.3226,-0.3578,-0.3882,-0.4282,-0.4636,-0.4987,-0.5489,-0.5689,-0.5959,-0.6505,-0.6582,-0.6785,-0.729,-0.732,-0.7528,-0.8212,-0.8225,-0.8189,-0.8085,-0.7748,-0.7561,-0.7568,-0.7346,-0.7172,-0.716,-0.7288,-0.7346,-0.733,-0.7657,-0.7982,-0.8296,-0.8786,-0.8972,-0.8895,-0.9371,-0.9565,1.8348,1.8493,1.8161,1.7618,1.6308,1.4449,1.1748,1.0316,0.8951,0.6867,0.6407,0.6401,0.6425,0.7254,0.791,0.7782,0.9065,1.0551,1.1876,1.2698,1.3796,1.5559,1.5873,1.5941,1.5941,1.5233,1.46,1.4047,0.0,0.0,1.0304,1.0243,0.9878,0.9086,0.9066,0.8825,0.8359,0.8211,0.8019,0.7729,0.7609,0.7438,0.721,0.7199,0.7139,0.6983,0.6961,0.0,0.0,0.6557,0.6286,0.5942,0.5942,0.5591,0.509,0.5039,0.4734,0.423,0.393,0.3478,0.2972,0.2421,0.1161,-0.0152,-0.0404,-0.0808,-0.1212,-0.1212,-0.1415,-0.1617,-0.1617,-0.1617,-0.1718,-0.197,-0.2071,-0.2172,-0.2422,-0.2724,-0.2927,-0.2976,-0.3377,-0.383,-0.4133,-0.4583,-0.5033,-0.5327,-0.5682,-0.5957,-0.6117,-0.6415,-0.6747,-0.72,-0.7664,-0.8029,-0.8268,-0.798,-0.7767,-0.7791,-0.7429,-0.7155,-0.7007,-0.6978,-0.6903,-0.6778,-0.7101,-0.7363,-0.7587,-0.7949,-0.8258,-0.8554,-0.879,-0.9041,1.7364,1.7762,1.7678,1.7141,1.6048,1.4364,1.1495,1.0222,0.8999,0.6854,0.6432,0.6447,0.641,0.7128,0.7648,0.7401,0.8516,0.9943,1.1441,1.2475,1.3778,1.5618,1.6185,1.6419,0.0,0.0,1.5384,1.4818,0.0,0.0,1.2406,1.1291,1.0554,1.0254,0.9833,0.9476,0.9128,0.8808,0.8512,0.8233,0.7794,0.7551,0.7438,0.7268,0.7185,0.7139,0.7016,0.0,0.0,0.6679,0.6489,0.6337,0.6266,0.5989,0.5691,0.5691,0.5438,0.5083,0.4836,0.4585,0.4282,0.3578,0.2823,0.1916,0.0707,0.0051,-0.0303,-0.0606,-0.0909,-0.1162,-0.1314,-0.1465,-0.1617,-0.1718,-0.1768,-0.1768,-0.1919,-0.2121,-0.2323,-0.2323,-0.2624,-0.2975,-0.3228,-0.3479,-0.3731,-0.4182,-0.4312,-0.4518,-0.5045,-0.5134,-0.5446,-0.6177,-0.7085,-0.7754,-0.8044,-0.7953,-0.7827,-0.7816,-0.7665,-0.7419,-0.7131,-0.7015,-0.6861,-0.6709,-0.6701,-0.6811,-0.7031,-0.7237,-0.7526,-0.7912,-0.8177,-0.8571,1.6417,1.6986,1.7002,1.6477,1.5472,1.388,1.1239,1.0,0.8852,0.6896,0.6532,0.6526,0.6447,0.6889,0.7255,0.7206,0.8196,0.9462,1.0833,1.2073,1.3459,1.5004,0.0,1.6417,1.6494,1.6414,1.6124,1.5585,0.0,0.0,1.4441,1.2886,1.182,1.1356,1.0833,1.037,1.0036,0.9695,0.9309,0.8871,0.8377,0.8045,0.7881,0.749,0.7324,0.7318,0.0,0.0,0.0,0.676,0.6651,0.6605,0.6433,0.6287,0.6139,0.6139,0.5989,0.5787,0.5541,0.5441,0.534,0.4585,0.4234,0.378,0.2319,0.1362,0.0656,0.0303,-0.0101,-0.0505,-0.0859,-0.1162,-0.1364,-0.1465,-0.1566,-0.1617,-0.1617,-0.1768,-0.187,-0.187,-0.202,-0.2271,-0.2523,-0.2575,-0.2725,-0.3176,-0.3189,-0.3335,-0.3895,-0.3915,-0.4254,-0.511,-0.6005,-0.6872,-0.7602,-0.7679,-0.7701,-0.7777,-0.7709,-0.7524,-0.7203,-0.7102,-0.6955,-0.6714,-0.6558,-0.6535,-0.6609,-0.6778,-0.6975,-0.726,-0.7591,-0.8052,1.5632,1.6259,1.6169,1.5644,1.4412,1.2814,1.0936,0.9556,0.8333,0.6979,0.6694,0.6666,0.6526,0.6505,0.6668,0.7115,0.8045,0.8993,0.9811,1.1285,1.2626,1.3441,1.4938,1.6,1.6266,1.6734,1.6844,0.0,0.0,0.0,1.6059,1.496,1.3683,1.2144,1.189,1.1586,1.1076,1.1076,1.0633,0.9761,0.953,0.9085,0.8484,0.7881,0.7607,0.0,0.0,0.0,0.0,0.6853,0.6728,0.6605,0.6433,0.6387,0.6387,0.6387,0.6387,0.6337,0.6092,0.5992,0.5892,0.534,0.519,0.509,0.4531,0.3073,0.1563,0.1563,0.1009,0.0253,-0.0253,-0.0606,-0.0859,-0.1162,-0.1415,-0.1617,-0.1617,-0.1617,-0.1617,-0.1617,-0.1617,-0.1718,-0.1971,-0.2022,-0.2122,-0.2371,-0.2421,-0.2504,-0.2703,-0.2892,-0.326,-0.3931,-0.4215,-0.5097,-0.6959,-0.7177,-0.7363,-0.7698,-0.7494,-0.7328,-0.7203,-0.7187,-0.7049,-0.6714,-0.6688,-0.6603,-0.642,-0.6609,-0.6708,-0.6708,-0.7036,-0.7498,1.3262,1.3932,1.4026,1.3478,1.2751,1.1709,0.9838,0.8966,0.8197,0.6963,0.6772,0.6793,0.6666,0.6568,0.6779,0.7677,0.8157,0.8909,1.025,1.1339,1.2343,1.3151,1.4811,1.6205,0.0,0.0,1.7309,0.0,0.0,0.0,1.672,1.5828,1.4813,1.3735,1.3094,1.2657,1.2332,1.21,1.1664,1.1021,1.0515,0.9966,0.9372,0.8982,0.0,0.0,0.0,0.0,0.0,0.7285,0.707,0.6867,0.674,0.6539,0.6387,0.6387,0.6387,0.6387,0.6287,0.6287,0.6237,0.5842,0.5741,0.5691,0.5334,0.428,0.3075,0.237,0.1715,0.116,0.0807,0.0353,-0.0051,-0.0303,-0.0707,-0.1111,-0.1263,-0.1465,-0.1617,-0.1617,-0.1617,-0.1617,-0.1718,-0.1718,-0.1768,-0.1818,-0.1869,-0.1906,-0.2116,-0.2197,-0.2449,-0.2967,-0.3215,-0.4091,-0.5994,-0.6345,-0.6567,-0.6854,-0.704,-0.7064,-0.6855,-0.6935,-0.6942,-0.6828,-0.6744,-0.6664,-0.6595,-0.6539,-0.6576,-0.6708,-0.7195,-0.7493,1.1784,1.2388,1.2495,1.1978,1.148,1.0719,0.9271,0.8619,0.8056,0.7156,0.7178,0.7242,0.689,0.6956,0.7223,0.7708,0.8411,0.9155,0.9841,1.1062,1.2289,1.3435,1.4769,0.0,0.0,1.7485,0.0,0.0,0.0,0.0,1.7055,1.6468,1.585,1.5132,1.4363,1.3786,1.3527,1.3349,1.2916,1.2223,1.1769,1.1227,1.0637,1.0131,0.0,0.0,0.0,0.0,0.0,0.7736,0.7443,0.7277,0.7042,0.6792,0.6539,0.6539,0.6487,0.6387,0.6387,0.6387,0.6387,0.6189,0.6139,0.6089,0.5837,0.5138,0.4284,0.3376,0.2822,0.242,0.2066,0.1462,0.0959,0.0656,0.0101,-0.0404,-0.0707,-0.096,-0.1162,-0.1263,-0.1313,-0.1313,-0.1313,-0.1364,-0.1465,-0.1465,-0.1516,-0.166,-0.179,-0.1776,-0.1946,-0.2276,-0.2426,-0.3033,-0.4394,-0.5072,-0.5621,-0.6107,-0.6317,-0.6459,-0.6563,-0.6599,-0.6661,-0.6753,-0.66,-0.6542,-0.6474,-0.6368,-0.6449,-0.6708,-0.7031,-0.7232,0.0,1.1483,1.1434,1.1053,1.0476,0.9813,0.912,0.8461,0.0,0.7518,0.7823,0.7921,0.7177,0.7593,0.7928,0.7473,0.8833,0.9701,0.8902,1.0598,1.2518,0.0,1.4805,0.0,1.7304,1.7436,0.0,0.0,0.0,0.0,1.7074,1.6815,1.6543,1.626,1.5462,1.4911,1.4659,1.4659,1.4229,1.3369,1.3137,1.2698,1.211,1.1265,0.0,0.0,0.0,0.0,0.0,0.8196,0.7932,0.7817,0.7434,0.7138,0.6895,0.6895,0.6742,0.6487,0.6487,0.6487,0.6437,0.6437,0.6387,0.6337,0.6089,0.5691,0.5138,0.4632,0.428,0.3982,0.3475,0.2722,0.2067,0.1815,0.111,0.0454,0.0151,-0.0101,-0.0353,-0.0657,-0.0707,-0.0707,-0.0707,-0.0909,-0.1111,-0.1111,-0.1364,-0.1566,-0.1566,-0.1592,-0.1672,-0.1866,-0.1804,-0.1992,-0.2496,-0.3581,-0.4526,-0.5297,-0.537,-0.5613,-0.6127,-0.6069,-0.6132,-0.6384,-0.6283,-0.6194,-0.6073,-0.6134,-0.6313,-0.6642,-0.6675,-0.6745,0.9737,0.0,0.9984,0.9604,0.9295,0.8974,0.0,0.819,0.7953,0.7802,0.8276,0.8428,0.7553,0.8096,0.8648,0.8532,0.9641,1.0353,0.9901,1.1154,1.2765,1.4407,1.5083,1.5873,1.7068,1.7002,0.0,0.0,0.0,1.6857,1.6797,1.6531,1.626,1.5988,1.5623,1.5376,1.5315,1.5261,1.4934,1.4277,1.4223,1.3894,1.329,1.2744,0.0,0.0,0.0,0.0,0.9874,0.9604,0.9134,0.8578,0.8443,0.8134,0.7739,0.7739,0.769,0.7587,0.7385,0.7185,0.6936,0.6537,0.6387,0.6387,0.6337,0.6089,0.5739,0.5434,0.5135,0.4887,0.4786,0.4131,0.3478,0.3175,0.252,0.1816,0.1311,0.1009,0.0706,0.0202,0.0303,0.0353,0.0151,0.0051,-0.0051,-0.0253,-0.0707,-0.1061,-0.1263,-0.146,-0.1597,-0.1672,-0.1634,-0.1694,-0.1946,-0.2766,-0.3396,-0.3733,-0.4156,-0.4495,-0.4599,-0.509,-0.5373,-0.5422,-0.5591,-0.5759,-0.5859,-0.5795,-0.5851,-0.6086,-0.6247,-0.6346,0.9217,0.9334,0.9405,0.9157,0.9044,0.8889,0.8557,0.8427,0.8337,0.8201,0.8628,0.8845,0.822,0.873,0.9264,0.9254,1.0173,1.1115,1.1808,1.2363,1.33,1.4863,1.5233,1.5655,0.0,0.0,0.0,0.0,0.0,1.6592,1.6344,1.6187,1.5928,1.5547,1.5396,1.5399,1.5505,1.5511,1.5294,1.4805,1.4805,1.4526,1.3935,1.3555,1.3127,0.0,0.0,0.0,1.0997,1.0699,1.0212,0.9715,0.9567,0.927,0.892,0.892,0.8775,0.8528,0.8375,0.7982,0.7487,0.6936,0.6686,0.6539,0.6437,0.6289,0.6139,0.5987,0.5789,0.5591,0.5591,0.5037,0.4535,0.4383,0.3828,0.3175,0.2621,0.2318,0.1965,0.1413,0.1412,0.1513,0.1363,0.1211,0.106,0.0757,0.0303,-0.0202,-0.0606,-0.0859,-0.1157,-0.1395,-0.1358,-0.1424,-0.1644,-0.2008,-0.242,-0.2871,-0.3194,-0.3478,-0.3698,-0.4091,-0.4431,-0.47,-0.492,-0.5104,-0.5259,-0.5285,-0.5386,-0.5524,-0.5752,-0.5818,0.9106,0.9228,0.9366,0.9336,0.9325,0.9273,0.9028,0.8916,0.8834,0.8643,0.9,0.9249,0.8953,0.9499,1.0019,1.0144,1.1123,1.2462,1.4232,1.417,1.4439,1.5716,1.5692,0.0,0.0,0.0,0.0,0.0,0.0,1.6357,1.5801,1.5771,1.5547,1.5065,1.5046,1.5155,1.5378,1.5421,1.5335,1.5122,1.5122,1.4849,1.4327,1.4044,1.3763,0.0,0.0,0.0,1.2122,1.1683,1.1292,1.0998,1.0801,1.0551,1.0297,1.0297,1.0002,0.9608,0.9509,0.892,0.8134,0.7637,0.7238,0.6992,0.6686,0.6537,0.6537,0.6487,0.6289,0.6039,0.6039,0.5691,0.534,0.534,0.4935,0.4429,0.3929,0.3677,0.3325,0.2823,0.2723,0.2773,0.2723,0.252,0.2268,0.1966,0.1462,0.0907,0.0303,-0.005,-0.0404,-0.096,-0.1025,-0.1097,-0.1383,-0.1332,-0.157,-0.2199,-0.2334,-0.2598,-0.3078,-0.319,-0.3474,-0.4017,-0.418,-0.4326,-0.447,-0.4701,-0.485,-0.4921,-0.5126,-0.5226,0.9106,0.9353,0.9696,0.99,0.9969,0.9927,0.977,0.9465,0.9208,0.9116,0.9594,0.9922,0.9485,1.0432,1.1531,1.2211,1.4022,1.5772,0.0,0.0,1.7066,1.756,0.0,0.0,0.0,0.0,0.0,0.0,0.0,1.5762,1.5246,1.5228,1.5089,1.4787,1.4775,1.4793,1.4835,1.5059,1.5116,1.5116,1.5116,1.5041,1.4943,1.4471,1.4199,0.0,0.0,1.3234,1.2905,1.2856,1.2565,1.2175,1.2127,1.1927,1.1683,1.1683,1.1629,1.1482,1.0783,1.0047,0.9262,0.8726,0.8379,0.8084,0.758,0.7235,0.7039,0.6792,0.6539,0.6337,0.6337,0.6089,0.5892,0.5892,0.5639,0.5334,0.5037,0.4939,0.4736,0.418,0.428,0.4381,0.4128,0.4078,0.3877,0.3376,0.2821,0.2216,0.1462,0.0908,0.0404,-0.0151,-0.039,-0.062,-0.0906,-0.0827,-0.0852,-0.0987,-0.157,-0.2092,-0.2492,-0.2481,-0.2754,-0.3329,-0.3256,-0.3471,-0.3928,-0.3966,-0.4032,-0.4161,-0.4389,-0.4453,0.871,0.9235,0.9775,1.0127,1.0051,0.9922,1.0068,0.9977,0.9875,0.9986,1.025,1.0449,1.0379,1.1418,1.2893,1.4657,1.6173,1.7581,1.8822,1.8722,1.8655,0.0,0.0,0.0,0.0,0.0,0.0,0.0,0.0,0.0,1.5488,1.5476,1.5307,1.4947,1.4789,1.4686,1.4686,1.4661,1.4745,1.4896,1.4896,1.4817,1.4666,1.4393,1.429,1.4285,0.0,1.3775,1.3539,1.3539,1.3298,1.3007,1.3007,1.291,1.2807,1.2662,1.2613,1.2516,1.1873,1.1233,1.0596,1.0051,0.9509,0.897,0.8574,0.8177,0.7836,0.7686,0.7039,0.6387,0.6387,0.6287,0.6239,0.6239,0.6137,0.5937,0.5691,0.5641,0.5541,0.5133,0.5133,0.5186,0.5083,0.5033,0.4933,0.4535,0.4031,0.3426,0.2772,0.2218,0.1613,0.0958,0.0731,0.0476,-0.0095,-0.0138,-0.0269,-0.0673,-0.1166,-0.1563,-0.1858,-0.1926,-0.2175,-0.2565,-0.2688,-0.2821,-0.3045,-0.333,-0.3457,-0.3466,-0.3753,-0.3861,0.8262,0.8931,0.9629,0.9953,0.9997,1.0079,1.0484,1.0576,1.0664,1.0967,1.1026,1.113,1.1417,1.2842,1.4675,1.6838,1.8219,1.9436,2.0497,2.0412,2.0304,2.0549,0.0,0.0,0.0,0.0,0.0,0.0,0.0,0.0,1.602,1.6007,1.5811,1.5369,1.5166,1.5016,1.4975,1.4682,1.4546,1.4618,1.4618,1.4509,1.4298,1.4298,1.4298,1.4298,1.4298,1.416,1.3973,1.3973,1.3877,1.3684,1.3684,1.3684,1.3684,1.3437,1.334,1.3249,1.2856,1.2419,1.1878,1.1424,1.0788,1.0199,0.9809,0.9316,0.892,0.8726,0.7879,0.6983,0.6734,0.6634,0.6587,0.6587,0.6537,0.6439,0.6242,0.6142,0.6039,0.5837,0.5787,0.5787,0.5787,0.5787,0.5687,0.5441,0.5039,0.4587,0.4031,0.353,0.2875,0.2168,0.1948,0.1565,0.0893,0.0822,0.0538,-0.009,-0.0625,-0.1025,-0.1158,-0.1367,-0.1543,-0.1752,-0.2045,-0.221,-0.2193,-0.2729,-0.2911,-0.2835,-0.3167,-0.3328,0.7963,0.8482,0.9142,0.9189,1.0008,1.0929,1.1329,1.1421,1.154,1.1911,1.1984,1.2113,1.2507,1.5111,1.7396,1.8181,2.0485,2.2294,2.2536,0.0,2.2557,0.0,0.0,0.0,0.0,0.0,0.0,0.0,0.0,0.0,1.6583,1.6522,1.6414,1.615,1.6096,1.5961,1.5737,1.5439,1.4975,1.4328,1.4328,1.4316,1.4298,1.4298,1.4298,1.4298,1.4298,1.4298,1.425,1.425,1.425,1.425,1.425,1.425,1.425,1.4202,1.4064,1.3835,1.3786,1.3443,1.2953,1.271,1.2467,1.2073,1.1292,1.0841,1.0489,0.9706,0.9262,0.8768,0.7779,0.7335,0.7138,0.7138,0.6939,0.6742,0.6745,0.6539,0.6387,0.6337,0.6337,0.6337,0.6337,0.6337,0.6237,0.5992,0.5892,0.5691,0.514,0.464,0.4085,0.3528,0.2973,0.2486,0.2121,0.2063,0.1926,0.166,0.0309,-0.0436,-0.048,-0.0669,-0.0857,-0.1061,-0.1273,-0.1436,-0.1553,-0.2102,-0.2336,-0.2278,-0.2586,-0.2753,0.7943,0.8337,0.8919,0.9516,1.0379,1.1322,1.2218,1.2824,1.3513,1.4677,1.4509,1.4164,1.4177,1.5991,1.7972,1.9465,2.1416,2.2942,2.3586,2.3556,0.0,0.0,0.0,0.0,0.0,0.0,0.0,0.0,0.0,0.0,0.0,1.8056,1.787,1.7591,1.7311,1.699,1.6723,1.6473,1.6042,1.548,1.4873,1.4442,1.4298,1.4298,1.4298,1.4298,1.4298,1.4298,1.4298,1.4298,1.4298,1.4298,1.4298,1.4298,1.4298,1.4298,1.425,1.416,1.416,1.3925,1.3588,1.3497,1.3201,1.2759,1.2467,1.2122,1.1727,1.1433,1.1033,1.0337,0.8768,0.8276,0.8131,0.7985,0.7739,0.749,0.7338,0.7086,0.6836,0.6689,0.6642,0.6589,0.6437,0.6387,0.6387,0.6287,0.6089,0.5942,0.5741,0.5388,0.4987,0.4636,0.3896,0.3326,0.3102,0.2822,0.254,0.2378,0.131,0.0565,0.0304,0.0042,-0.0163,-0.0366,-0.0557,-0.0782,-0.093,-0.1264,-0.1486,-0.1579,-0.1888,-0.2016,0.7813,0.8232,0.8874,0.9715,1.0783,1.2107,1.4012,1.461,1.5265,1.7054,1.6877,1.6225,1.5748,0.0,0.0,0.0,2.1522,2.2657,2.3639,0.0,0.0,0.0,0.0,0.0,0.0,0.0,0.0,0.0,0.0,0.0,0.0,1.9347,0.0,0.0,1.8463,1.8134,1.8017,1.7533,1.7162,1.6889,1.5961,1.5207,1.4627,1.4627,1.4634,1.4544,1.4544,1.4544,1.4544,1.4442,1.4394,1.4298,1.4298,1.4298,1.4298,1.4298,1.4298,1.4298,1.4298,1.416,1.4022,1.4022,1.3775,1.3485,1.3389,1.3152,1.2856,1.2662,1.236,1.1765,1.0395,0.9756,0.9361,0.9072,0.8775,0.8478,0.8273,0.7879,0.7537,0.7341,0.7188,0.6989,0.6786,0.6684,0.6637,0.6539,0.6392,0.6229,0.6095,0.5869,0.5613,0.5253,0.4689,0.426,0.4047,0.3674,0.3375,0.3176,0.2459,0.1799,0.1191,0.0862,0.0644,0.0523,0.0238,0.0,-0.0116,-0.0447,-0.0689,-0.0827,-0.1134,-0.1244,0.7478,0.8099,0.8983,0.9669,1.1184,1.3419,1.6856,1.6808,1.6655,1.877,1.885,1.8192,1.7108,1.7908,0.0,2.0319,2.086,2.1548,0.0,0.0,0.0,0.0,0.0,0.0,0.0,0.0,0.0,0.0,0.0,0.0,0.0,0.0,0.0,0.0,1.9533,1.939,1.9513,1.8627,1.8273,1.838,1.7645,1.6669,1.5432,1.5391,1.5302,1.5131,1.5131,1.5131,1.5083,1.4838,1.4544,1.4298,1.4298,1.4298,1.4298,1.4298,1.4298,1.4298,1.4298,1.4298,1.4298,1.4298,1.4298,1.425,1.3979,1.3883,1.3786,1.3249,1.3098,1.305,1.2861,1.1819,1.0734,1.0458,1.001,0.9608,0.9608,0.8973,0.8432,0.8432,0.7982,0.763,0.763,0.7385,0.7138,0.6842,0.6792,0.6699,0.6331,0.6122,0.5805,0.5348,0.5327,0.5241,0.5027,0.4837,0.4572,0.421,0.3912,0.3245,0.2237,0.1826,0.1607,0.1607,0.1139,0.0893,0.0909,0.0295,0.0,0.0,-0.034,-0.0504,0.7678,0.9048,1.0785,1.1735,1.3166,1.5407,1.9465,1.9431,1.8996,0.0,2.0576,1.9841,1.8477,1.9202,0.0,2.0912,2.1686,2.2426,0.0,0.0,0.0,0.0,0.0,0.0,0.0,0.0,0.0,0.0,0.0,0.0,0.0,0.0,0.0,0.0,1.9817,1.9592,1.9426,1.9448,1.9326,1.9024,1.9087,1.8187,1.6466,1.6292,1.6204,1.6163,1.6163,1.6062,1.5818,1.5391,1.5153,1.5057,1.4927,1.4838,1.4838,1.4838,1.4742,1.4592,1.4592,1.4442,1.4298,1.4298,1.4298,1.4298,1.4208,1.416,1.416,1.401,1.3962,1.3865,1.3636,1.3292,1.2754,1.178,1.1243,1.0895,1.0551,1.0109,0.9715,0.9316,0.9114,0.8867,0.8524,0.823,0.7997,0.7791,0.7488,0.71,0.6682,0.6601,0.6465,0.625,0.61,0.5944,0.5783,0.5547,0.5241,0.4838,0.4755,0.4072,0.2766,0.2542,0.2392,0.2235,0.1961,0.1706,0.1515,0.1218,0.0971,0.077,0.0511,0.0403,0.858,0.9987,1.1737,1.3073,1.4539,1.6662,2.07,2.1666,2.1821,2.2258,2.2198,2.1732,2.044,2.0709,0.0,2.1759,2.2087,0.0,0.0,0.0,0.0,0.0,0.0,0.0,0.0,0.0,0.0,0.0,0.0,0.0,0.0,0.0,0.0,0.0,1.9997,1.9853,1.9827,1.9839,1.986,1.9894,1.9941,1.9389,1.8373,1.787,1.7505,1.7326,1.7239,1.7044,1.6756,1.6332,1.6096,1.5994,1.5784,1.5642,1.5547,1.5547,1.5309,1.4968,1.4968,1.4825,1.464,1.464,1.464,1.464,1.464,1.464,1.4567,1.4368,1.4363,1.4351,1.3862,1.3838,1.3701,1.2786,1.237,1.2122,1.178,1.1438,1.1096,1.0645,1.0285,0.9941,0.9502,0.9158,0.8839,0.8541,0.7953,0.7439,0.7268,0.7119,0.6959,0.6874,0.6776,0.663,0.6491,0.6207,0.5872,0.5502,0.5364,0.4793,0.3766,0.3398,0.3098,0.2901,0.2642,0.2407,0.2238,0.1928,0.17,0.1516,0.1254,0.1109,0.9854,1.0933,1.2278,1.4,1.5806,1.7955,2.109,2.3442,2.4714,2.3668,2.3698,2.3589,2.266,2.2294,2.2301,2.2887,0.0,0.0,0.0,0.0,0.0,0.0,0.0,0.0,0.0,0.0,0.0,0.0,0.0,0.0,0.0,0.0,0.0,2.0411,2.0021,2.0003,2.0402,1.9893,1.9967,0.0,2.0271,2.0254,2.0639,1.9724,1.9026,1.8565,1.835,1.8102,1.7825,1.7561,1.726,1.6937,1.6725,1.649,1.6249,1.6249,1.592,1.5448,1.5448,1.5319,1.5149,1.5149,1.5095,1.5102,1.5102,1.5102,1.5003,1.4462,1.4474,1.4502,1.3777,1.3734,1.3883,1.3605,1.3327,1.308,1.308,1.2743,1.2356,1.206,1.1456,1.0839,1.0602,1.0173,0.9676,0.9094,0.8352,0.7896,0.7995,0.7707,0.7482,0.7482,0.7482,0.7424,0.7282,0.6917,0.6557,0.6252,0.5868,0.5493,0.5126,0.4307,0.3798,0.3593,0.3251,0.3023,0.2939,0.2482,0.2282,0.2255,0.1916,0.1748,1.0267,1.2149,1.4276,1.5894,1.9649,2.2963,2.3187,2.4509,2.5495,2.4903,2.4724,2.4542,2.4123,2.3997,2.3973,2.4125,0.0,0.0,0.0,0.0,0.0,0.0,0.0,0.0,0.0,0.0,0.0,0.0,0.0,0.0,0.0,0.0,0.0,1.9567,1.9476,1.9476,1.9558,1.9724,1.9935,0.0,2.0292,2.044,2.054,2.0188,2.0011,1.9874,1.9629,1.9282,1.893,1.8481,1.8,1.7432,1.7226,1.7003,1.6729,1.6557,1.6289,1.6012,1.5847,1.5628,1.5395,1.5395,1.5318,1.5189,1.5189,1.5053,1.4858,1.4559,1.4494,1.4468,1.414,1.4107,1.4124,1.4043,1.3545,1.3032,1.2847,1.2703,1.2564,1.2286,1.2099,1.1923,1.1692,1.138,1.0917,1.0062,0.9518,0.9147,0.896,0.8838,0.8769,0.8769,0.8769,0.8712,0.8544,0.8295,0.7912,0.7371,0.6961,0.6522,0.5977,0.5007,0.4426,0.4301,0.3749,0.3401,0.3285,0.2986,0.2832,0.2824,0.2857,0.2788,1.1032,1.2971,1.5237,1.7912,2.1638,2.447,2.3574,2.4694,2.5812,2.5591,2.538,2.5211,2.5031,2.4935,2.4807,0.0,0.0,0.0,0.0,0.0,0.0,0.0,0.0,0.0,0.0,0.0,0.0,0.0,0.0,0.0,0.0,1.9591,1.9531,1.9311,1.9118,1.9109,1.9301,1.9338,1.95,1.9893,2.0095,2.0296,2.0488,2.0313,2.0237,2.0237,1.9964,1.9712,1.9488,1.9122,1.8787,1.8432,1.8232,1.7929,1.7616,1.7494,1.7144,1.6705,1.6624,1.6397,1.6161,1.6161,1.608,1.5999,1.5999,1.5873,1.5623,1.5249,1.5134,1.5055,1.4559,1.4548,1.4571,1.4351,1.3951,1.3604,1.3462,1.3326,1.319,1.2911,1.2677,1.2462,1.2237,1.1914,1.1478,1.0999,1.045,1.0028,0.9893,0.9719,0.9589,0.9589,0.9589,0.9509,0.9246,0.8974,0.8578,0.806,0.764,0.7266,0.6826,0.6138,0.5459,0.479,0.4437,0.4145,0.3881,0.3625,0.3542,0.3623,0.3525,0.3489,1.1686,1.3769,1.6191,1.9807,2.265,2.4354,2.3534,2.4605,2.5727,2.5727,2.5703,2.5654,2.5654,2.5464,2.5285,0.0,0.0,0.0,0.0,0.0,0.0,0.0,0.0,0.0,0.0,0.0,0.0,0.0,0.0,0.0,1.9157,1.9139,1.9139,1.91,1.8779,1.877,1.9091,1.8779,1.8914,1.9573,1.9646,1.9847,2.0209,2.0083,2.0108,2.0235,2.0023,1.986,1.9798,1.956,1.9431,1.9328,1.9168,1.8829,1.8446,1.8395,1.801,1.7494,1.7459,1.727,1.709,1.709,1.7046,1.7003,1.7003,1.6794,1.6532,1.6033,1.5943,1.5814,1.5113,1.5127,1.517,1.479,1.4615,1.4454,1.4238,1.4014,1.3784,1.356,1.3155,1.2791,1.2566,1.212,1.1806,1.1806,1.1241,1.0857,1.0857,1.0559,1.0328,1.0288,1.024,1.0114,0.9821,0.9398,0.8998,0.8629,0.8233,0.7897,0.7714,0.7338,0.6634,0.5501,0.5219,0.4944,0.4608,0.4375,0.4325,0.4519,0.4289,0.4187,1.16,1.4968,1.8499,2.1358,2.3031,2.4134,2.4614,2.4943,2.5133,0.0,2.5499,2.5864,2.5864,2.5812,2.5812,0.0,0.0,0.0,0.0,0.0,0.0,0.0,0.0,0.0,0.0,0.0,0.0,0.0,0.0,0.0,1.8555,1.8527,1.8462,1.8284,1.8191,1.8229,1.8246,1.8191,1.8219,1.8329,1.8676,1.8907,1.8962,1.9271,1.9811,2.0479,2.0437,2.0203,1.9884,1.9843,1.9512,1.9035,1.9035,1.8883,1.864,1.847,1.8348,1.8226,1.7982,1.7892,1.7851,1.7851,1.7614,1.7327,1.7327,1.7038,1.6658,1.6397,1.6329,1.6262,1.5997,1.5922,1.5944,1.5899,1.5876,1.5526,1.4365,1.3897,1.372,1.3677,1.3352,1.3065,1.3022,1.2601,1.232,1.232,1.2032,1.1823,1.1823,1.178,1.1653,1.1425,1.1235,1.0934,1.0499,1.0102,0.9754,0.9449,0.9043,0.8737,0.8551,0.8333,0.7821,0.702,0.5958,0.5426,0.5446,0.5299,0.5289,0.5418,0.5554,0.5521,1.1856,1.5684,1.9137,2.0771,2.2094,2.3121,2.366,2.4216,2.4619,2.4619,2.502,2.5389,2.5389,2.5308,0.0,0.0,0.0,0.0,0.0,0.0,0.0,0.0,0.0,0.0,0.0,0.0,0.0,0.0,0.0,1.9067,1.8701,1.8692,1.8627,1.8425,1.7968,1.7877,1.8258,1.7778,1.7742,1.8091,1.8264,1.8495,1.8715,1.8889,1.9292,1.9833,1.9833,1.9742,1.9577,1.9577,1.9387,1.9152,1.9152,1.9042,1.8851,1.8763,1.8643,1.8571,1.8451,1.8411,1.8411,1.8411,1.829,1.8129,1.8129,1.7919,1.7587,1.7383,1.7212,1.709,1.6886,1.6845,1.6804,1.6681,1.6681,1.6476,1.5741,1.5068,1.4524,1.4188,1.373,1.344,1.344,1.3179,1.2966,1.2966,1.2753,1.2535,1.2343,1.2242,1.2058,1.1747,1.1519,1.1295,1.0976,1.0578,1.0223,0.9963,0.9666,0.9463,0.9387,0.9078,0.8717,0.8266,0.7109,0.6344,0.605,0.5987,0.605,0.6214,0.6313,0.636,1.1498,1.4945,1.783,1.8782,1.9981,2.1128,2.1924,2.2771,2.3541,0.0,2.4314,2.4525,2.4487,2.4625,0.0,0.0,0.0,0.0,0.0,0.0,0.0,0.0,0.0,0.0,0.0,0.0,0.0,0.0,0.0,1.9196,1.8883,1.8838,1.8682,1.8426,1.7726,1.7536,1.7879,1.7313,1.7265,1.7769,1.7981,1.8267,1.8563,1.8665,1.8877,1.9134,1.9258,1.9301,1.9301,1.9301,1.9301,1.9301,1.9301,1.9222,1.9073,1.9073,1.8962,1.8851,1.8851,1.8851,1.8851,1.8851,1.8812,1.8772,1.8772,1.8652,1.8442,1.8241,1.8072,1.791,1.7757,1.7725,1.7676,1.7546,1.7505,1.7343,1.673,1.6105,1.5477,1.4852,1.4398,1.411,1.3984,1.3773,1.362,1.3471,1.3332,1.3104,1.2779,1.2584,1.2391,1.2074,1.1851,1.1624,1.1334,1.1002,1.073,1.053,1.0368,1.0255,1.0218,0.9832,0.952,0.9217,0.8238,0.7413,0.6745,0.6712,0.6778,0.6942,0.7034,0.7155,0.9957,1.1852,1.3835,1.5217,1.6382,1.7696,1.9692,2.0565,2.1401,2.296,2.3288,2.3232,2.305,2.4079,0.0,0.0,0.0,0.0,0.0,0.0,0.0,0.0,0.0,0.0,0.0,0.0,0.0,0.0,0.0,1.9411,1.8832,1.8623,1.8255,1.7691,1.7445,1.7054,1.6526,1.6717,1.6826,1.6883,1.77,1.8124,1.8152,1.8532,1.8693,1.876,1.9136,1.9301,1.9301,1.9301,1.9301,1.9301,1.9301,1.9301,1.9262,1.9262,1.9262,1.9262,1.9262,1.9262,1.9262,1.9262,1.9152,1.8962,1.8962,1.8851,1.87,1.866,1.866,1.866,1.866,1.862,1.862,1.862,1.862,1.8201,1.6722,1.6394,1.6229,1.5733,1.5443,1.5186,1.4734,1.4482,1.4184,1.3666,1.3585,1.3439,1.3101,1.3061,1.2942,1.2677,1.2491,1.2183,1.1714,1.1471,1.1347,1.1335,1.1335,1.1223,1.1037,1.0785,1.0343,0.9765,0.9253,0.8548,0.7634,0.7493,0.7526,0.7671,0.7913,0.8107,0.9112,1.0951,1.2938,1.3752,1.4699,1.5706,1.6757,1.7667,1.8464,1.9041,1.9656,2.0427,2.1377,2.2593,0.0,0.0,0.0,0.0,0.0,0.0,0.0,0.0,0.0,0.0,0.0,0.0,0.0,0.0,0.0,0.0,1.8673,1.8318,1.7954,1.7601,1.7265,1.6888,1.6453,1.6719,1.6951,1.7133,1.7441,1.7865,1.8431,1.8559,1.8771,1.9041,1.9312,1.9221,1.891,1.9171,1.9313,1.9302,1.9455,1.9478,1.9478,1.9341,1.9301,1.9301,1.9301,1.9301,1.9301,1.9301,1.9262,1.9183,1.9183,1.9152,1.9073,1.8922,1.8882,1.8851,1.874,1.87,1.87,1.87,1.87,1.854,1.8,1.7424,1.6935,1.664,1.6312,1.5982,1.5816,1.539,1.5009,1.4698,1.4391,1.4077,1.3687,1.3607,1.3525,1.3245,1.3024,1.2871,1.2686,1.2489,1.2378,1.2378,1.2378,1.2218,1.1952,1.1738,1.1246,1.0506,1.0198,0.9526,0.8414,0.8214,0.8155,0.8225,0.8582,0.8783,0.8116,0.953,1.1066,1.1576,1.2431,1.3376,1.4223,1.5126,1.5903,1.6421,1.7504,1.8657,1.9665,2.0927,0.0,0.0,0.0,0.0,0.0,0.0,0.0,0.0,0.0,0.0,0.0,0.0,0.0,0.0,0.0,0.0,1.9061,1.8518,1.8065,1.7725,1.7244,1.6886,1.6681,1.6941,1.7162,1.7338,1.7606,1.8045,1.8672,1.8788,1.9019,1.9324,1.9485,1.931,1.8997,1.9303,1.9418,1.9391,1.9572,1.9656,1.9606,1.9532,1.9499,1.9499,1.9499,1.9499,1.9499,1.9499,1.9499,1.9499,1.9499,1.9499,1.946,1.935,1.9311,1.9271,1.9121,1.9091,1.9091,1.9091,1.9091,1.9091,1.8922,1.8322,1.7797,1.7587,1.7212,1.6846,1.6563,1.6156,1.5691,1.5216,1.4926,1.463,1.4179,1.4141,1.4051,1.3878,1.3702,1.3593,1.3521,1.3302,1.32,1.32,1.32,1.3057,1.2734,1.2473,1.1998,1.1285,1.098,1.0451,0.9626,0.9087,0.8861,0.8931,0.9235,0.9428,0.0,0.0,0.0,0.8573,0.9475,1.0666,1.2239,1.3023,1.3848,1.5358,1.6943,1.8058,1.7977,0.0,0.0,0.0,0.0,0.0,0.0,0.0,0.0,0.0,0.0,0.0,0.0,0.0,0.0,0.0,0.0,1.9876,1.9887,1.9243,1.8566,1.7908,1.7316,1.7011,1.7011,1.7272,1.74,1.7421,1.8207,1.8638,1.8807,1.9123,1.9387,1.9584,1.9584,1.9561,1.9548,1.9647,1.962,1.9535,1.9717,1.9742,1.964,1.9849,1.9932,1.9942,1.9942,1.9942,1.9942,1.9942,1.9942,1.9902,1.9902,1.9902,1.9902,1.9902,1.9902,1.9902,1.9902,1.9893,1.9883,1.9883,1.9874,1.9786,1.9383,1.8966,1.8665,1.8434,1.8201,1.7791,1.6975,1.6673,1.6202,1.5276,1.512,1.503,1.4681,1.4641,1.4641,1.4641,1.4497,1.4353,1.4165,1.3964,1.3826,1.3826,1.3826,1.3676,1.3347,1.3009,1.2572,1.2043,1.1594,1.1341,1.1334,1.0123,0.9646,0.9843,0.9909,1.0144,0.7636,0.0,0.0,0.0,0.0,0.0,0.9707,1.0825,1.1868,1.2313,1.3992,1.5834,1.7303,0.0,0.0,0.0,0.0,0.0,0.0,0.0,0.0,0.0,0.0,0.0,0.0,0.0,0.0,0.0,2.0109,1.9501,1.9392,1.8527,1.7946,1.7773,1.7584,1.7468,1.7357,1.7433,1.756,1.7773,1.7984,1.8285,1.8649,1.8748,1.9037,1.9456,1.9562,1.9825,2.012,1.9982,1.9805,1.9661,1.9883,2.0072,2.0242,2.0276,2.0408,2.0634,2.0779,2.0741,2.0634,2.0634,2.0518,2.0411,2.0411,2.0411,2.0411,2.0411,2.0411,2.0411,2.0411,2.014,1.9898,1.9898,1.9628,1.9322,1.907,1.8929,1.8804,1.8656,1.8683,1.851,1.7839,1.7581,1.7157,1.6303,1.5969,1.5749,1.5497,1.5488,1.5417,1.5284,1.5213,1.5106,1.4911,1.4848,1.4812,1.4812,1.4812,1.4659,1.4321,1.3952,1.3458,1.2804,1.2445,1.2182,1.2019,1.1045,1.0604,1.0667,1.0844,1.0964,0.7911,0.8297,0.8694,0.8694,0.0,0.0,0.903,1.0101,1.1099,0.0,1.2451,1.4197,1.6054,0.0,0.0,0.0,0.0,0.0,0.0,0.0,0.0,0.0,0.0,0.0,0.0,0.0,0.0,2.1411,2.0289,1.9383,1.8885,1.8305,1.8014,1.8084,1.8084,1.8057,1.7963,1.7963,1.8001,1.8109,1.8253,1.8469,1.8729,1.894,1.9357,1.9949,1.9989,2.0301,2.0712,2.0468,2.021,2.0007,2.0222,2.0402,2.0494,2.0497,2.0622,2.0771,2.092,2.0883,2.0771,2.0883,2.0771,2.0594,2.0594,2.0557,2.0509,2.0509,2.0509,2.0509,2.0509,2.0319,2.0119,2.0119,1.9882,1.962,1.9413,1.9304,1.9176,1.8771,1.8786,1.8678,1.8153,1.7889,1.757,1.6956,1.6695,1.6508,1.6394,1.6394,1.6324,1.6228,1.6053,1.5877,1.5665,1.5594,1.5524,1.5444,1.5524,1.5399,1.5061,1.4655,1.4169,1.3665,1.3184,1.295,1.2911,1.1957,1.149,1.1553,1.1646,1.1685,0.0,0.0,0.0,0.8887,0.9199,0.0,0.9426,1.0245,1.1015,1.1015,1.1909,1.3125,1.4485,0.0,0.0,0.0,0.0,0.0,0.0,0.0,0.0,0.0,0.0,0.0,0.0,2.0853,2.1023,2.1518,2.0486,1.9418,1.8468,1.8422,1.8464,1.8587,1.8587,1.8587,1.8587,1.8587,1.8545,1.8433,1.8737,1.8861,1.8884,1.9304,1.9887,2.0554,2.0528,2.078,2.1141,2.104,2.0786,2.0455,2.0698,2.0683,2.0577,2.066,2.0709,2.0751,2.0751,2.0751,2.0751,2.0928,2.0857,2.0715,2.0715,2.0609,2.0527,2.0527,2.0527,2.0527,2.0527,2.0461,2.0419,2.0454,2.0377,2.0265,2.0042,1.992,1.9609,1.8906,1.8754,1.8596,1.8204,1.7986,1.7748,1.7395,1.7329,1.7329,1.7329,1.7329,1.7339,1.7304,1.6985,1.6673,1.6447,1.6307,1.6167,1.5974,1.6167,1.6069,1.5717,1.5329,1.4942,1.4585,1.3939,1.3722,1.389,1.282,1.2336,1.2459,1.2459,1.2398,0.0,0.0,0.0,0.0,0.9738,0.0,0.8946,0.968,1.0461,1.0461,1.1656,1.2788,1.3101,1.351,0.0,0.0,0.0,0.0,0.0,0.0,0.0,0.0,0.0,0.0,0.0,2.0498,2.0463,2.057,1.987,1.9174,1.8595,1.856,1.856,1.8587,1.8587,1.8587,1.8587,1.8587,1.8587,1.856,1.8639,1.8658,1.8658,1.8764,1.9064,1.9591,2.003,2.0498,2.0984,2.1385,2.1181,2.0648,2.0705,2.082,2.1017,2.1184,2.138,2.1594,2.1768,2.1699,2.1559,2.1594,2.149,2.1315,2.1315,2.1315,2.128,2.128,2.128,2.128,2.128,2.0885,2.0527,2.0698,2.0339,1.9971,1.9937,1.9904,1.9737,1.9279,1.9389,1.9429,1.8948,1.8974,1.8894,1.8343,1.824,1.824,1.824,1.824,1.8138,1.7867,1.7765,1.7594,1.721,1.7166,1.7132,1.7097,1.7132,1.7104,1.7011,1.6678,1.6225,1.5615,1.4866,1.444,1.435,1.3761,1.3498,1.3498,1.3498,1.3398,0.0,0.0,0.0,1.0762,1.0305,0.0,0.0,1.0113,1.0702,1.0702,1.1123,1.1752,1.2547,0.0,0.0,0.0,0.0,0.0,0.0,0.0,0.0,0.0,0.0,0.0,0.0,2.0121,2.0024,1.9951,1.9629,1.9235,1.8741,1.8706,1.8732,1.8801,1.8801,1.8801,1.8801,1.8801,1.8774,1.8706,1.8706,1.8652,1.8587,1.8679,1.8963,1.9471,1.9703,2.0258,2.1013,2.1212,2.1265,2.1181,2.1181,2.1234,2.1245,2.1289,2.1316,2.1375,2.1486,2.1452,2.1375,2.1486,2.1375,2.1208,2.1208,2.1152,2.1085,2.1085,2.1085,2.1085,2.1085,2.0842,2.0621,2.072,2.0511,2.0302,2.0302,2.0237,2.014,2.002,2.0044,1.9926,1.9288,1.9281,1.9266,1.8929,1.8888,1.8888,1.8888,1.8888,1.8821,1.8654,1.8586,1.8328,1.7786,1.7766,1.7699,1.7609,1.7699,1.7864,1.809,1.7504,1.6782,1.5923,1.5507,1.5294,1.5294,1.5059,1.4736,1.4359,1.421,1.4091,0.0,0.0,0.0,0.0,0.0,1.0401,0.0,0.0,0.0,0.0,0.0,0.0,0.0,0.0,0.0,0.0,0.0,0.0,0.0,0.0,0.0,0.0,0.0,0.0,0.0,1.9143,1.897,1.8875,1.8875,1.8705,1.8384,1.8563,1.8797,1.8987,1.8987,1.8987,1.8987,1.8987,1.8946,1.8851,1.8851,1.8786,1.8667,1.8786,1.9078,1.9483,1.9539,2.0046,2.0855,2.0967,2.1237,2.1662,2.1694,2.158,2.1431,2.1348,2.119,2.1063,2.1063,2.1063,2.1051,2.1106,2.104,2.0891,2.0737,2.0687,2.0692,2.057,2.0547,2.0547,2.0547,2.0516,2.0484,2.0516,2.0516,2.0516,2.0547,2.0409,2.0346,2.0473,2.0424,2.0203,1.966,1.955,1.9517,1.9517,1.9483,1.944,1.944,1.944,1.9419,1.9291,1.9182,1.8863,1.8171,1.813,1.8107,1.8027,1.8156,1.8417,1.8798,1.7976,1.7082,1.6199,1.6126,1.6104,1.62,1.6228,1.5845,1.5128,1.4913,1.4795,0.0,0.0,0.0,0.0,1.1097,0.0,0.0,0.0,0.969,0.969,0.0,0.0,0.0,0.0,0.0,0.0,0.0,0.0,0.0,0.0,0.0,0.0,0.0,0.0,0.0,0.0,1.6236,1.6236,1.6236,1.6416,1.6835,1.776,1.848,1.8975,1.8987,1.8987,1.8987,1.8987,1.8987,1.8999,1.8999,1.8972,1.896,1.8972,1.8996,1.908,1.9576,1.9853,2.0005,2.0948,2.138,2.1446,2.1615,2.1698,2.1655,2.1635,2.1635,2.1604,2.1604,2.1604,2.1522,2.1073,2.0909,2.0796,2.0173,2.0329,2.0595,2.0114,1.9986,1.9986,1.9986,1.9867,1.9748,1.9801,1.976,1.9767,1.9957,1.9957,1.9897,1.9778,1.9992,2.029,2.0494,2.041,2.0281,2.0281,2.0107,2.002,2.002,2.002,1.9792,1.9254,1.9211,1.8923,1.8257,1.8184,1.8353,1.8744,1.8807,1.8829,1.8881,1.8003,1.7394,1.7141,1.6848,1.6637,1.6542,1.6666,1.6467,1.597,1.5941,1.5845,0.0,0.0,0.0,0.0,0.0,0.0,1.0653,0.0,1.0066,0.0,0.0,0.0,0.0,0.0,0.0,0.0,1.0185,0.0,0.0,0.0,0.0,0.0,0.0,0.0,0.0,0.0,0.0,0.0,0.0,1.5888,1.6126,1.746,1.8301,1.853,1.8831,1.8987,1.8987,1.8987,1.8987,1.8987,1.8987,1.8987,1.8987,1.8987,1.8987,1.8999,1.9227,1.9519,1.9868,2.0639,2.1103,2.1434,2.1839,2.1917,2.1812,2.1812,2.1761,2.1698,2.1698,2.1498,2.1146,2.0605,2.0441,2.0364,2.0094,2.0188,2.0317,2.0065,2.0006,2.0006,2.0006,1.9948,1.9889,1.993,1.9919,1.9907,2.0006,2.0006,2.0006,1.9919,2.0034,2.0195,2.0342,2.0477,2.0572,2.0572,2.0231,1.999,1.999,1.9725,1.9377,1.9067,1.9015,1.8757,1.814,1.8067,1.8183,1.8367,1.8698,1.8801,1.8627,1.8155,1.7759,1.7409,1.727,1.719,1.7134,1.7329,1.7346,1.7123,1.6616,1.6371,1.3146,0.0,0.0,0.0,0.0,0.0,0.0,0.0,0.0,0.0,0.0,0.0,0.0,0.0,0.0,0.9829,0.0,0.9865,0.0,0.0,0.0,0.0,0.0,0.0,0.0,0.0,0.0,0.0,0.0,0.0,1.4529,1.6571,1.7772,1.7772,1.8422,1.8881,1.9052,1.9052,1.9078,1.9105,1.9105,1.9105,1.9105,1.9105,1.9105,1.9105,1.9105,1.9337,1.9749,2.0439,2.0947,2.1342,2.1874,2.1988,2.1877,2.197,2.1906,2.1824,2.1824,2.1405,2.0772,2.025,2.0072,2.0049,1.9838,2.0003,2.0192,2.005,2.0121,2.0192,1.9993,1.9986,1.9979,1.9781,1.9802,1.9847,1.9847,1.9847,1.9847,1.9847,1.9937,1.9974,1.9974,2.025,2.0475,2.0495,2.0107,1.982,1.9881,1.9463,1.9093,1.884,1.8829,1.8581,1.8008,1.7992,1.8087,1.8249,1.867,1.878,1.8543,1.8294,1.8014,1.7673,1.7661,1.7689,1.7717,1.7897,1.8034,1.8073,1.7357,1.6994,0.0,0.0,0.0,1.3995,0.0,0.0,0.0,0.0,1.1363,0.0,0.0,0.0,0.0,1.089,1.0481,1.0469,0.9611,0.0,0.0,0.0,0.0,0.0,0.0,0.0,0.0,0.0,0.0,0.0,0.0,0.0,1.1303,1.4674,1.6655,1.6655,1.7688,1.8533,1.9196,1.9196,1.9249,1.9394,1.9394,1.9394,1.9394,1.9394,1.9394,1.9394,1.9394,1.9406,1.9505,2.0545,2.0986,2.106,2.1599,2.1807,2.1839,2.2085,2.2197,2.2185,2.2185,2.159,2.071,2.0176,1.9994,1.987,1.923,1.9756,2.0494,1.9949,2.0165,2.0425,1.9781,1.9706,1.9657,1.8991,1.9035,1.9235,1.9235,1.9235,1.9235,1.9235,1.9474,1.9713,1.9713,1.9782,1.9883,2.0018,1.9795,1.9647,1.9783,1.9559,1.9188,1.8679,1.8623,1.8419,1.7938,1.8025,1.8324,1.8834,1.8879,1.8908,1.8896,1.837,1.8107,1.8084,1.8084,1.8127,1.8278,1.8278,1.8387,1.856,1.822,1.8057,0.0,0.0,1.5327,1.5139,0.0,0.0,0.0,0.0,0.0,0.0,0.0,0.0,0.0,1.3649,1.2935,1.1062,0.9868,0.8948,0.0,0.0,0.0,0.0,0.0,0.0,0.0,0.0,0.0,0.0,0.0,0.0,0.0,1.3946,1.5889,1.7349,1.808,1.8791,1.946,1.9473,1.9539,1.9656,1.9656,1.9656,1.9656,1.9656,1.9656,1.9656,1.9759,1.9798,1.9886,2.1113,2.1552,2.1531,2.2157,2.2342,2.2185,2.1616,2.164,2.1896,2.1648,2.1104,2.0459,1.9916,1.9744,1.968,1.9457,1.9924,2.0505,2.0308,2.064,2.0895,2.0174,2.0122,2.0096,1.9491,1.9474,1.9592,1.9592,1.9669,1.9747,1.9747,1.9897,2.0035,2.0035,2.0053,2.0155,2.0413,2.0205,1.9973,1.9945,1.9551,1.9128,1.8772,1.8721,1.8678,1.8506,1.8614,1.8804,1.9066,1.9105,1.9144,1.9237,1.8964,1.8801,1.8706,1.8762,1.8827,1.8774,1.9121,1.9331,1.9396,1.9474,1.9107,1.9112,1.8331,0.0,1.7516,1.614,0.0,1.4785,0.0,0.0,0.0,0.0,0.0,0.0,0.0,1.3761,1.1725,1.0482,0.9491,0.0,0.8721,0.0,0.0,0.0,0.0,0.0,0.0,0.0,0.0,0.0,0.0,0.0,0.0,1.4344,1.58,1.6574,1.7604,1.8907,1.8945,1.9358,2.008,2.008,2.008,2.008,2.008,2.008,2.008,2.0182,2.022,2.0309,2.1571,2.2021,2.1977,2.242,2.2534,2.2355,2.1578,2.1496,2.1732,2.1284,2.0928,2.0605,2.0064,1.9888,1.9888,1.9888,2.0456,2.1102,2.1089,2.1426,2.1647,2.0969,2.0749,2.0553,2.0001,1.9991,2.008,2.008,2.0144,2.0284,2.0476,2.0605,2.0733,2.0953,2.0849,2.0707,2.06,2.0362,2.0204,2.0151,1.9723,1.937,1.9251,1.9172,1.9198,1.9279,1.937,1.9448,1.9552,1.9552,1.9578,1.9668,1.9604,1.95,1.9434,1.95,1.9552,1.95,1.9824,2.0029,2.008,2.0271,1.9952]}]]